<?xml version="1.0" encoding="UTF-8" standalone="no" ?>
<gpx xmlns="http://www.topografix.com/GPX/1/1" xmlns:xsi="http://www.w3.org/2001/XMLSchema-instance" xsi:schemaLocation="http://www.topografix.com/GPX/1/1 http://www.topografix.com/GPX/1/1/gpx.xsd" version="1.1" creator="VisuGPX - https://www.visugpx.com">
  <metadata>
    <name>Roc du Plainet</name>
    <desc><![CDATA[Belle sortie dans les Vosges Saonoises]]></desc>
  </metadata>
  <trk>
    <name><![CDATA[20200209_091235.gpx]]></name>
    <trkseg>
      <trkpt lat="47.68613" lon="6.65296">
        <ele>346.42255</ele>
        <time>2020-02-09T08:12:55Z</time>
      </trkpt>
      <trkpt lat="47.68623" lon="6.65316">
        <ele>347.8463</ele>
        <time>2020-02-09T08:13:00Z</time>
      </trkpt>
      <trkpt lat="47.68627" lon="6.65331">
        <ele>348.66733</ele>
        <time>2020-02-09T08:13:05Z</time>
      </trkpt>
      <trkpt lat="47.68632" lon="6.65348">
        <ele>350.58643</ele>
        <time>2020-02-09T08:13:10Z</time>
      </trkpt>
      <trkpt lat="47.68634" lon="6.65365">
        <ele>353.09686</ele>
        <time>2020-02-09T08:13:15Z</time>
      </trkpt>
      <trkpt lat="47.68633" lon="6.65384">
        <ele>354.37225</ele>
        <time>2020-02-09T08:13:20Z</time>
      </trkpt>
      <trkpt lat="47.6863" lon="6.654">
        <ele>355.0007</ele>
        <time>2020-02-09T08:13:25Z</time>
      </trkpt>
      <trkpt lat="47.68628" lon="6.65419">
        <ele>356.74414</ele>
        <time>2020-02-09T08:13:30Z</time>
      </trkpt>
      <trkpt lat="47.68629" lon="6.65438">
        <ele>358.14703</ele>
        <time>2020-02-09T08:13:35Z</time>
      </trkpt>
      <trkpt lat="47.68636" lon="6.65453">
        <ele>360.09537</ele>
        <time>2020-02-09T08:13:40Z</time>
      </trkpt>
      <trkpt lat="47.68646" lon="6.65465">
        <ele>361.09604</ele>
        <time>2020-02-09T08:13:45Z</time>
      </trkpt>
      <trkpt lat="47.68654" lon="6.65472">
        <ele>363.59497</ele>
        <time>2020-02-09T08:13:50Z</time>
      </trkpt>
      <trkpt lat="47.6866" lon="6.6547">
        <ele>362.86935</ele>
        <time>2020-02-09T08:13:55Z</time>
      </trkpt>
      <trkpt lat="47.68664" lon="6.65451">
        <ele>362.96432</ele>
        <time>2020-02-09T08:14:00Z</time>
      </trkpt>
      <trkpt lat="47.68671" lon="6.65426">
        <ele>363.2826</ele>
        <time>2020-02-09T08:14:05Z</time>
      </trkpt>
      <trkpt lat="47.68679" lon="6.65403">
        <ele>363.14157</ele>
        <time>2020-02-09T08:14:10Z</time>
      </trkpt>
      <trkpt lat="47.68688" lon="6.65384">
        <ele>362.67154</ele>
        <time>2020-02-09T08:14:15Z</time>
      </trkpt>
      <trkpt lat="47.68704" lon="6.65386">
        <ele>362.2407</ele>
        <time>2020-02-09T08:14:20Z</time>
      </trkpt>
      <trkpt lat="47.68719" lon="6.654">
        <ele>361.54352</ele>
        <time>2020-02-09T08:14:25Z</time>
      </trkpt>
      <trkpt lat="47.68716" lon="6.65425">
        <ele>361.1313</ele>
        <time>2020-02-09T08:14:30Z</time>
      </trkpt>
      <trkpt lat="47.68721" lon="6.65437">
        <ele>360.32446</ele>
        <time>2020-02-09T08:14:35Z</time>
      </trkpt>
      <trkpt lat="47.68737" lon="6.65435">
        <ele>361.74817</ele>
        <time>2020-02-09T08:14:40Z</time>
      </trkpt>
      <trkpt lat="47.68758" lon="6.65429">
        <ele>358.9978</ele>
        <time>2020-02-09T08:14:45Z</time>
      </trkpt>
      <trkpt lat="47.68782" lon="6.65433">
        <ele>358.53375</ele>
        <time>2020-02-09T08:14:50Z</time>
      </trkpt>
      <trkpt lat="47.68807" lon="6.65442">
        <ele>355.60468</ele>
        <time>2020-02-09T08:14:55Z</time>
      </trkpt>
      <trkpt lat="47.68832" lon="6.65448">
        <ele>355.45197</ele>
        <time>2020-02-09T08:15:00Z</time>
      </trkpt>
      <trkpt lat="47.68858" lon="6.65457">
        <ele>356.4064</ele>
        <time>2020-02-09T08:15:05Z</time>
      </trkpt>
      <trkpt lat="47.68877" lon="6.65451">
        <ele>355.60956</ele>
        <time>2020-02-09T08:15:10Z</time>
      </trkpt>
      <trkpt lat="47.68888" lon="6.65451">
        <ele>354.51028</ele>
        <time>2020-02-09T08:15:15Z</time>
      </trkpt>
      <trkpt lat="47.68907" lon="6.65454">
        <ele>353.62933</ele>
        <time>2020-02-09T08:15:20Z</time>
      </trkpt>
      <trkpt lat="47.68926" lon="6.65445">
        <ele>354.246</ele>
        <time>2020-02-09T08:15:25Z</time>
      </trkpt>
      <trkpt lat="47.68945" lon="6.65428">
        <ele>353.39343</ele>
        <time>2020-02-09T08:15:30Z</time>
      </trkpt>
      <trkpt lat="47.68971" lon="6.65411">
        <ele>351.5103</ele>
        <time>2020-02-09T08:15:35Z</time>
      </trkpt>
      <trkpt lat="47.69002" lon="6.654">
        <ele>351.30283</ele>
        <time>2020-02-09T08:15:40Z</time>
      </trkpt>
      <trkpt lat="47.69026" lon="6.65379">
        <ele>348.32385</ele>
        <time>2020-02-09T08:15:45Z</time>
      </trkpt>
      <trkpt lat="47.69052" lon="6.65355">
        <ele>347.3365</ele>
        <time>2020-02-09T08:15:50Z</time>
      </trkpt>
      <trkpt lat="47.69078" lon="6.65331">
        <ele>346.15445</ele>
        <time>2020-02-09T08:15:55Z</time>
      </trkpt>
      <trkpt lat="47.69103" lon="6.65326">
        <ele>347.2807</ele>
        <time>2020-02-09T08:16:00Z</time>
      </trkpt>
      <trkpt lat="47.69136" lon="6.65328">
        <ele>344.97836</ele>
        <time>2020-02-09T08:16:05Z</time>
      </trkpt>
      <trkpt lat="47.69173" lon="6.65341">
        <ele>343.02747</ele>
        <time>2020-02-09T08:16:10Z</time>
      </trkpt>
      <trkpt lat="47.69197" lon="6.65357">
        <ele>343.20554</ele>
        <time>2020-02-09T08:16:15Z</time>
      </trkpt>
      <trkpt lat="47.69214" lon="6.65372">
        <ele>344.58994</ele>
        <time>2020-02-09T08:16:20Z</time>
      </trkpt>
      <trkpt lat="47.69229" lon="6.65383">
        <ele>346.79636</ele>
        <time>2020-02-09T08:16:25Z</time>
      </trkpt>
      <trkpt lat="47.69242" lon="6.65392">
        <ele>347.15253</ele>
        <time>2020-02-09T08:16:30Z</time>
      </trkpt>
      <trkpt lat="47.69255" lon="6.65403">
        <ele>349.17227</ele>
        <time>2020-02-09T08:16:35Z</time>
      </trkpt>
      <trkpt lat="47.69272" lon="6.65413">
        <ele>349.78687</ele>
        <time>2020-02-09T08:16:40Z</time>
      </trkpt>
      <trkpt lat="47.69288" lon="6.65424">
        <ele>350.6784</ele>
        <time>2020-02-09T08:16:45Z</time>
      </trkpt>
      <trkpt lat="47.69301" lon="6.65433">
        <ele>352.66718</ele>
        <time>2020-02-09T08:16:50Z</time>
      </trkpt>
      <trkpt lat="47.6931" lon="6.65444">
        <ele>351.5749</ele>
        <time>2020-02-09T08:16:55Z</time>
      </trkpt>
      <trkpt lat="47.69321" lon="6.65456">
        <ele>352.25708</ele>
        <time>2020-02-09T08:17:00Z</time>
      </trkpt>
      <trkpt lat="47.69336" lon="6.6547">
        <ele>351.97717</ele>
        <time>2020-02-09T08:17:05Z</time>
      </trkpt>
      <trkpt lat="47.69351" lon="6.65481">
        <ele>352.43326</ele>
        <time>2020-02-09T08:17:10Z</time>
      </trkpt>
      <trkpt lat="47.69363" lon="6.65492">
        <ele>353.0166</ele>
        <time>2020-02-09T08:17:15Z</time>
      </trkpt>
      <trkpt lat="47.69378" lon="6.65503">
        <ele>353.30045</ele>
        <time>2020-02-09T08:17:20Z</time>
      </trkpt>
      <trkpt lat="47.69392" lon="6.65516">
        <ele>353.17322</ele>
        <time>2020-02-09T08:17:25Z</time>
      </trkpt>
      <trkpt lat="47.694" lon="6.65526">
        <ele>355.3022</ele>
        <time>2020-02-09T08:17:30Z</time>
      </trkpt>
      <trkpt lat="47.69414" lon="6.65535">
        <ele>354.34192</ele>
        <time>2020-02-09T08:17:35Z</time>
      </trkpt>
      <trkpt lat="47.69431" lon="6.65541">
        <ele>355.12207</ele>
        <time>2020-02-09T08:17:40Z</time>
      </trkpt>
      <trkpt lat="47.69445" lon="6.65558">
        <ele>354.64047</ele>
        <time>2020-02-09T08:17:45Z</time>
      </trkpt>
      <trkpt lat="47.69458" lon="6.65576">
        <ele>354.60522</ele>
        <time>2020-02-09T08:17:50Z</time>
      </trkpt>
      <trkpt lat="47.69471" lon="6.65592">
        <ele>354.0463</ele>
        <time>2020-02-09T08:17:55Z</time>
      </trkpt>
      <trkpt lat="47.69477" lon="6.65607">
        <ele>355.21802</ele>
        <time>2020-02-09T08:18:00Z</time>
      </trkpt>
      <trkpt lat="47.69487" lon="6.65624">
        <ele>355.96002</ele>
        <time>2020-02-09T08:18:05Z</time>
      </trkpt>
      <trkpt lat="47.69503" lon="6.65643">
        <ele>355.50775</ele>
        <time>2020-02-09T08:18:10Z</time>
      </trkpt>
      <trkpt lat="47.69517" lon="6.65665">
        <ele>355.34036</ele>
        <time>2020-02-09T08:18:15Z</time>
      </trkpt>
      <trkpt lat="47.69529" lon="6.65678">
        <ele>356.19495</ele>
        <time>2020-02-09T08:18:20Z</time>
      </trkpt>
      <trkpt lat="47.69541" lon="6.65692">
        <ele>355.4314</ele>
        <time>2020-02-09T08:18:25Z</time>
      </trkpt>
      <trkpt lat="47.6955" lon="6.65709">
        <ele>356.4857</ele>
        <time>2020-02-09T08:18:30Z</time>
      </trkpt>
      <trkpt lat="47.6956" lon="6.65729">
        <ele>355.86407</ele>
        <time>2020-02-09T08:18:35Z</time>
      </trkpt>
      <trkpt lat="47.69574" lon="6.65753">
        <ele>354.96936</ele>
        <time>2020-02-09T08:18:40Z</time>
      </trkpt>
      <trkpt lat="47.69588" lon="6.65775">
        <ele>356.94092</ele>
        <time>2020-02-09T08:18:45Z</time>
      </trkpt>
      <trkpt lat="47.696" lon="6.65798">
        <ele>355.12598</ele>
        <time>2020-02-09T08:18:50Z</time>
      </trkpt>
      <trkpt lat="47.69611" lon="6.65818">
        <ele>354.10114</ele>
        <time>2020-02-09T08:18:55Z</time>
      </trkpt>
      <trkpt lat="47.69621" lon="6.65833">
        <ele>356.09314</ele>
        <time>2020-02-09T08:19:00Z</time>
      </trkpt>
      <trkpt lat="47.6963" lon="6.65851">
        <ele>355.48917</ele>
        <time>2020-02-09T08:19:05Z</time>
      </trkpt>
      <trkpt lat="47.69635" lon="6.65863">
        <ele>355.3482</ele>
        <time>2020-02-09T08:19:10Z</time>
      </trkpt>
      <trkpt lat="47.69646" lon="6.65883">
        <ele>355.17395</ele>
        <time>2020-02-09T08:19:15Z</time>
      </trkpt>
      <trkpt lat="47.69658" lon="6.65902">
        <ele>356.09314</ele>
        <time>2020-02-09T08:19:20Z</time>
      </trkpt>
      <trkpt lat="47.69671" lon="6.65921">
        <ele>356.7784</ele>
        <time>2020-02-09T08:19:25Z</time>
      </trkpt>
      <trkpt lat="47.69683" lon="6.65942">
        <ele>355.79556</ele>
        <time>2020-02-09T08:19:30Z</time>
      </trkpt>
      <trkpt lat="47.69694" lon="6.65963">
        <ele>355.52145</ele>
        <time>2020-02-09T08:19:35Z</time>
      </trkpt>
      <trkpt lat="47.69704" lon="6.65986">
        <ele>355.24347</ele>
        <time>2020-02-09T08:19:40Z</time>
      </trkpt>
      <trkpt lat="47.69713" lon="6.66003">
        <ele>354.65125</ele>
        <time>2020-02-09T08:19:45Z</time>
      </trkpt>
      <trkpt lat="47.69722" lon="6.66012">
        <ele>356.2116</ele>
        <time>2020-02-09T08:19:50Z</time>
      </trkpt>
      <trkpt lat="47.69737" lon="6.66019">
        <ele>356.10782</ele>
        <time>2020-02-09T08:19:55Z</time>
      </trkpt>
      <trkpt lat="47.69757" lon="6.66023">
        <ele>354.03458</ele>
        <time>2020-02-09T08:20:00Z</time>
      </trkpt>
      <trkpt lat="47.69776" lon="6.66024">
        <ele>354.0894</ele>
        <time>2020-02-09T08:20:05Z</time>
      </trkpt>
      <trkpt lat="47.69795" lon="6.66023">
        <ele>353.34155</ele>
        <time>2020-02-09T08:20:10Z</time>
      </trkpt>
      <trkpt lat="47.69812" lon="6.66021">
        <ele>352.8375</ele>
        <time>2020-02-09T08:20:15Z</time>
      </trkpt>
      <trkpt lat="47.69825" lon="6.66017">
        <ele>353.0626</ele>
        <time>2020-02-09T08:20:20Z</time>
      </trkpt>
      <trkpt lat="47.69845" lon="6.66009">
        <ele>353.3122</ele>
        <time>2020-02-09T08:20:25Z</time>
      </trkpt>
      <trkpt lat="47.69862" lon="6.66003">
        <ele>353.2094</ele>
        <time>2020-02-09T08:20:30Z</time>
      </trkpt>
      <trkpt lat="47.69883" lon="6.65996">
        <ele>353.14874</ele>
        <time>2020-02-09T08:20:35Z</time>
      </trkpt>
      <trkpt lat="47.69901" lon="6.6599">
        <ele>352.55658</ele>
        <time>2020-02-09T08:20:40Z</time>
      </trkpt>
      <trkpt lat="47.69919" lon="6.65984">
        <ele>352.98627</ele>
        <time>2020-02-09T08:20:45Z</time>
      </trkpt>
      <trkpt lat="47.69945" lon="6.65977">
        <ele>353.5011</ele>
        <time>2020-02-09T08:20:50Z</time>
      </trkpt>
      <trkpt lat="47.69965" lon="6.65973">
        <ele>352.8512</ele>
        <time>2020-02-09T08:20:55Z</time>
      </trkpt>
      <trkpt lat="47.69984" lon="6.65968">
        <ele>353.46097</ele>
        <time>2020-02-09T08:21:00Z</time>
      </trkpt>
      <trkpt lat="47.70002" lon="6.65961">
        <ele>353.69882</ele>
        <time>2020-02-09T08:21:05Z</time>
      </trkpt>
      <trkpt lat="47.7002" lon="6.65956">
        <ele>354.69235</ele>
        <time>2020-02-09T08:21:10Z</time>
      </trkpt>
      <trkpt lat="47.70033" lon="6.65952">
        <ele>353.84662</ele>
        <time>2020-02-09T08:21:15Z</time>
      </trkpt>
      <trkpt lat="47.70049" lon="6.65942">
        <ele>353.28772</ele>
        <time>2020-02-09T08:21:20Z</time>
      </trkpt>
      <trkpt lat="47.70049" lon="6.65903">
        <ele>353.5559</ele>
        <time>2020-02-09T08:21:25Z</time>
      </trkpt>
      <trkpt lat="47.70045" lon="6.6587">
        <ele>352.5605</ele>
        <time>2020-02-09T08:21:30Z</time>
      </trkpt>
      <trkpt lat="47.70039" lon="6.6584">
        <ele>352.86</ele>
        <time>2020-02-09T08:21:35Z</time>
      </trkpt>
      <trkpt lat="47.70035" lon="6.6581">
        <ele>352.76505</ele>
        <time>2020-02-09T08:21:40Z</time>
      </trkpt>
      <trkpt lat="47.70029" lon="6.65775">
        <ele>353.1184</ele>
        <time>2020-02-09T08:21:45Z</time>
      </trkpt>
      <trkpt lat="47.70021" lon="6.65745">
        <ele>352.9109</ele>
        <time>2020-02-09T08:21:50Z</time>
      </trkpt>
      <trkpt lat="47.7001" lon="6.65715">
        <ele>352.7494</ele>
        <time>2020-02-09T08:21:55Z</time>
      </trkpt>
      <trkpt lat="47.69999" lon="6.65685">
        <ele>354.55627</ele>
        <time>2020-02-09T08:22:00Z</time>
      </trkpt>
      <trkpt lat="47.69988" lon="6.65655">
        <ele>352.88348</ele>
        <time>2020-02-09T08:22:05Z</time>
      </trkpt>
      <trkpt lat="47.69975" lon="6.65627">
        <ele>351.82645</ele>
        <time>2020-02-09T08:22:10Z</time>
      </trkpt>
      <trkpt lat="47.69962" lon="6.65594">
        <ele>351.61993</ele>
        <time>2020-02-09T08:22:15Z</time>
      </trkpt>
      <trkpt lat="47.69951" lon="6.6557">
        <ele>350.87024</ele>
        <time>2020-02-09T08:22:20Z</time>
      </trkpt>
      <trkpt lat="47.6994" lon="6.65541">
        <ele>350.36133</ele>
        <time>2020-02-09T08:22:25Z</time>
      </trkpt>
      <trkpt lat="47.69931" lon="6.6551">
        <ele>351.60132</ele>
        <time>2020-02-09T08:22:30Z</time>
      </trkpt>
      <trkpt lat="47.69922" lon="6.6548">
        <ele>350.58545</ele>
        <time>2020-02-09T08:22:35Z</time>
      </trkpt>
      <trkpt lat="47.69923" lon="6.65453">
        <ele>350.68332</ele>
        <time>2020-02-09T08:22:40Z</time>
      </trkpt>
      <trkpt lat="47.69944" lon="6.65441">
        <ele>348.91196</ele>
        <time>2020-02-09T08:22:45Z</time>
      </trkpt>
      <trkpt lat="47.69965" lon="6.65435">
        <ele>348.43442</ele>
        <time>2020-02-09T08:22:50Z</time>
      </trkpt>
      <trkpt lat="47.69983" lon="6.65427">
        <ele>348.1017</ele>
        <time>2020-02-09T08:22:55Z</time>
      </trkpt>
      <trkpt lat="47.70001" lon="6.65425">
        <ele>348.47357</ele>
        <time>2020-02-09T08:23:00Z</time>
      </trkpt>
      <trkpt lat="47.70009" lon="6.654">
        <ele>346.7396</ele>
        <time>2020-02-09T08:23:05Z</time>
      </trkpt>
      <trkpt lat="47.70027" lon="6.65379">
        <ele>346.5566</ele>
        <time>2020-02-09T08:23:10Z</time>
      </trkpt>
      <trkpt lat="47.70043" lon="6.65375">
        <ele>348.63406</ele>
        <time>2020-02-09T08:23:15Z</time>
      </trkpt>
      <trkpt lat="47.70053" lon="6.65371">
        <ele>347.94415</ele>
        <time>2020-02-09T08:23:20Z</time>
      </trkpt>
      <trkpt lat="47.70059" lon="6.65358">
        <ele>349.0069</ele>
        <time>2020-02-09T08:23:25Z</time>
      </trkpt>
      <trkpt lat="47.70055" lon="6.6534">
        <ele>348.36298</ele>
        <time>2020-02-09T08:23:30Z</time>
      </trkpt>
      <trkpt lat="47.7006" lon="6.65327">
        <ele>347.6408</ele>
        <time>2020-02-09T08:23:35Z</time>
      </trkpt>
      <trkpt lat="47.70081" lon="6.65324">
        <ele>347.0449</ele>
        <time>2020-02-09T08:23:40Z</time>
      </trkpt>
      <trkpt lat="47.70097" lon="6.65305">
        <ele>347.51065</ele>
        <time>2020-02-09T08:23:45Z</time>
      </trkpt>
      <trkpt lat="47.70113" lon="6.65285">
        <ele>347.50186</ele>
        <time>2020-02-09T08:23:50Z</time>
      </trkpt>
      <trkpt lat="47.70126" lon="6.6526">
        <ele>347.42358</ele>
        <time>2020-02-09T08:23:55Z</time>
      </trkpt>
      <trkpt lat="47.70137" lon="6.65238">
        <ele>348.00873</ele>
        <time>2020-02-09T08:24:00Z</time>
      </trkpt>
      <trkpt lat="47.70156" lon="6.65227">
        <ele>348.1663</ele>
        <time>2020-02-09T08:24:05Z</time>
      </trkpt>
      <trkpt lat="47.70163" lon="6.65223">
        <ele>348.14868</ele>
        <time>2020-02-09T08:24:10Z</time>
      </trkpt>
      <trkpt lat="47.70166" lon="6.65211">
        <ele>349.29166</ele>
        <time>2020-02-09T08:24:15Z</time>
      </trkpt>
      <trkpt lat="47.70169" lon="6.65205">
        <ele>351.26953</ele>
        <time>2020-02-09T08:24:20Z</time>
      </trkpt>
      <trkpt lat="47.70173" lon="6.65202">
        <ele>351.4232</ele>
        <time>2020-02-09T08:24:25Z</time>
      </trkpt>
      <trkpt lat="47.70174" lon="6.65201">
        <ele>351.49564</ele>
        <time>2020-02-09T08:24:35Z</time>
      </trkpt>
      <trkpt lat="47.70171" lon="6.65198">
        <ele>350.74594</ele>
        <time>2020-02-09T08:24:45Z</time>
      </trkpt>
      <trkpt lat="47.70169" lon="6.65196">
        <ele>356.11078</ele>
        <time>2020-02-09T08:25:05Z</time>
      </trkpt>
      <trkpt lat="47.70171" lon="6.65189">
        <ele>355.80533</ele>
        <time>2020-02-09T08:25:20Z</time>
      </trkpt>
      <trkpt lat="47.70173" lon="6.65159">
        <ele>357.5606</ele>
        <time>2020-02-09T08:25:35Z</time>
      </trkpt>
      <trkpt lat="47.70178" lon="6.65136">
        <ele>357.29724</ele>
        <time>2020-02-09T08:25:40Z</time>
      </trkpt>
      <trkpt lat="47.70189" lon="6.65127">
        <ele>357.0163</ele>
        <time>2020-02-09T08:25:45Z</time>
      </trkpt>
      <trkpt lat="47.70202" lon="6.65119">
        <ele>354.708</ele>
        <time>2020-02-09T08:25:50Z</time>
      </trkpt>
      <trkpt lat="47.70207" lon="6.65104">
        <ele>356.8675</ele>
        <time>2020-02-09T08:25:55Z</time>
      </trkpt>
      <trkpt lat="47.70211" lon="6.65085">
        <ele>356.32907</ele>
        <time>2020-02-09T08:26:00Z</time>
      </trkpt>
      <trkpt lat="47.70214" lon="6.65064">
        <ele>356.2713</ele>
        <time>2020-02-09T08:26:05Z</time>
      </trkpt>
      <trkpt lat="47.70217" lon="6.65042">
        <ele>355.451</ele>
        <time>2020-02-09T08:26:10Z</time>
      </trkpt>
      <trkpt lat="47.70206" lon="6.65031">
        <ele>355.69376</ele>
        <time>2020-02-09T08:26:15Z</time>
      </trkpt>
      <trkpt lat="47.70192" lon="6.65008">
        <ele>356.66486</ele>
        <time>2020-02-09T08:26:20Z</time>
      </trkpt>
      <trkpt lat="47.70181" lon="6.64978">
        <ele>355.7515</ele>
        <time>2020-02-09T08:26:25Z</time>
      </trkpt>
      <trkpt lat="47.70178" lon="6.64946">
        <ele>354.3703</ele>
        <time>2020-02-09T08:26:30Z</time>
      </trkpt>
      <trkpt lat="47.70184" lon="6.64921">
        <ele>354.38892</ele>
        <time>2020-02-09T08:26:35Z</time>
      </trkpt>
      <trkpt lat="47.70187" lon="6.64891">
        <ele>354.50735</ele>
        <time>2020-02-09T08:26:40Z</time>
      </trkpt>
      <trkpt lat="47.70194" lon="6.64861">
        <ele>350.12842</ele>
        <time>2020-02-09T08:26:45Z</time>
      </trkpt>
      <trkpt lat="47.70205" lon="6.64876">
        <ele>349.5324</ele>
        <time>2020-02-09T08:26:50Z</time>
      </trkpt>
      <trkpt lat="47.70218" lon="6.64896">
        <ele>349.4502</ele>
        <time>2020-02-09T08:26:55Z</time>
      </trkpt>
      <trkpt lat="47.70232" lon="6.64913">
        <ele>349.98062</ele>
        <time>2020-02-09T08:27:00Z</time>
      </trkpt>
      <trkpt lat="47.70244" lon="6.64932">
        <ele>350.96713</ele>
        <time>2020-02-09T08:27:05Z</time>
      </trkpt>
      <trkpt lat="47.70256" lon="6.64953">
        <ele>350.77335</ele>
        <time>2020-02-09T08:27:10Z</time>
      </trkpt>
      <trkpt lat="47.70269" lon="6.6498">
        <ele>350.90057</ele>
        <time>2020-02-09T08:27:15Z</time>
      </trkpt>
      <trkpt lat="47.70279" lon="6.65005">
        <ele>351.61896</ele>
        <time>2020-02-09T08:27:20Z</time>
      </trkpt>
      <trkpt lat="47.70289" lon="6.65031">
        <ele>351.69528</ele>
        <time>2020-02-09T08:27:25Z</time>
      </trkpt>
      <trkpt lat="47.70297" lon="6.65055">
        <ele>352.27765</ele>
        <time>2020-02-09T08:27:30Z</time>
      </trkpt>
      <trkpt lat="47.70305" lon="6.65083">
        <ele>352.79736</ele>
        <time>2020-02-09T08:27:35Z</time>
      </trkpt>
      <trkpt lat="47.7031" lon="6.65103">
        <ele>353.36407</ele>
        <time>2020-02-09T08:27:40Z</time>
      </trkpt>
      <trkpt lat="47.70318" lon="6.6513">
        <ele>354.24698</ele>
        <time>2020-02-09T08:27:45Z</time>
      </trkpt>
      <trkpt lat="47.70324" lon="6.65153">
        <ele>354.98895</ele>
        <time>2020-02-09T08:27:50Z</time>
      </trkpt>
      <trkpt lat="47.70329" lon="6.65182">
        <ele>356.83127</ele>
        <time>2020-02-09T08:27:55Z</time>
      </trkpt>
      <trkpt lat="47.70331" lon="6.65211">
        <ele>357.37265</ele>
        <time>2020-02-09T08:28:00Z</time>
      </trkpt>
      <trkpt lat="47.70331" lon="6.65243">
        <ele>357.82004</ele>
        <time>2020-02-09T08:28:05Z</time>
      </trkpt>
      <trkpt lat="47.70331" lon="6.65273">
        <ele>357.69278</ele>
        <time>2020-02-09T08:28:10Z</time>
      </trkpt>
      <trkpt lat="47.70328" lon="6.65302">
        <ele>357.33936</ele>
        <time>2020-02-09T08:28:15Z</time>
      </trkpt>
      <trkpt lat="47.70324" lon="6.65323">
        <ele>356.7794</ele>
        <time>2020-02-09T08:28:20Z</time>
      </trkpt>
      <trkpt lat="47.70329" lon="6.65344">
        <ele>356.0442</ele>
        <time>2020-02-09T08:28:25Z</time>
      </trkpt>
      <trkpt lat="47.70466" lon="6.65366">
        <ele>358.09415</ele>
        <time>2020-02-09T08:29:15Z</time>
      </trkpt>
      <trkpt lat="47.70484" lon="6.65348">
        <ele>357.87192</ele>
        <time>2020-02-09T08:29:20Z</time>
      </trkpt>
      <trkpt lat="47.70501" lon="6.65351">
        <ele>358.79025</ele>
        <time>2020-02-09T08:29:25Z</time>
      </trkpt>
      <trkpt lat="47.70519" lon="6.65352">
        <ele>358.24493</ele>
        <time>2020-02-09T08:29:30Z</time>
      </trkpt>
      <trkpt lat="47.70533" lon="6.65344">
        <ele>358.05792</ele>
        <time>2020-02-09T08:29:35Z</time>
      </trkpt>
      <trkpt lat="47.70546" lon="6.65341">
        <ele>357.9385</ele>
        <time>2020-02-09T08:29:40Z</time>
      </trkpt>
      <trkpt lat="47.70562" lon="6.65342">
        <ele>357.86115</ele>
        <time>2020-02-09T08:29:45Z</time>
      </trkpt>
      <trkpt lat="47.70576" lon="6.65342">
        <ele>358.2185</ele>
        <time>2020-02-09T08:29:50Z</time>
      </trkpt>
      <trkpt lat="47.70589" lon="6.65343">
        <ele>358.11862</ele>
        <time>2020-02-09T08:29:55Z</time>
      </trkpt>
      <trkpt lat="47.70604" lon="6.65338">
        <ele>358.05893</ele>
        <time>2020-02-09T08:30:00Z</time>
      </trkpt>
      <trkpt lat="47.70617" lon="6.65332">
        <ele>358.38394</ele>
        <time>2020-02-09T08:30:05Z</time>
      </trkpt>
      <trkpt lat="47.70632" lon="6.65326">
        <ele>358.51123</ele>
        <time>2020-02-09T08:30:10Z</time>
      </trkpt>
      <trkpt lat="47.70647" lon="6.65322">
        <ele>358.9195</ele>
        <time>2020-02-09T08:30:15Z</time>
      </trkpt>
      <trkpt lat="47.70662" lon="6.65318">
        <ele>359.94067</ele>
        <time>2020-02-09T08:30:20Z</time>
      </trkpt>
      <trkpt lat="47.70677" lon="6.65318">
        <ele>360.91</ele>
        <time>2020-02-09T08:30:25Z</time>
      </trkpt>
      <trkpt lat="47.70694" lon="6.65318">
        <ele>361.07547</ele>
        <time>2020-02-09T08:30:30Z</time>
      </trkpt>
      <trkpt lat="47.7071" lon="6.65317">
        <ele>362.10458</ele>
        <time>2020-02-09T08:30:35Z</time>
      </trkpt>
      <trkpt lat="47.70725" lon="6.65317">
        <ele>363.3286</ele>
        <time>2020-02-09T08:30:40Z</time>
      </trkpt>
      <trkpt lat="47.70739" lon="6.65327">
        <ele>363.8251</ele>
        <time>2020-02-09T08:30:45Z</time>
      </trkpt>
      <trkpt lat="47.70754" lon="6.65338">
        <ele>365.3871</ele>
        <time>2020-02-09T08:30:50Z</time>
      </trkpt>
      <trkpt lat="47.70766" lon="6.65349">
        <ele>364.56348</ele>
        <time>2020-02-09T08:30:55Z</time>
      </trkpt>
      <trkpt lat="47.7078" lon="6.65363">
        <ele>366.5359</ele>
        <time>2020-02-09T08:31:00Z</time>
      </trkpt>
      <trkpt lat="47.70792" lon="6.65376">
        <ele>365.37143</ele>
        <time>2020-02-09T08:31:05Z</time>
      </trkpt>
      <trkpt lat="47.70805" lon="6.65387">
        <ele>368.38803</ele>
        <time>2020-02-09T08:31:10Z</time>
      </trkpt>
      <trkpt lat="47.70821" lon="6.654">
        <ele>367.5917</ele>
        <time>2020-02-09T08:31:15Z</time>
      </trkpt>
      <trkpt lat="47.70837" lon="6.65403">
        <ele>367.91788</ele>
        <time>2020-02-09T08:31:20Z</time>
      </trkpt>
      <trkpt lat="47.70853" lon="6.6541">
        <ele>368.8249</ele>
        <time>2020-02-09T08:31:25Z</time>
      </trkpt>
      <trkpt lat="47.70868" lon="6.6542">
        <ele>370.1541</ele>
        <time>2020-02-09T08:31:30Z</time>
      </trkpt>
      <trkpt lat="47.70884" lon="6.6543">
        <ele>369.98367</ele>
        <time>2020-02-09T08:31:35Z</time>
      </trkpt>
      <trkpt lat="47.70899" lon="6.65441">
        <ele>370.6086</ele>
        <time>2020-02-09T08:31:40Z</time>
      </trkpt>
      <trkpt lat="47.70912" lon="6.65455">
        <ele>371.58237</ele>
        <time>2020-02-09T08:31:45Z</time>
      </trkpt>
      <trkpt lat="47.70925" lon="6.65469">
        <ele>373.00775</ele>
        <time>2020-02-09T08:31:50Z</time>
      </trkpt>
      <trkpt lat="47.70934" lon="6.65484">
        <ele>372.82846</ele>
        <time>2020-02-09T08:31:55Z</time>
      </trkpt>
      <trkpt lat="47.70944" lon="6.65499">
        <ele>372.52576</ele>
        <time>2020-02-09T08:32:00Z</time>
      </trkpt>
      <trkpt lat="47.70958" lon="6.65518">
        <ele>373.527</ele>
        <time>2020-02-09T08:32:05Z</time>
      </trkpt>
      <trkpt lat="47.70974" lon="6.6553">
        <ele>373.73666</ele>
        <time>2020-02-09T08:32:10Z</time>
      </trkpt>
      <trkpt lat="47.70983" lon="6.65509">
        <ele>374.18048</ele>
        <time>2020-02-09T08:32:15Z</time>
      </trkpt>
      <trkpt lat="47.70981" lon="6.65481">
        <ele>374.0776</ele>
        <time>2020-02-09T08:32:20Z</time>
      </trkpt>
      <trkpt lat="47.70974" lon="6.65456">
        <ele>375.6482</ele>
        <time>2020-02-09T08:32:25Z</time>
      </trkpt>
      <trkpt lat="47.70965" lon="6.65435">
        <ele>375.98428</ele>
        <time>2020-02-09T08:32:30Z</time>
      </trkpt>
      <trkpt lat="47.70954" lon="6.65417">
        <ele>376.57413</ele>
        <time>2020-02-09T08:32:35Z</time>
      </trkpt>
      <trkpt lat="47.70943" lon="6.65401">
        <ele>376.80734</ele>
        <time>2020-02-09T08:32:40Z</time>
      </trkpt>
      <trkpt lat="47.70929" lon="6.65379">
        <ele>377.6559</ele>
        <time>2020-02-09T08:32:45Z</time>
      </trkpt>
      <trkpt lat="47.70913" lon="6.65354">
        <ele>377.07288</ele>
        <time>2020-02-09T08:32:50Z</time>
      </trkpt>
      <trkpt lat="47.70896" lon="6.65333">
        <ele>377.9146</ele>
        <time>2020-02-09T08:32:55Z</time>
      </trkpt>
      <trkpt lat="47.70881" lon="6.65317">
        <ele>379.21207</ele>
        <time>2020-02-09T08:33:00Z</time>
      </trkpt>
      <trkpt lat="47.70862" lon="6.65305">
        <ele>380.62228</ele>
        <time>2020-02-09T08:33:05Z</time>
      </trkpt>
      <trkpt lat="47.70844" lon="6.65299">
        <ele>382.1061</ele>
        <time>2020-02-09T08:33:10Z</time>
      </trkpt>
      <trkpt lat="47.70831" lon="6.65285">
        <ele>382.97842</ele>
        <time>2020-02-09T08:33:15Z</time>
      </trkpt>
      <trkpt lat="47.70824" lon="6.65267">
        <ele>384.10956</ele>
        <time>2020-02-09T08:33:20Z</time>
      </trkpt>
      <trkpt lat="47.70821" lon="6.65248">
        <ele>385.8681</ele>
        <time>2020-02-09T08:33:25Z</time>
      </trkpt>
      <trkpt lat="47.70821" lon="6.65224">
        <ele>386.74448</ele>
        <time>2020-02-09T08:33:30Z</time>
      </trkpt>
      <trkpt lat="47.70822" lon="6.65199">
        <ele>387.49344</ele>
        <time>2020-02-09T08:33:35Z</time>
      </trkpt>
      <trkpt lat="47.70822" lon="6.65174">
        <ele>388.10226</ele>
        <time>2020-02-09T08:33:40Z</time>
      </trkpt>
      <trkpt lat="47.70826" lon="6.65146">
        <ele>389.09442</ele>
        <time>2020-02-09T08:33:45Z</time>
      </trkpt>
      <trkpt lat="47.70838" lon="6.65119">
        <ele>386.7886</ele>
        <time>2020-02-09T08:33:50Z</time>
      </trkpt>
      <trkpt lat="47.70865" lon="6.65089">
        <ele>385.4456</ele>
        <time>2020-02-09T08:33:55Z</time>
      </trkpt>
      <trkpt lat="47.70892" lon="6.65094">
        <ele>386.7082</ele>
        <time>2020-02-09T08:34:00Z</time>
      </trkpt>
      <trkpt lat="47.70913" lon="6.65122">
        <ele>384.39087</ele>
        <time>2020-02-09T08:34:05Z</time>
      </trkpt>
      <trkpt lat="47.70928" lon="6.65149">
        <ele>381.48865</ele>
        <time>2020-02-09T08:34:10Z</time>
      </trkpt>
      <trkpt lat="47.70935" lon="6.65168">
        <ele>380.92612</ele>
        <time>2020-02-09T08:34:15Z</time>
      </trkpt>
      <trkpt lat="47.70941" lon="6.65189">
        <ele>380.22342</ele>
        <time>2020-02-09T08:34:20Z</time>
      </trkpt>
      <trkpt lat="47.70944" lon="6.65207">
        <ele>379.43158</ele>
        <time>2020-02-09T08:34:25Z</time>
      </trkpt>
      <trkpt lat="47.70945" lon="6.65224">
        <ele>381.916</ele>
        <time>2020-02-09T08:34:30Z</time>
      </trkpt>
      <trkpt lat="47.70952" lon="6.65239">
        <ele>382.52658</ele>
        <time>2020-02-09T08:34:35Z</time>
      </trkpt>
      <trkpt lat="47.70965" lon="6.65248">
        <ele>383.4401</ele>
        <time>2020-02-09T08:34:40Z</time>
      </trkpt>
      <trkpt lat="47.70981" lon="6.65248">
        <ele>384.28894</ele>
        <time>2020-02-09T08:34:45Z</time>
      </trkpt>
      <trkpt lat="47.70997" lon="6.65246">
        <ele>384.88687</ele>
        <time>2020-02-09T08:34:50Z</time>
      </trkpt>
      <trkpt lat="47.71009" lon="6.65259">
        <ele>384.7604</ele>
        <time>2020-02-09T08:34:55Z</time>
      </trkpt>
      <trkpt lat="47.71019" lon="6.65274">
        <ele>385.15347</ele>
        <time>2020-02-09T08:35:00Z</time>
      </trkpt>
      <trkpt lat="47.7103" lon="6.6529">
        <ele>384.58395</ele>
        <time>2020-02-09T08:35:05Z</time>
      </trkpt>
      <trkpt lat="47.71046" lon="6.65306">
        <ele>385.26917</ele>
        <time>2020-02-09T08:35:10Z</time>
      </trkpt>
      <trkpt lat="47.71061" lon="6.65312">
        <ele>385.95044</ele>
        <time>2020-02-09T08:35:15Z</time>
      </trkpt>
      <trkpt lat="47.71073" lon="6.65317">
        <ele>386.46802</ele>
        <time>2020-02-09T08:35:20Z</time>
      </trkpt>
      <trkpt lat="47.71084" lon="6.65328">
        <ele>387.80814</ele>
        <time>2020-02-09T08:35:25Z</time>
      </trkpt>
      <trkpt lat="47.71089" lon="6.65333">
        <ele>389.15228</ele>
        <time>2020-02-09T08:35:30Z</time>
      </trkpt>
      <trkpt lat="47.71093" lon="6.65345">
        <ele>389.82288</ele>
        <time>2020-02-09T08:35:35Z</time>
      </trkpt>
      <trkpt lat="47.71097" lon="6.65356">
        <ele>392.1565</ele>
        <time>2020-02-09T08:35:40Z</time>
      </trkpt>
      <trkpt lat="47.711" lon="6.65367">
        <ele>393.11945</ele>
        <time>2020-02-09T08:35:45Z</time>
      </trkpt>
      <trkpt lat="47.71104" lon="6.65373">
        <ele>399.2177</ele>
        <time>2020-02-09T08:36:55Z</time>
      </trkpt>
      <trkpt lat="47.71109" lon="6.65368">
        <ele>396.73523</ele>
        <time>2020-02-09T08:37:00Z</time>
      </trkpt>
      <trkpt lat="47.71114" lon="6.65356">
        <ele>397.54242</ele>
        <time>2020-02-09T08:37:15Z</time>
      </trkpt>
      <trkpt lat="47.7111" lon="6.65347">
        <ele>394.57764</ele>
        <time>2020-02-09T08:37:20Z</time>
      </trkpt>
      <trkpt lat="47.71103" lon="6.65342">
        <ele>393.40088</ele>
        <time>2020-02-09T08:37:30Z</time>
      </trkpt>
      <trkpt lat="47.71096" lon="6.65336">
        <ele>394.22363</ele>
        <time>2020-02-09T08:37:35Z</time>
      </trkpt>
      <trkpt lat="47.71094" lon="6.65337">
        <ele>394.408</ele>
        <time>2020-02-09T08:37:45Z</time>
      </trkpt>
      <trkpt lat="47.71093" lon="6.65344">
        <ele>393.62054</ele>
        <time>2020-02-09T08:37:50Z</time>
      </trkpt>
      <trkpt lat="47.71093" lon="6.65357">
        <ele>396.6028</ele>
        <time>2020-02-09T08:38:00Z</time>
      </trkpt>
      <trkpt lat="47.71103" lon="6.65358">
        <ele>398.18387</ele>
        <time>2020-02-09T08:39:10Z</time>
      </trkpt>
      <trkpt lat="47.71107" lon="6.65363">
        <ele>399.37662</ele>
        <time>2020-02-09T08:39:20Z</time>
      </trkpt>
      <trkpt lat="47.71101" lon="6.6537">
        <ele>399.30402</ele>
        <time>2020-02-09T08:39:40Z</time>
      </trkpt>
      <trkpt lat="47.71098" lon="6.6537">
        <ele>397.35608</ele>
        <time>2020-02-09T08:39:55Z</time>
      </trkpt>
      <trkpt lat="47.71099" lon="6.65376">
        <ele>399.27066</ele>
        <time>2020-02-09T08:40:05Z</time>
      </trkpt>
      <trkpt lat="47.71101" lon="6.65373">
        <ele>397.71994</ele>
        <time>2020-02-09T08:40:15Z</time>
      </trkpt>
      <trkpt lat="47.71103" lon="6.65369">
        <ele>399.4747</ele>
        <time>2020-02-09T08:40:30Z</time>
      </trkpt>
      <trkpt lat="47.71104" lon="6.65373">
        <ele>398.24075</ele>
        <time>2020-02-09T08:40:45Z</time>
      </trkpt>
      <trkpt lat="47.71104" lon="6.65369">
        <ele>396.12128</ele>
        <time>2020-02-09T08:41:00Z</time>
      </trkpt>
      <trkpt lat="47.71108" lon="6.6536">
        <ele>396.49493</ele>
        <time>2020-02-09T08:41:05Z</time>
      </trkpt>
      <trkpt lat="47.71121" lon="6.65357">
        <ele>391.94177</ele>
        <time>2020-02-09T08:41:10Z</time>
      </trkpt>
      <trkpt lat="47.71136" lon="6.65366">
        <ele>393.1214</ele>
        <time>2020-02-09T08:41:15Z</time>
      </trkpt>
      <trkpt lat="47.71152" lon="6.65368">
        <ele>394.4982</ele>
        <time>2020-02-09T08:41:20Z</time>
      </trkpt>
      <trkpt lat="47.71167" lon="6.65353">
        <ele>392.66052</ele>
        <time>2020-02-09T08:41:25Z</time>
      </trkpt>
      <trkpt lat="47.7117" lon="6.65316">
        <ele>394.11182</ele>
        <time>2020-02-09T08:41:30Z</time>
      </trkpt>
      <trkpt lat="47.71153" lon="6.65293">
        <ele>394.0275</ele>
        <time>2020-02-09T08:41:35Z</time>
      </trkpt>
      <trkpt lat="47.71125" lon="6.65279">
        <ele>395.72015</ele>
        <time>2020-02-09T08:41:40Z</time>
      </trkpt>
      <trkpt lat="47.71103" lon="6.65244">
        <ele>393.56268</ele>
        <time>2020-02-09T08:41:45Z</time>
      </trkpt>
      <trkpt lat="47.71082" lon="6.65207">
        <ele>391.4554</ele>
        <time>2020-02-09T08:41:50Z</time>
      </trkpt>
      <trkpt lat="47.71067" lon="6.65172">
        <ele>389.72287</ele>
        <time>2020-02-09T08:41:55Z</time>
      </trkpt>
      <trkpt lat="47.71042" lon="6.65152">
        <ele>392.838</ele>
        <time>2020-02-09T08:42:00Z</time>
      </trkpt>
      <trkpt lat="47.71028" lon="6.6512">
        <ele>390.5857</ele>
        <time>2020-02-09T08:42:05Z</time>
      </trkpt>
      <trkpt lat="47.71022" lon="6.65087">
        <ele>390.6161</ele>
        <time>2020-02-09T08:42:10Z</time>
      </trkpt>
      <trkpt lat="47.71017" lon="6.65055">
        <ele>391.1201</ele>
        <time>2020-02-09T08:42:15Z</time>
      </trkpt>
      <trkpt lat="47.71023" lon="6.65023">
        <ele>391.8643</ele>
        <time>2020-02-09T08:42:20Z</time>
      </trkpt>
      <trkpt lat="47.71031" lon="6.65001">
        <ele>392.61542</ele>
        <time>2020-02-09T08:42:25Z</time>
      </trkpt>
      <trkpt lat="47.71046" lon="6.64987">
        <ele>395.0572</ele>
        <time>2020-02-09T08:42:30Z</time>
      </trkpt>
      <trkpt lat="47.71058" lon="6.64959">
        <ele>395.39456</ele>
        <time>2020-02-09T08:42:35Z</time>
      </trkpt>
      <trkpt lat="47.71063" lon="6.64947">
        <ele>393.49402</ele>
        <time>2020-02-09T08:42:40Z</time>
      </trkpt>
      <trkpt lat="47.71074" lon="6.64941">
        <ele>393.0096</ele>
        <time>2020-02-09T08:42:45Z</time>
      </trkpt>
      <trkpt lat="47.71087" lon="6.64936">
        <ele>395.1543</ele>
        <time>2020-02-09T08:42:50Z</time>
      </trkpt>
      <trkpt lat="47.711" lon="6.64937">
        <ele>396.7009</ele>
        <time>2020-02-09T08:42:55Z</time>
      </trkpt>
      <trkpt lat="47.7111" lon="6.64938">
        <ele>396.46454</ele>
        <time>2020-02-09T08:43:00Z</time>
      </trkpt>
      <trkpt lat="47.71122" lon="6.64948">
        <ele>397.054</ele>
        <time>2020-02-09T08:43:05Z</time>
      </trkpt>
      <trkpt lat="47.71134" lon="6.6497">
        <ele>397.8033</ele>
        <time>2020-02-09T08:43:10Z</time>
      </trkpt>
      <trkpt lat="47.71147" lon="6.64992">
        <ele>398.6076</ele>
        <time>2020-02-09T08:43:15Z</time>
      </trkpt>
      <trkpt lat="47.71168" lon="6.65">
        <ele>398.43988</ele>
        <time>2020-02-09T08:43:20Z</time>
      </trkpt>
      <trkpt lat="47.71187" lon="6.64966">
        <ele>398.96658</ele>
        <time>2020-02-09T08:43:25Z</time>
      </trkpt>
      <trkpt lat="47.71193" lon="6.64927">
        <ele>398.55463</ele>
        <time>2020-02-09T08:43:30Z</time>
      </trkpt>
      <trkpt lat="47.71192" lon="6.64895">
        <ele>397.38058</ele>
        <time>2020-02-09T08:43:35Z</time>
      </trkpt>
      <trkpt lat="47.71195" lon="6.64886">
        <ele>396.0281</ele>
        <time>2020-02-09T08:44:50Z</time>
      </trkpt>
      <trkpt lat="47.712" lon="6.64886">
        <ele>397.53555</ele>
        <time>2020-02-09T08:45:40Z</time>
      </trkpt>
      <trkpt lat="47.71198" lon="6.64887">
        <ele>398.5203</ele>
        <time>2020-02-09T08:46:35Z</time>
      </trkpt>
      <trkpt lat="47.71197" lon="6.64901">
        <ele>393.6921</ele>
        <time>2020-02-09T08:46:45Z</time>
      </trkpt>
      <trkpt lat="47.71195" lon="6.64917">
        <ele>396.98044</ele>
        <time>2020-02-09T08:46:50Z</time>
      </trkpt>
      <trkpt lat="47.71195" lon="6.6493">
        <ele>398.72235</ele>
        <time>2020-02-09T08:46:55Z</time>
      </trkpt>
      <trkpt lat="47.71194" lon="6.6495">
        <ele>398.13287</ele>
        <time>2020-02-09T08:47:00Z</time>
      </trkpt>
      <trkpt lat="47.71194" lon="6.6497">
        <ele>396.9314</ele>
        <time>2020-02-09T08:47:05Z</time>
      </trkpt>
      <trkpt lat="47.71182" lon="6.64995">
        <ele>396.849</ele>
        <time>2020-02-09T08:47:10Z</time>
      </trkpt>
      <trkpt lat="47.71162" lon="6.65005">
        <ele>396.55182</ele>
        <time>2020-02-09T08:47:15Z</time>
      </trkpt>
      <trkpt lat="47.71141" lon="6.64997">
        <ele>396.52927</ele>
        <time>2020-02-09T08:47:20Z</time>
      </trkpt>
      <trkpt lat="47.71128" lon="6.64971">
        <ele>396.15854</ele>
        <time>2020-02-09T08:47:25Z</time>
      </trkpt>
      <trkpt lat="47.7111" lon="6.6495">
        <ele>395.43576</ele>
        <time>2020-02-09T08:47:30Z</time>
      </trkpt>
      <trkpt lat="47.71092" lon="6.64938">
        <ele>395.08075</ele>
        <time>2020-02-09T08:47:35Z</time>
      </trkpt>
      <trkpt lat="47.71078" lon="6.64941">
        <ele>395.7123</ele>
        <time>2020-02-09T08:47:40Z</time>
      </trkpt>
      <trkpt lat="47.71062" lon="6.64959">
        <ele>397.4875</ele>
        <time>2020-02-09T08:47:45Z</time>
      </trkpt>
      <trkpt lat="47.71055" lon="6.64967">
        <ele>397.81412</ele>
        <time>2020-02-09T08:47:50Z</time>
      </trkpt>
      <trkpt lat="47.7105" lon="6.64976">
        <ele>397.80136</ele>
        <time>2020-02-09T08:47:55Z</time>
      </trkpt>
      <trkpt lat="47.71042" lon="6.64988">
        <ele>399.53845</ele>
        <time>2020-02-09T08:48:00Z</time>
      </trkpt>
      <trkpt lat="47.7103" lon="6.65012">
        <ele>400.3634</ele>
        <time>2020-02-09T08:48:05Z</time>
      </trkpt>
      <trkpt lat="47.71021" lon="6.65034">
        <ele>401.00494</ele>
        <time>2020-02-09T08:48:10Z</time>
      </trkpt>
      <trkpt lat="47.71011" lon="6.65058">
        <ele>399.58258</ele>
        <time>2020-02-09T08:48:15Z</time>
      </trkpt>
      <trkpt lat="47.71009" lon="6.65085">
        <ele>397.48944</ele>
        <time>2020-02-09T08:48:20Z</time>
      </trkpt>
      <trkpt lat="47.71011" lon="6.6511">
        <ele>392.83017</ele>
        <time>2020-02-09T08:48:25Z</time>
      </trkpt>
      <trkpt lat="47.71016" lon="6.65135">
        <ele>387.59933</ele>
        <time>2020-02-09T08:48:30Z</time>
      </trkpt>
      <trkpt lat="47.71028" lon="6.65152">
        <ele>386.0279</ele>
        <time>2020-02-09T08:48:35Z</time>
      </trkpt>
      <trkpt lat="47.71044" lon="6.65168">
        <ele>382.6285</ele>
        <time>2020-02-09T08:48:40Z</time>
      </trkpt>
      <trkpt lat="47.71065" lon="6.65187">
        <ele>383.37247</ele>
        <time>2020-02-09T08:48:45Z</time>
      </trkpt>
      <trkpt lat="47.71074" lon="6.65212">
        <ele>383.87726</ele>
        <time>2020-02-09T08:48:50Z</time>
      </trkpt>
      <trkpt lat="47.71086" lon="6.65235">
        <ele>384.0566</ele>
        <time>2020-02-09T08:48:55Z</time>
      </trkpt>
      <trkpt lat="47.711" lon="6.65253">
        <ele>381.9287</ele>
        <time>2020-02-09T08:49:00Z</time>
      </trkpt>
      <trkpt lat="47.71112" lon="6.65274">
        <ele>381.0594</ele>
        <time>2020-02-09T08:49:05Z</time>
      </trkpt>
      <trkpt lat="47.71127" lon="6.65288">
        <ele>381.227</ele>
        <time>2020-02-09T08:49:10Z</time>
      </trkpt>
      <trkpt lat="47.71138" lon="6.65294">
        <ele>380.70267</ele>
        <time>2020-02-09T08:49:15Z</time>
      </trkpt>
      <trkpt lat="47.7115" lon="6.65304">
        <ele>379.54526</ele>
        <time>2020-02-09T08:49:20Z</time>
      </trkpt>
      <trkpt lat="47.71151" lon="6.65327">
        <ele>383.86057</ele>
        <time>2020-02-09T08:49:25Z</time>
      </trkpt>
      <trkpt lat="47.71149" lon="6.65362">
        <ele>383.4303</ele>
        <time>2020-02-09T08:49:30Z</time>
      </trkpt>
      <trkpt lat="47.71147" lon="6.65371">
        <ele>382.1071</ele>
        <time>2020-02-09T08:49:35Z</time>
      </trkpt>
      <trkpt lat="47.71148" lon="6.65373">
        <ele>380.6899</ele>
        <time>2020-02-09T08:49:40Z</time>
      </trkpt>
      <trkpt lat="47.71135" lon="6.6536">
        <ele>379.84317</ele>
        <time>2020-02-09T08:49:45Z</time>
      </trkpt>
      <trkpt lat="47.71125" lon="6.65358">
        <ele>379.04938</ele>
        <time>2020-02-09T08:49:50Z</time>
      </trkpt>
      <trkpt lat="47.71123" lon="6.65362">
        <ele>377.26004</ele>
        <time>2020-02-09T08:49:55Z</time>
      </trkpt>
      <trkpt lat="47.71122" lon="6.65368">
        <ele>378.34872</ele>
        <time>2020-02-09T08:50:05Z</time>
      </trkpt>
      <trkpt lat="47.71121" lon="6.65366">
        <ele>380.78793</ele>
        <time>2020-02-09T08:50:25Z</time>
      </trkpt>
      <trkpt lat="47.71125" lon="6.65365">
        <ele>382.60892</ele>
        <time>2020-02-09T08:50:30Z</time>
      </trkpt>
      <trkpt lat="47.71126" lon="6.65363">
        <ele>385.10056</ele>
        <time>2020-02-09T08:50:40Z</time>
      </trkpt>
      <trkpt lat="47.71136" lon="6.65372">
        <ele>387.0621</ele>
        <time>2020-02-09T08:50:45Z</time>
      </trkpt>
      <trkpt lat="47.71155" lon="6.65367">
        <ele>387.417</ele>
        <time>2020-02-09T08:50:50Z</time>
      </trkpt>
      <trkpt lat="47.7117" lon="6.65346">
        <ele>387.5003</ele>
        <time>2020-02-09T08:50:55Z</time>
      </trkpt>
      <trkpt lat="47.71165" lon="6.65319">
        <ele>386.29648</ele>
        <time>2020-02-09T08:51:00Z</time>
      </trkpt>
      <trkpt lat="47.71139" lon="6.65308">
        <ele>386.2906</ele>
        <time>2020-02-09T08:51:05Z</time>
      </trkpt>
      <trkpt lat="47.71116" lon="6.65289">
        <ele>381.14465</ele>
        <time>2020-02-09T08:51:10Z</time>
      </trkpt>
      <trkpt lat="47.711" lon="6.65262">
        <ele>380.7458</ele>
        <time>2020-02-09T08:51:15Z</time>
      </trkpt>
      <trkpt lat="47.71079" lon="6.65225">
        <ele>380.28027</ele>
        <time>2020-02-09T08:51:20Z</time>
      </trkpt>
      <trkpt lat="47.71058" lon="6.65195">
        <ele>380.1058</ele>
        <time>2020-02-09T08:51:25Z</time>
      </trkpt>
      <trkpt lat="47.71038" lon="6.65176">
        <ele>380.58212</ele>
        <time>2020-02-09T08:51:30Z</time>
      </trkpt>
      <trkpt lat="47.71028" lon="6.65143">
        <ele>381.19366</ele>
        <time>2020-02-09T08:51:35Z</time>
      </trkpt>
      <trkpt lat="47.71024" lon="6.65109">
        <ele>380.1303</ele>
        <time>2020-02-09T08:51:40Z</time>
      </trkpt>
      <trkpt lat="47.71014" lon="6.65064">
        <ele>376.06168</ele>
        <time>2020-02-09T08:51:45Z</time>
      </trkpt>
      <trkpt lat="47.71023" lon="6.65028">
        <ele>378.07925</ele>
        <time>2020-02-09T08:51:50Z</time>
      </trkpt>
      <trkpt lat="47.71034" lon="6.65005">
        <ele>379.2875</ele>
        <time>2020-02-09T08:51:55Z</time>
      </trkpt>
      <trkpt lat="47.71045" lon="6.64983">
        <ele>380.69482</ele>
        <time>2020-02-09T08:52:00Z</time>
      </trkpt>
      <trkpt lat="47.71062" lon="6.64956">
        <ele>382.50504</ele>
        <time>2020-02-09T08:52:05Z</time>
      </trkpt>
      <trkpt lat="47.71073" lon="6.6494">
        <ele>382.0816</ele>
        <time>2020-02-09T08:52:10Z</time>
      </trkpt>
      <trkpt lat="47.71085" lon="6.64937">
        <ele>383.09506</ele>
        <time>2020-02-09T08:52:15Z</time>
      </trkpt>
      <trkpt lat="47.71101" lon="6.64937">
        <ele>384.24677</ele>
        <time>2020-02-09T08:52:20Z</time>
      </trkpt>
      <trkpt lat="47.71119" lon="6.64949">
        <ele>384.2801</ele>
        <time>2020-02-09T08:52:25Z</time>
      </trkpt>
      <trkpt lat="47.71131" lon="6.64964">
        <ele>385.62598</ele>
        <time>2020-02-09T08:52:30Z</time>
      </trkpt>
      <trkpt lat="47.7114" lon="6.64983">
        <ele>388.44443</ele>
        <time>2020-02-09T08:52:35Z</time>
      </trkpt>
      <trkpt lat="47.71154" lon="6.64997">
        <ele>386.59155</ele>
        <time>2020-02-09T08:52:40Z</time>
      </trkpt>
      <trkpt lat="47.71166" lon="6.64997">
        <ele>384.27423</ele>
        <time>2020-02-09T08:52:45Z</time>
      </trkpt>
      <trkpt lat="47.71156" lon="6.65005">
        <ele>390.28372</ele>
        <time>2020-02-09T08:52:55Z</time>
      </trkpt>
      <trkpt lat="47.71151" lon="6.65004">
        <ele>392.9243</ele>
        <time>2020-02-09T08:53:00Z</time>
      </trkpt>
      <trkpt lat="47.71158" lon="6.65005">
        <ele>388.97775</ele>
        <time>2020-02-09T08:53:10Z</time>
      </trkpt>
      <trkpt lat="47.71174" lon="6.64991">
        <ele>391.37012</ele>
        <time>2020-02-09T08:53:15Z</time>
      </trkpt>
      <trkpt lat="47.71186" lon="6.64959">
        <ele>392.16336</ele>
        <time>2020-02-09T08:53:20Z</time>
      </trkpt>
      <trkpt lat="47.71187" lon="6.64931">
        <ele>394.2854</ele>
        <time>2020-02-09T08:53:25Z</time>
      </trkpt>
      <trkpt lat="47.71185" lon="6.64902">
        <ele>394.72278</ele>
        <time>2020-02-09T08:53:30Z</time>
      </trkpt>
      <trkpt lat="47.71195" lon="6.64893">
        <ele>394.1334</ele>
        <time>2020-02-09T08:53:35Z</time>
      </trkpt>
      <trkpt lat="47.71206" lon="6.649">
        <ele>389.2052</ele>
        <time>2020-02-09T08:53:40Z</time>
      </trkpt>
      <trkpt lat="47.71207" lon="6.64922">
        <ele>391.61523</ele>
        <time>2020-02-09T08:53:45Z</time>
      </trkpt>
      <trkpt lat="47.71209" lon="6.64947">
        <ele>392.50266</ele>
        <time>2020-02-09T08:53:50Z</time>
      </trkpt>
      <trkpt lat="47.71209" lon="6.64969">
        <ele>392.43988</ele>
        <time>2020-02-09T08:53:55Z</time>
      </trkpt>
      <trkpt lat="47.71211" lon="6.64989">
        <ele>391.50052</ele>
        <time>2020-02-09T08:54:00Z</time>
      </trkpt>
      <trkpt lat="47.71212" lon="6.65004">
        <ele>395.2406</ele>
        <time>2020-02-09T08:54:05Z</time>
      </trkpt>
      <trkpt lat="47.71212" lon="6.65023">
        <ele>394.40405</ele>
        <time>2020-02-09T08:54:10Z</time>
      </trkpt>
      <trkpt lat="47.71212" lon="6.65038">
        <ele>398.2957</ele>
        <time>2020-02-09T08:54:15Z</time>
      </trkpt>
      <trkpt lat="47.71213" lon="6.65056">
        <ele>398.46146</ele>
        <time>2020-02-09T08:54:20Z</time>
      </trkpt>
      <trkpt lat="47.71213" lon="6.65069">
        <ele>399.36975</ele>
        <time>2020-02-09T08:54:25Z</time>
      </trkpt>
      <trkpt lat="47.71213" lon="6.65085">
        <ele>401.5435</ele>
        <time>2020-02-09T08:54:30Z</time>
      </trkpt>
      <trkpt lat="47.71216" lon="6.65098">
        <ele>398.00928</ele>
        <time>2020-02-09T08:54:35Z</time>
      </trkpt>
      <trkpt lat="47.71218" lon="6.65109">
        <ele>400.3693</ele>
        <time>2020-02-09T08:54:40Z</time>
      </trkpt>
      <trkpt lat="47.71215" lon="6.65123">
        <ele>404.25708</ele>
        <time>2020-02-09T08:54:45Z</time>
      </trkpt>
      <trkpt lat="47.71214" lon="6.65139">
        <ele>405.45013</ele>
        <time>2020-02-09T08:54:50Z</time>
      </trkpt>
      <trkpt lat="47.71215" lon="6.65161">
        <ele>404.6358</ele>
        <time>2020-02-09T08:54:55Z</time>
      </trkpt>
      <trkpt lat="47.71217" lon="6.65181">
        <ele>403.8931</ele>
        <time>2020-02-09T08:55:00Z</time>
      </trkpt>
      <trkpt lat="47.71221" lon="6.65207">
        <ele>400.36536</ele>
        <time>2020-02-09T08:55:05Z</time>
      </trkpt>
      <trkpt lat="47.71227" lon="6.65221">
        <ele>405.5571</ele>
        <time>2020-02-09T08:55:10Z</time>
      </trkpt>
      <trkpt lat="47.71237" lon="6.65237">
        <ele>402.47153</ele>
        <time>2020-02-09T08:55:15Z</time>
      </trkpt>
      <trkpt lat="47.71243" lon="6.65249">
        <ele>401.8123</ele>
        <time>2020-02-09T08:55:20Z</time>
      </trkpt>
      <trkpt lat="47.71249" lon="6.65259">
        <ele>409.59793</ele>
        <time>2020-02-09T08:55:25Z</time>
      </trkpt>
      <trkpt lat="47.71256" lon="6.65277">
        <ele>409.21326</ele>
        <time>2020-02-09T08:55:30Z</time>
      </trkpt>
      <trkpt lat="47.71267" lon="6.65297">
        <ele>407.73834</ele>
        <time>2020-02-09T08:55:35Z</time>
      </trkpt>
      <trkpt lat="47.71281" lon="6.65311">
        <ele>407.13782</ele>
        <time>2020-02-09T08:55:40Z</time>
      </trkpt>
      <trkpt lat="47.71291" lon="6.65329">
        <ele>410.0121</ele>
        <time>2020-02-09T08:55:45Z</time>
      </trkpt>
      <trkpt lat="47.71295" lon="6.65344">
        <ele>411.78647</ele>
        <time>2020-02-09T08:55:50Z</time>
      </trkpt>
      <trkpt lat="47.71299" lon="6.65364">
        <ele>414.27164</ele>
        <time>2020-02-09T08:55:55Z</time>
      </trkpt>
      <trkpt lat="47.71302" lon="6.65389">
        <ele>415.87558</ele>
        <time>2020-02-09T08:56:00Z</time>
      </trkpt>
      <trkpt lat="47.71305" lon="6.65411">
        <ele>416.2977</ele>
        <time>2020-02-09T08:56:05Z</time>
      </trkpt>
      <trkpt lat="47.71309" lon="6.65426">
        <ele>417.0094</ele>
        <time>2020-02-09T08:56:10Z</time>
      </trkpt>
      <trkpt lat="47.71313" lon="6.65447">
        <ele>417.11346</ele>
        <time>2020-02-09T08:56:15Z</time>
      </trkpt>
      <trkpt lat="47.71317" lon="6.65474">
        <ele>419.76913</ele>
        <time>2020-02-09T08:56:20Z</time>
      </trkpt>
      <trkpt lat="47.71317" lon="6.65511">
        <ele>420.1815</ele>
        <time>2020-02-09T08:56:25Z</time>
      </trkpt>
      <trkpt lat="47.71319" lon="6.65543">
        <ele>419.14862</ele>
        <time>2020-02-09T08:56:30Z</time>
      </trkpt>
      <trkpt lat="47.71314" lon="6.65558">
        <ele>413.87708</ele>
        <time>2020-02-09T08:56:35Z</time>
      </trkpt>
      <trkpt lat="47.7131" lon="6.65572">
        <ele>413.56296</ele>
        <time>2020-02-09T08:56:40Z</time>
      </trkpt>
      <trkpt lat="47.71307" lon="6.65589">
        <ele>415.73032</ele>
        <time>2020-02-09T08:56:45Z</time>
      </trkpt>
      <trkpt lat="47.71304" lon="6.65602">
        <ele>418.74414</ele>
        <time>2020-02-09T08:56:50Z</time>
      </trkpt>
      <trkpt lat="47.71304" lon="6.6562">
        <ele>418.66068</ele>
        <time>2020-02-09T08:56:55Z</time>
      </trkpt>
      <trkpt lat="47.71304" lon="6.6563">
        <ele>420.1432</ele>
        <time>2020-02-09T08:57:00Z</time>
      </trkpt>
      <trkpt lat="47.71304" lon="6.65634">
        <ele>424.27023</ele>
        <time>2020-02-09T08:57:10Z</time>
      </trkpt>
      <trkpt lat="47.71302" lon="6.65642">
        <ele>425.2179</ele>
        <time>2020-02-09T08:57:15Z</time>
      </trkpt>
      <trkpt lat="47.71301" lon="6.65649">
        <ele>408.64114</ele>
        <time>2020-02-09T08:57:30Z</time>
      </trkpt>
      <trkpt lat="47.71302" lon="6.65652">
        <ele>430.38123</ele>
        <time>2020-02-09T08:57:50Z</time>
      </trkpt>
      <trkpt lat="47.71303" lon="6.65665">
        <ele>430.8783</ele>
        <time>2020-02-09T08:57:55Z</time>
      </trkpt>
      <trkpt lat="47.71304" lon="6.65681">
        <ele>430.61404</ele>
        <time>2020-02-09T08:58:00Z</time>
      </trkpt>
      <trkpt lat="47.71308" lon="6.65698">
        <ele>431.18478</ele>
        <time>2020-02-09T08:58:05Z</time>
      </trkpt>
      <trkpt lat="47.71312" lon="6.65714">
        <ele>434.1261</ele>
        <time>2020-02-09T08:58:10Z</time>
      </trkpt>
      <trkpt lat="47.71315" lon="6.65729">
        <ele>434.7578</ele>
        <time>2020-02-09T08:58:15Z</time>
      </trkpt>
      <trkpt lat="47.71317" lon="6.65744">
        <ele>435.49078</ele>
        <time>2020-02-09T08:58:20Z</time>
      </trkpt>
      <trkpt lat="47.71318" lon="6.65758">
        <ele>435.89755</ele>
        <time>2020-02-09T08:58:25Z</time>
      </trkpt>
      <trkpt lat="47.71321" lon="6.65778">
        <ele>436.4075</ele>
        <time>2020-02-09T08:58:30Z</time>
      </trkpt>
      <trkpt lat="47.71324" lon="6.65799">
        <ele>437.3724</ele>
        <time>2020-02-09T08:58:35Z</time>
      </trkpt>
      <trkpt lat="47.71326" lon="6.65818">
        <ele>438.87686</ele>
        <time>2020-02-09T08:58:40Z</time>
      </trkpt>
      <trkpt lat="47.7133" lon="6.65833">
        <ele>439.05273</ele>
        <time>2020-02-09T08:58:45Z</time>
      </trkpt>
      <trkpt lat="47.71336" lon="6.65852">
        <ele>439.30627</ele>
        <time>2020-02-09T08:58:50Z</time>
      </trkpt>
      <trkpt lat="47.7134" lon="6.6587">
        <ele>439.0272</ele>
        <time>2020-02-09T08:58:55Z</time>
      </trkpt>
      <trkpt lat="47.71343" lon="6.65888">
        <ele>439.48218</ele>
        <time>2020-02-09T08:59:00Z</time>
      </trkpt>
      <trkpt lat="47.71349" lon="6.65907">
        <ele>440.63397</ele>
        <time>2020-02-09T08:59:05Z</time>
      </trkpt>
      <trkpt lat="47.71357" lon="6.65922">
        <ele>441.91846</ele>
        <time>2020-02-09T08:59:10Z</time>
      </trkpt>
      <trkpt lat="47.71365" lon="6.65934">
        <ele>442.51898</ele>
        <time>2020-02-09T08:59:15Z</time>
      </trkpt>
      <trkpt lat="47.71373" lon="6.65944">
        <ele>445.13843</ele>
        <time>2020-02-09T08:59:20Z</time>
      </trkpt>
      <trkpt lat="47.7138" lon="6.65952">
        <ele>446.13913</ele>
        <time>2020-02-09T08:59:25Z</time>
      </trkpt>
      <trkpt lat="47.71386" lon="6.65957">
        <ele>446.51465</ele>
        <time>2020-02-09T08:59:30Z</time>
      </trkpt>
      <trkpt lat="47.71394" lon="6.65965">
        <ele>448.71674</ele>
        <time>2020-02-09T08:59:35Z</time>
      </trkpt>
      <trkpt lat="47.714" lon="6.65974">
        <ele>448.48767</ele>
        <time>2020-02-09T08:59:40Z</time>
      </trkpt>
      <trkpt lat="47.71404" lon="6.65983">
        <ele>449.31647</ele>
        <time>2020-02-09T08:59:45Z</time>
      </trkpt>
      <trkpt lat="47.71403" lon="6.6599">
        <ele>447.8172</ele>
        <time>2020-02-09T08:59:50Z</time>
      </trkpt>
      <trkpt lat="47.71404" lon="6.66001">
        <ele>449.18866</ele>
        <time>2020-02-09T09:00:00Z</time>
      </trkpt>
      <trkpt lat="47.71407" lon="6.66007">
        <ele>448.41</ele>
        <time>2020-02-09T09:00:05Z</time>
      </trkpt>
      <trkpt lat="47.71412" lon="6.66017">
        <ele>448.49457</ele>
        <time>2020-02-09T09:00:10Z</time>
      </trkpt>
      <trkpt lat="47.71415" lon="6.66024">
        <ele>448.51718</ele>
        <time>2020-02-09T09:00:15Z</time>
      </trkpt>
      <trkpt lat="47.71417" lon="6.66031">
        <ele>448.9763</ele>
        <time>2020-02-09T09:00:20Z</time>
      </trkpt>
      <trkpt lat="47.71418" lon="6.66039">
        <ele>450.29868</ele>
        <time>2020-02-09T09:00:25Z</time>
      </trkpt>
      <trkpt lat="47.71421" lon="6.66048">
        <ele>450.04794</ele>
        <time>2020-02-09T09:00:35Z</time>
      </trkpt>
      <trkpt lat="47.71423" lon="6.66064">
        <ele>450.8876</ele>
        <time>2020-02-09T09:00:45Z</time>
      </trkpt>
      <trkpt lat="47.71425" lon="6.66073">
        <ele>450.38126</ele>
        <time>2020-02-09T09:00:50Z</time>
      </trkpt>
      <trkpt lat="47.71428" lon="6.66079">
        <ele>450.62213</ele>
        <time>2020-02-09T09:00:55Z</time>
      </trkpt>
      <trkpt lat="47.71431" lon="6.66088">
        <ele>451.15506</ele>
        <time>2020-02-09T09:01:00Z</time>
      </trkpt>
      <trkpt lat="47.71433" lon="6.66098">
        <ele>451.83447</ele>
        <time>2020-02-09T09:01:05Z</time>
      </trkpt>
      <trkpt lat="47.71436" lon="6.66106">
        <ele>453.3822</ele>
        <time>2020-02-09T09:01:10Z</time>
      </trkpt>
      <trkpt lat="47.71439" lon="6.66113">
        <ele>454.83664</ele>
        <time>2020-02-09T09:01:15Z</time>
      </trkpt>
      <trkpt lat="47.71444" lon="6.66122">
        <ele>455.72467</ele>
        <time>2020-02-09T09:01:20Z</time>
      </trkpt>
      <trkpt lat="47.71449" lon="6.66132">
        <ele>457.16745</ele>
        <time>2020-02-09T09:01:25Z</time>
      </trkpt>
      <trkpt lat="47.71454" lon="6.66146">
        <ele>457.77625</ele>
        <time>2020-02-09T09:01:30Z</time>
      </trkpt>
      <trkpt lat="47.71459" lon="6.66156">
        <ele>459.1562</ele>
        <time>2020-02-09T09:01:35Z</time>
      </trkpt>
      <trkpt lat="47.71465" lon="6.66166">
        <ele>461.45108</ele>
        <time>2020-02-09T09:01:40Z</time>
      </trkpt>
      <trkpt lat="47.71469" lon="6.66178">
        <ele>462.69946</ele>
        <time>2020-02-09T09:01:45Z</time>
      </trkpt>
      <trkpt lat="47.71473" lon="6.66184">
        <ele>463.1707</ele>
        <time>2020-02-09T09:01:50Z</time>
      </trkpt>
      <trkpt lat="47.71477" lon="6.6619">
        <ele>464.20566</ele>
        <time>2020-02-09T09:01:55Z</time>
      </trkpt>
      <trkpt lat="47.71483" lon="6.66199">
        <ele>465.21313</ele>
        <time>2020-02-09T09:02:00Z</time>
      </trkpt>
      <trkpt lat="47.71489" lon="6.66205">
        <ele>466.7677</ele>
        <time>2020-02-09T09:02:05Z</time>
      </trkpt>
      <trkpt lat="47.71496" lon="6.66207">
        <ele>468.3667</ele>
        <time>2020-02-09T09:02:10Z</time>
      </trkpt>
      <trkpt lat="47.71508" lon="6.66218">
        <ele>469.25333</ele>
        <time>2020-02-09T09:02:15Z</time>
      </trkpt>
      <trkpt lat="47.71517" lon="6.66229">
        <ele>468.79083</ele>
        <time>2020-02-09T09:02:20Z</time>
      </trkpt>
      <trkpt lat="47.71524" lon="6.66237">
        <ele>470.05536</ele>
        <time>2020-02-09T09:02:25Z</time>
      </trkpt>
      <trkpt lat="47.71528" lon="6.66245">
        <ele>472.43506</ele>
        <time>2020-02-09T09:02:30Z</time>
      </trkpt>
      <trkpt lat="47.71534" lon="6.66255">
        <ele>473.59842</ele>
        <time>2020-02-09T09:02:35Z</time>
      </trkpt>
      <trkpt lat="47.7154" lon="6.66263">
        <ele>474.30316</ele>
        <time>2020-02-09T09:02:40Z</time>
      </trkpt>
      <trkpt lat="47.71545" lon="6.66271">
        <ele>474.40652</ele>
        <time>2020-02-09T09:02:45Z</time>
      </trkpt>
      <trkpt lat="47.71551" lon="6.6628">
        <ele>474.9213</ele>
        <time>2020-02-09T09:02:50Z</time>
      </trkpt>
      <trkpt lat="47.71559" lon="6.66291">
        <ele>475.5572</ele>
        <time>2020-02-09T09:02:55Z</time>
      </trkpt>
      <trkpt lat="47.71563" lon="6.663">
        <ele>477.21</ele>
        <time>2020-02-09T09:03:00Z</time>
      </trkpt>
      <trkpt lat="47.7157" lon="6.66315">
        <ele>478.78217</ele>
        <time>2020-02-09T09:03:05Z</time>
      </trkpt>
      <trkpt lat="47.71575" lon="6.66328">
        <ele>479.41226</ele>
        <time>2020-02-09T09:03:10Z</time>
      </trkpt>
      <trkpt lat="47.71579" lon="6.6634">
        <ele>480.2649</ele>
        <time>2020-02-09T09:03:15Z</time>
      </trkpt>
      <trkpt lat="47.71586" lon="6.66351">
        <ele>480.90387</ele>
        <time>2020-02-09T09:03:20Z</time>
      </trkpt>
      <trkpt lat="47.71587" lon="6.6636">
        <ele>483.53192</ele>
        <time>2020-02-09T09:03:25Z</time>
      </trkpt>
      <trkpt lat="47.71588" lon="6.66371">
        <ele>483.2769</ele>
        <time>2020-02-09T09:03:30Z</time>
      </trkpt>
      <trkpt lat="47.71592" lon="6.66384">
        <ele>484.4881</ele>
        <time>2020-02-09T09:03:35Z</time>
      </trkpt>
      <trkpt lat="47.71597" lon="6.66396">
        <ele>483.7968</ele>
        <time>2020-02-09T09:03:40Z</time>
      </trkpt>
      <trkpt lat="47.71603" lon="6.66405">
        <ele>484.90665</ele>
        <time>2020-02-09T09:03:45Z</time>
      </trkpt>
      <trkpt lat="47.71608" lon="6.66414">
        <ele>485.03467</ele>
        <time>2020-02-09T09:03:50Z</time>
      </trkpt>
      <trkpt lat="47.71614" lon="6.66422">
        <ele>485.7181</ele>
        <time>2020-02-09T09:03:55Z</time>
      </trkpt>
      <trkpt lat="47.7162" lon="6.66426">
        <ele>487.35495</ele>
        <time>2020-02-09T09:04:00Z</time>
      </trkpt>
      <trkpt lat="47.71626" lon="6.6643">
        <ele>489.0835</ele>
        <time>2020-02-09T09:04:05Z</time>
      </trkpt>
      <trkpt lat="47.71631" lon="6.66436">
        <ele>489.60257</ele>
        <time>2020-02-09T09:04:10Z</time>
      </trkpt>
      <trkpt lat="47.71637" lon="6.66433">
        <ele>490.363</ele>
        <time>2020-02-09T09:04:15Z</time>
      </trkpt>
      <trkpt lat="47.71641" lon="6.66435">
        <ele>491.45444</ele>
        <time>2020-02-09T09:04:20Z</time>
      </trkpt>
      <trkpt lat="47.71647" lon="6.66436">
        <ele>493.47986</ele>
        <time>2020-02-09T09:04:25Z</time>
      </trkpt>
      <trkpt lat="47.71651" lon="6.66437">
        <ele>495.0946</ele>
        <time>2020-02-09T09:04:30Z</time>
      </trkpt>
      <trkpt lat="47.71666" lon="6.6645">
        <ele>496.43655</ele>
        <time>2020-02-09T09:04:40Z</time>
      </trkpt>
      <trkpt lat="47.71676" lon="6.66453">
        <ele>496.2602</ele>
        <time>2020-02-09T09:04:45Z</time>
      </trkpt>
      <trkpt lat="47.71686" lon="6.66453">
        <ele>496.59027</ele>
        <time>2020-02-09T09:04:50Z</time>
      </trkpt>
      <trkpt lat="47.71693" lon="6.66451">
        <ele>498.34122</ele>
        <time>2020-02-09T09:04:55Z</time>
      </trkpt>
      <trkpt lat="47.71698" lon="6.66447">
        <ele>500.14062</ele>
        <time>2020-02-09T09:05:00Z</time>
      </trkpt>
      <trkpt lat="47.71705" lon="6.66441">
        <ele>501.8081</ele>
        <time>2020-02-09T09:05:05Z</time>
      </trkpt>
      <trkpt lat="47.7171" lon="6.66437">
        <ele>503.0746</ele>
        <time>2020-02-09T09:05:10Z</time>
      </trkpt>
      <trkpt lat="47.71716" lon="6.66434">
        <ele>503.9981</ele>
        <time>2020-02-09T09:05:15Z</time>
      </trkpt>
      <trkpt lat="47.71724" lon="6.66427">
        <ele>504.68216</ele>
        <time>2020-02-09T09:05:20Z</time>
      </trkpt>
      <trkpt lat="47.71737" lon="6.66421">
        <ele>505.35342</ele>
        <time>2020-02-09T09:05:25Z</time>
      </trkpt>
      <trkpt lat="47.71743" lon="6.66418">
        <ele>506.2317</ele>
        <time>2020-02-09T09:05:30Z</time>
      </trkpt>
      <trkpt lat="47.71755" lon="6.66417">
        <ele>507.41364</ele>
        <time>2020-02-09T09:05:35Z</time>
      </trkpt>
      <trkpt lat="47.71764" lon="6.66412">
        <ele>507.78333</ele>
        <time>2020-02-09T09:05:40Z</time>
      </trkpt>
      <trkpt lat="47.71775" lon="6.66405">
        <ele>508.74057</ele>
        <time>2020-02-09T09:05:45Z</time>
      </trkpt>
      <trkpt lat="47.71782" lon="6.66399">
        <ele>509.77576</ele>
        <time>2020-02-09T09:05:50Z</time>
      </trkpt>
      <trkpt lat="47.71792" lon="6.66392">
        <ele>510.81592</ele>
        <time>2020-02-09T09:05:55Z</time>
      </trkpt>
      <trkpt lat="47.718" lon="6.66386">
        <ele>510.03705</ele>
        <time>2020-02-09T09:06:00Z</time>
      </trkpt>
      <trkpt lat="47.71809" lon="6.66378">
        <ele>509.5983</ele>
        <time>2020-02-09T09:06:05Z</time>
      </trkpt>
      <trkpt lat="47.71818" lon="6.66371">
        <ele>509.83</ele>
        <time>2020-02-09T09:06:10Z</time>
      </trkpt>
      <trkpt lat="47.71825" lon="6.66364">
        <ele>510.8386</ele>
        <time>2020-02-09T09:06:15Z</time>
      </trkpt>
      <trkpt lat="47.71833" lon="6.66355">
        <ele>512.7416</ele>
        <time>2020-02-09T09:06:20Z</time>
      </trkpt>
      <trkpt lat="47.71839" lon="6.6635">
        <ele>515.9465</ele>
        <time>2020-02-09T09:06:25Z</time>
      </trkpt>
      <trkpt lat="47.71846" lon="6.66342">
        <ele>517.09344</ele>
        <time>2020-02-09T09:06:30Z</time>
      </trkpt>
      <trkpt lat="47.71853" lon="6.66334">
        <ele>519.52466</ele>
        <time>2020-02-09T09:06:35Z</time>
      </trkpt>
      <trkpt lat="47.71859" lon="6.66328">
        <ele>520.8612</ele>
        <time>2020-02-09T09:06:40Z</time>
      </trkpt>
      <trkpt lat="47.71864" lon="6.6632">
        <ele>521.27356</ele>
        <time>2020-02-09T09:06:45Z</time>
      </trkpt>
      <trkpt lat="47.7187" lon="6.66314">
        <ele>523.1903</ele>
        <time>2020-02-09T09:06:50Z</time>
      </trkpt>
      <trkpt lat="47.71878" lon="6.66306">
        <ele>522.8539</ele>
        <time>2020-02-09T09:06:55Z</time>
      </trkpt>
      <trkpt lat="47.71886" lon="6.663">
        <ele>522.29553</ele>
        <time>2020-02-09T09:07:00Z</time>
      </trkpt>
      <trkpt lat="47.71896" lon="6.66294">
        <ele>523.36194</ele>
        <time>2020-02-09T09:07:05Z</time>
      </trkpt>
      <trkpt lat="47.71905" lon="6.66288">
        <ele>523.07385</ele>
        <time>2020-02-09T09:07:10Z</time>
      </trkpt>
      <trkpt lat="47.71917" lon="6.66278">
        <ele>523.69934</ele>
        <time>2020-02-09T09:07:15Z</time>
      </trkpt>
      <trkpt lat="47.71934" lon="6.66265">
        <ele>523.33234</ele>
        <time>2020-02-09T09:07:20Z</time>
      </trkpt>
      <trkpt lat="47.71953" lon="6.66256">
        <ele>523.1518</ele>
        <time>2020-02-09T09:07:25Z</time>
      </trkpt>
      <trkpt lat="47.71978" lon="6.66261">
        <ele>524.19556</ele>
        <time>2020-02-09T09:07:30Z</time>
      </trkpt>
      <trkpt lat="47.71986" lon="6.66273">
        <ele>525.5956</ele>
        <time>2020-02-09T09:07:35Z</time>
      </trkpt>
      <trkpt lat="47.71986" lon="6.66285">
        <ele>526.599</ele>
        <time>2020-02-09T09:07:45Z</time>
      </trkpt>
      <trkpt lat="47.71986" lon="6.66287">
        <ele>528.4797</ele>
        <time>2020-02-09T09:07:55Z</time>
      </trkpt>
      <trkpt lat="47.71988" lon="6.66291">
        <ele>528.65533</ele>
        <time>2020-02-09T09:08:00Z</time>
      </trkpt>
      <trkpt lat="47.71986" lon="6.66294">
        <ele>528.8813</ele>
        <time>2020-02-09T09:08:15Z</time>
      </trkpt>
      <trkpt lat="47.71985" lon="6.66296">
        <ele>528.62177</ele>
        <time>2020-02-09T09:08:20Z</time>
      </trkpt>
      <trkpt lat="47.71987" lon="6.66301">
        <ele>531.49744</ele>
        <time>2020-02-09T09:08:35Z</time>
      </trkpt>
      <trkpt lat="47.71987" lon="6.66313">
        <ele>533.59467</ele>
        <time>2020-02-09T09:08:40Z</time>
      </trkpt>
      <trkpt lat="47.7199" lon="6.66325">
        <ele>530.8915</ele>
        <time>2020-02-09T09:08:45Z</time>
      </trkpt>
      <trkpt lat="47.71991" lon="6.66337">
        <ele>528.6346</ele>
        <time>2020-02-09T09:08:50Z</time>
      </trkpt>
      <trkpt lat="47.71989" lon="6.66349">
        <ele>530.32104</ele>
        <time>2020-02-09T09:08:55Z</time>
      </trkpt>
      <trkpt lat="47.71989" lon="6.66358">
        <ele>530.8846</ele>
        <time>2020-02-09T09:09:00Z</time>
      </trkpt>
      <trkpt lat="47.71989" lon="6.66367">
        <ele>530.86285</ele>
        <time>2020-02-09T09:09:10Z</time>
      </trkpt>
      <trkpt lat="47.71993" lon="6.66367">
        <ele>531.67706</ele>
        <time>2020-02-09T09:09:25Z</time>
      </trkpt>
      <trkpt lat="47.71995" lon="6.66375">
        <ele>529.61743</ele>
        <time>2020-02-09T09:09:40Z</time>
      </trkpt>
      <trkpt lat="47.71994" lon="6.66386">
        <ele>529.1931</ele>
        <time>2020-02-09T09:10:00Z</time>
      </trkpt>
      <trkpt lat="47.71994" lon="6.66393">
        <ele>531.23785</ele>
        <time>2020-02-09T09:10:05Z</time>
      </trkpt>
      <trkpt lat="47.71995" lon="6.66407">
        <ele>532.13696</ele>
        <time>2020-02-09T09:10:15Z</time>
      </trkpt>
      <trkpt lat="47.71996" lon="6.66412">
        <ele>533.9895</ele>
        <time>2020-02-09T09:10:30Z</time>
      </trkpt>
      <trkpt lat="47.72" lon="6.66412">
        <ele>537.8471</ele>
        <time>2020-02-09T09:10:50Z</time>
      </trkpt>
      <trkpt lat="47.72002" lon="6.66414">
        <ele>540.4603</ele>
        <time>2020-02-09T09:11:00Z</time>
      </trkpt>
      <trkpt lat="47.72005" lon="6.66418">
        <ele>543.60614</ele>
        <time>2020-02-09T09:11:15Z</time>
      </trkpt>
      <trkpt lat="47.72006" lon="6.66426">
        <ele>542.5051</ele>
        <time>2020-02-09T09:11:25Z</time>
      </trkpt>
      <trkpt lat="47.72006" lon="6.66432">
        <ele>544.5502</ele>
        <time>2020-02-09T09:11:40Z</time>
      </trkpt>
      <trkpt lat="47.72003" lon="6.66441">
        <ele>544.94415</ele>
        <time>2020-02-09T09:11:50Z</time>
      </trkpt>
      <trkpt lat="47.71996" lon="6.66431">
        <ele>538.75433</ele>
        <time>2020-02-09T09:12:00Z</time>
      </trkpt>
      <trkpt lat="47.71993" lon="6.66429">
        <ele>531.94055</ele>
        <time>2020-02-09T09:12:30Z</time>
      </trkpt>
      <trkpt lat="47.7199" lon="6.66443">
        <ele>536.64667</ele>
        <time>2020-02-09T09:12:45Z</time>
      </trkpt>
      <trkpt lat="47.7199" lon="6.66457">
        <ele>537.854</ele>
        <time>2020-02-09T09:12:50Z</time>
      </trkpt>
      <trkpt lat="47.71988" lon="6.66473">
        <ele>539.709</ele>
        <time>2020-02-09T09:12:55Z</time>
      </trkpt>
      <trkpt lat="47.71989" lon="6.66483">
        <ele>539.00214</ele>
        <time>2020-02-09T09:13:00Z</time>
      </trkpt>
      <trkpt lat="47.71988" lon="6.66495">
        <ele>539.2894</ele>
        <time>2020-02-09T09:13:05Z</time>
      </trkpt>
      <trkpt lat="47.71985" lon="6.66507">
        <ele>540.30334</ele>
        <time>2020-02-09T09:13:10Z</time>
      </trkpt>
      <trkpt lat="47.71985" lon="6.66516">
        <ele>539.73663</ele>
        <time>2020-02-09T09:13:15Z</time>
      </trkpt>
      <trkpt lat="47.71984" lon="6.66528">
        <ele>540.59064</ele>
        <time>2020-02-09T09:13:20Z</time>
      </trkpt>
      <trkpt lat="47.71983" lon="6.66541">
        <ele>540.3952</ele>
        <time>2020-02-09T09:13:25Z</time>
      </trkpt>
      <trkpt lat="47.71983" lon="6.66553">
        <ele>540.255</ele>
        <time>2020-02-09T09:13:30Z</time>
      </trkpt>
      <trkpt lat="47.71984" lon="6.66567">
        <ele>540.1503</ele>
        <time>2020-02-09T09:13:35Z</time>
      </trkpt>
      <trkpt lat="47.71985" lon="6.66579">
        <ele>540.7516</ele>
        <time>2020-02-09T09:13:40Z</time>
      </trkpt>
      <trkpt lat="47.71986" lon="6.66592">
        <ele>542.2089</ele>
        <time>2020-02-09T09:13:45Z</time>
      </trkpt>
      <trkpt lat="47.71988" lon="6.66607">
        <ele>543.8056</ele>
        <time>2020-02-09T09:13:50Z</time>
      </trkpt>
      <trkpt lat="47.71991" lon="6.6662">
        <ele>544.0268</ele>
        <time>2020-02-09T09:13:55Z</time>
      </trkpt>
      <trkpt lat="47.71992" lon="6.66629">
        <ele>544.4652</ele>
        <time>2020-02-09T09:14:00Z</time>
      </trkpt>
      <trkpt lat="47.71994" lon="6.66641">
        <ele>545.57916</ele>
        <time>2020-02-09T09:14:05Z</time>
      </trkpt>
      <trkpt lat="47.71994" lon="6.66656">
        <ele>547.0684</ele>
        <time>2020-02-09T09:14:10Z</time>
      </trkpt>
      <trkpt lat="47.71997" lon="6.6667">
        <ele>546.9667</ele>
        <time>2020-02-09T09:14:15Z</time>
      </trkpt>
      <trkpt lat="47.72" lon="6.66679">
        <ele>547.1593</ele>
        <time>2020-02-09T09:14:20Z</time>
      </trkpt>
      <trkpt lat="47.72" lon="6.6669">
        <ele>548.62494</ele>
        <time>2020-02-09T09:14:25Z</time>
      </trkpt>
      <trkpt lat="47.72002" lon="6.66703">
        <ele>550.04724</ele>
        <time>2020-02-09T09:14:30Z</time>
      </trkpt>
      <trkpt lat="47.72004" lon="6.66716">
        <ele>550.8651</ele>
        <time>2020-02-09T09:14:35Z</time>
      </trkpt>
      <trkpt lat="47.72008" lon="6.66726">
        <ele>551.8519</ele>
        <time>2020-02-09T09:14:40Z</time>
      </trkpt>
      <trkpt lat="47.72013" lon="6.66733">
        <ele>553.3782</ele>
        <time>2020-02-09T09:14:45Z</time>
      </trkpt>
      <trkpt lat="47.72019" lon="6.66739">
        <ele>554.4165</ele>
        <time>2020-02-09T09:14:50Z</time>
      </trkpt>
      <trkpt lat="47.72025" lon="6.66743">
        <ele>554.56964</ele>
        <time>2020-02-09T09:14:55Z</time>
      </trkpt>
      <trkpt lat="47.72034" lon="6.66745">
        <ele>555.4786</ele>
        <time>2020-02-09T09:15:00Z</time>
      </trkpt>
      <trkpt lat="47.72041" lon="6.66745">
        <ele>555.56256</ele>
        <time>2020-02-09T09:15:05Z</time>
      </trkpt>
      <trkpt lat="47.72046" lon="6.66749">
        <ele>556.5249</ele>
        <time>2020-02-09T09:15:10Z</time>
      </trkpt>
      <trkpt lat="47.72051" lon="6.66748">
        <ele>556.7699</ele>
        <time>2020-02-09T09:15:15Z</time>
      </trkpt>
      <trkpt lat="47.72063" lon="6.66752">
        <ele>559.4477</ele>
        <time>2020-02-09T09:15:25Z</time>
      </trkpt>
      <trkpt lat="47.72082" lon="6.66747">
        <ele>558.09393</ele>
        <time>2020-02-09T09:15:30Z</time>
      </trkpt>
      <trkpt lat="47.72109" lon="6.66746">
        <ele>557.17206</ele>
        <time>2020-02-09T09:15:35Z</time>
      </trkpt>
      <trkpt lat="47.72133" lon="6.66765">
        <ele>558.1888</ele>
        <time>2020-02-09T09:15:40Z</time>
      </trkpt>
      <trkpt lat="47.72157" lon="6.66765">
        <ele>558.90027</ele>
        <time>2020-02-09T09:15:45Z</time>
      </trkpt>
      <trkpt lat="47.72181" lon="6.66755">
        <ele>556.2838</ele>
        <time>2020-02-09T09:15:50Z</time>
      </trkpt>
      <trkpt lat="47.72202" lon="6.66753">
        <ele>557.0545</ele>
        <time>2020-02-09T09:15:55Z</time>
      </trkpt>
      <trkpt lat="47.72215" lon="6.66772">
        <ele>559.0208</ele>
        <time>2020-02-09T09:16:00Z</time>
      </trkpt>
      <trkpt lat="47.72227" lon="6.66791">
        <ele>559.83014</ele>
        <time>2020-02-09T09:16:05Z</time>
      </trkpt>
      <trkpt lat="47.72235" lon="6.66807">
        <ele>559.7037</ele>
        <time>2020-02-09T09:16:10Z</time>
      </trkpt>
      <trkpt lat="47.7224" lon="6.66825">
        <ele>559.31036</ele>
        <time>2020-02-09T09:16:15Z</time>
      </trkpt>
      <trkpt lat="47.72248" lon="6.66839">
        <ele>560.49225</ele>
        <time>2020-02-09T09:16:20Z</time>
      </trkpt>
      <trkpt lat="47.72252" lon="6.66847">
        <ele>561.29565</ele>
        <time>2020-02-09T09:16:25Z</time>
      </trkpt>
      <trkpt lat="47.72255" lon="6.66858">
        <ele>560.4814</ele>
        <time>2020-02-09T09:16:30Z</time>
      </trkpt>
      <trkpt lat="47.72259" lon="6.66873">
        <ele>559.6938</ele>
        <time>2020-02-09T09:16:35Z</time>
      </trkpt>
      <trkpt lat="47.72265" lon="6.66887">
        <ele>560.6503</ele>
        <time>2020-02-09T09:16:40Z</time>
      </trkpt>
      <trkpt lat="47.72273" lon="6.66909">
        <ele>559.591</ele>
        <time>2020-02-09T09:16:45Z</time>
      </trkpt>
      <trkpt lat="47.7228" lon="6.66931">
        <ele>558.7965</ele>
        <time>2020-02-09T09:16:50Z</time>
      </trkpt>
      <trkpt lat="47.72281" lon="6.66947">
        <ele>561.48444</ele>
        <time>2020-02-09T09:16:55Z</time>
      </trkpt>
      <trkpt lat="47.72271" lon="6.66961">
        <ele>562.9145</ele>
        <time>2020-02-09T09:17:00Z</time>
      </trkpt>
      <trkpt lat="47.72256" lon="6.66977">
        <ele>563.05383</ele>
        <time>2020-02-09T09:17:05Z</time>
      </trkpt>
      <trkpt lat="47.72244" lon="6.66992">
        <ele>566.45404</ele>
        <time>2020-02-09T09:17:10Z</time>
      </trkpt>
      <trkpt lat="47.72233" lon="6.67008">
        <ele>565.1463</ele>
        <time>2020-02-09T09:17:15Z</time>
      </trkpt>
      <trkpt lat="47.72223" lon="6.67028">
        <ele>566.9305</ele>
        <time>2020-02-09T09:17:20Z</time>
      </trkpt>
      <trkpt lat="47.7222" lon="6.67043">
        <ele>568.06036</ele>
        <time>2020-02-09T09:17:25Z</time>
      </trkpt>
      <trkpt lat="47.72216" lon="6.67058">
        <ele>570.1078</ele>
        <time>2020-02-09T09:17:30Z</time>
      </trkpt>
      <trkpt lat="47.72216" lon="6.67072">
        <ele>571.87463</ele>
        <time>2020-02-09T09:17:35Z</time>
      </trkpt>
      <trkpt lat="47.72217" lon="6.67086">
        <ele>571.73126</ele>
        <time>2020-02-09T09:17:40Z</time>
      </trkpt>
      <trkpt lat="47.72216" lon="6.671">
        <ele>569.8527</ele>
        <time>2020-02-09T09:17:45Z</time>
      </trkpt>
      <trkpt lat="47.7222" lon="6.67113">
        <ele>568.1859</ele>
        <time>2020-02-09T09:17:50Z</time>
      </trkpt>
      <trkpt lat="47.72218" lon="6.67129">
        <ele>569.2734</ele>
        <time>2020-02-09T09:17:55Z</time>
      </trkpt>
      <trkpt lat="47.7222" lon="6.67143">
        <ele>568.9827</ele>
        <time>2020-02-09T09:18:00Z</time>
      </trkpt>
      <trkpt lat="47.72221" lon="6.67158">
        <ele>569.5581</ele>
        <time>2020-02-09T09:18:05Z</time>
      </trkpt>
      <trkpt lat="47.72222" lon="6.67172">
        <ele>570.1582</ele>
        <time>2020-02-09T09:18:10Z</time>
      </trkpt>
      <trkpt lat="47.72225" lon="6.67185">
        <ele>570.99664</ele>
        <time>2020-02-09T09:18:15Z</time>
      </trkpt>
      <trkpt lat="47.72229" lon="6.67198">
        <ele>573.0156</ele>
        <time>2020-02-09T09:18:20Z</time>
      </trkpt>
      <trkpt lat="47.72234" lon="6.67213">
        <ele>574.8697</ele>
        <time>2020-02-09T09:18:25Z</time>
      </trkpt>
      <trkpt lat="47.72237" lon="6.67228">
        <ele>577.2916</ele>
        <time>2020-02-09T09:18:30Z</time>
      </trkpt>
      <trkpt lat="47.72239" lon="6.67243">
        <ele>579.71576</ele>
        <time>2020-02-09T09:18:35Z</time>
      </trkpt>
      <trkpt lat="47.72244" lon="6.67257">
        <ele>581.32214</ele>
        <time>2020-02-09T09:18:40Z</time>
      </trkpt>
      <trkpt lat="47.72248" lon="6.67276">
        <ele>582.06995</ele>
        <time>2020-02-09T09:18:45Z</time>
      </trkpt>
      <trkpt lat="47.72248" lon="6.67292">
        <ele>580.6396</ele>
        <time>2020-02-09T09:18:50Z</time>
      </trkpt>
      <trkpt lat="47.72244" lon="6.67312">
        <ele>581.4141</ele>
        <time>2020-02-09T09:18:55Z</time>
      </trkpt>
      <trkpt lat="47.72237" lon="6.67328">
        <ele>581.73364</ele>
        <time>2020-02-09T09:19:00Z</time>
      </trkpt>
      <trkpt lat="47.72227" lon="6.67344">
        <ele>580.2103</ele>
        <time>2020-02-09T09:19:05Z</time>
      </trkpt>
      <trkpt lat="47.72219" lon="6.67362">
        <ele>581.10944</ele>
        <time>2020-02-09T09:19:10Z</time>
      </trkpt>
      <trkpt lat="47.72214" lon="6.67376">
        <ele>582.6892</ele>
        <time>2020-02-09T09:19:15Z</time>
      </trkpt>
      <trkpt lat="47.72212" lon="6.67394">
        <ele>583.079</ele>
        <time>2020-02-09T09:19:20Z</time>
      </trkpt>
      <trkpt lat="47.72212" lon="6.67409">
        <ele>583.2006</ele>
        <time>2020-02-09T09:19:25Z</time>
      </trkpt>
      <trkpt lat="47.72216" lon="6.67426">
        <ele>586.19336</ele>
        <time>2020-02-09T09:19:30Z</time>
      </trkpt>
      <trkpt lat="47.7222" lon="6.67443">
        <ele>587.258</ele>
        <time>2020-02-09T09:19:35Z</time>
      </trkpt>
      <trkpt lat="47.72224" lon="6.67458">
        <ele>584.80426</ele>
        <time>2020-02-09T09:19:40Z</time>
      </trkpt>
      <trkpt lat="47.72232" lon="6.67475">
        <ele>582.0195</ele>
        <time>2020-02-09T09:19:45Z</time>
      </trkpt>
      <trkpt lat="47.72247" lon="6.67492">
        <ele>581.1599</ele>
        <time>2020-02-09T09:19:50Z</time>
      </trkpt>
      <trkpt lat="47.72267" lon="6.67504">
        <ele>581.63275</ele>
        <time>2020-02-09T09:19:55Z</time>
      </trkpt>
      <trkpt lat="47.72288" lon="6.67509">
        <ele>580.91064</ele>
        <time>2020-02-09T09:20:00Z</time>
      </trkpt>
      <trkpt lat="47.72303" lon="6.67522">
        <ele>578.6357</ele>
        <time>2020-02-09T09:20:05Z</time>
      </trkpt>
      <trkpt lat="47.72324" lon="6.67513">
        <ele>580.3458</ele>
        <time>2020-02-09T09:20:10Z</time>
      </trkpt>
      <trkpt lat="47.72345" lon="6.67529">
        <ele>581.6288</ele>
        <time>2020-02-09T09:20:15Z</time>
      </trkpt>
      <trkpt lat="47.72358" lon="6.6755">
        <ele>580.64655</ele>
        <time>2020-02-09T09:20:20Z</time>
      </trkpt>
      <trkpt lat="47.72373" lon="6.67561">
        <ele>582.3875</ele>
        <time>2020-02-09T09:20:25Z</time>
      </trkpt>
      <trkpt lat="47.72388" lon="6.67567">
        <ele>581.31915</ele>
        <time>2020-02-09T09:20:30Z</time>
      </trkpt>
      <trkpt lat="47.72401" lon="6.67604">
        <ele>579.8691</ele>
        <time>2020-02-09T09:20:35Z</time>
      </trkpt>
      <trkpt lat="47.72402" lon="6.67638">
        <ele>581.4092</ele>
        <time>2020-02-09T09:20:40Z</time>
      </trkpt>
      <trkpt lat="47.72403" lon="6.6767">
        <ele>580.6317</ele>
        <time>2020-02-09T09:20:45Z</time>
      </trkpt>
      <trkpt lat="47.72407" lon="6.67701">
        <ele>580.06</ele>
        <time>2020-02-09T09:20:50Z</time>
      </trkpt>
      <trkpt lat="47.72417" lon="6.67726">
        <ele>580.05505</ele>
        <time>2020-02-09T09:20:55Z</time>
      </trkpt>
      <trkpt lat="47.72427" lon="6.67745">
        <ele>581.4428</ele>
        <time>2020-02-09T09:21:00Z</time>
      </trkpt>
      <trkpt lat="47.72438" lon="6.67768">
        <ele>580.90076</ele>
        <time>2020-02-09T09:21:05Z</time>
      </trkpt>
      <trkpt lat="47.72451" lon="6.67792">
        <ele>580.52783</ele>
        <time>2020-02-09T09:21:10Z</time>
      </trkpt>
      <trkpt lat="47.72464" lon="6.67816">
        <ele>580.7613</ele>
        <time>2020-02-09T09:21:15Z</time>
      </trkpt>
      <trkpt lat="47.72476" lon="6.67837">
        <ele>583.4302</ele>
        <time>2020-02-09T09:21:20Z</time>
      </trkpt>
      <trkpt lat="47.72494" lon="6.6785">
        <ele>582.712</ele>
        <time>2020-02-09T09:21:25Z</time>
      </trkpt>
      <trkpt lat="47.72513" lon="6.67869">
        <ele>582.1906</ele>
        <time>2020-02-09T09:21:30Z</time>
      </trkpt>
      <trkpt lat="47.72528" lon="6.67894">
        <ele>583.163</ele>
        <time>2020-02-09T09:21:35Z</time>
      </trkpt>
      <trkpt lat="47.72543" lon="6.67914">
        <ele>580.6317</ele>
        <time>2020-02-09T09:21:40Z</time>
      </trkpt>
      <trkpt lat="47.72555" lon="6.67931">
        <ele>581.7633</ele>
        <time>2020-02-09T09:21:45Z</time>
      </trkpt>
      <trkpt lat="47.72569" lon="6.67947">
        <ele>583.8872</ele>
        <time>2020-02-09T09:21:50Z</time>
      </trkpt>
      <trkpt lat="47.72591" lon="6.67955">
        <ele>582.8594</ele>
        <time>2020-02-09T09:21:55Z</time>
      </trkpt>
      <trkpt lat="47.72608" lon="6.67978">
        <ele>582.99786</ele>
        <time>2020-02-09T09:22:00Z</time>
      </trkpt>
      <trkpt lat="47.72607" lon="6.68011">
        <ele>582.6437</ele>
        <time>2020-02-09T09:22:05Z</time>
      </trkpt>
      <trkpt lat="47.72593" lon="6.68037">
        <ele>584.834</ele>
        <time>2020-02-09T09:22:10Z</time>
      </trkpt>
      <trkpt lat="47.72579" lon="6.68053">
        <ele>585.12683</ele>
        <time>2020-02-09T09:22:15Z</time>
      </trkpt>
      <trkpt lat="47.72565" lon="6.68073">
        <ele>584.06726</ele>
        <time>2020-02-09T09:22:20Z</time>
      </trkpt>
      <trkpt lat="47.72546" lon="6.68097">
        <ele>584.9794</ele>
        <time>2020-02-09T09:22:25Z</time>
      </trkpt>
      <trkpt lat="47.72542" lon="6.6812">
        <ele>584.41644</ele>
        <time>2020-02-09T09:22:30Z</time>
      </trkpt>
      <trkpt lat="47.72544" lon="6.6813">
        <ele>581.8236</ele>
        <time>2020-02-09T09:22:40Z</time>
      </trkpt>
      <trkpt lat="47.72546" lon="6.68135">
        <ele>585.02094</ele>
        <time>2020-02-09T09:22:50Z</time>
      </trkpt>
      <trkpt lat="47.72549" lon="6.68137">
        <ele>582.0937</ele>
        <time>2020-02-09T09:23:05Z</time>
      </trkpt>
      <trkpt lat="47.72546" lon="6.68133">
        <ele>584.183</ele>
        <time>2020-02-09T09:23:15Z</time>
      </trkpt>
      <trkpt lat="47.72545" lon="6.68139">
        <ele>577.1156</ele>
        <time>2020-02-09T09:23:55Z</time>
      </trkpt>
      <trkpt lat="47.72546" lon="6.68134">
        <ele>584.4204</ele>
        <time>2020-02-09T09:24:10Z</time>
      </trkpt>
      <trkpt lat="47.72544" lon="6.68132">
        <ele>585.9797</ele>
        <time>2020-02-09T09:24:35Z</time>
      </trkpt>
      <trkpt lat="47.72544" lon="6.68135">
        <ele>582.87915</ele>
        <time>2020-02-09T09:25:05Z</time>
      </trkpt>
      <trkpt lat="47.72546" lon="6.68127">
        <ele>581.6347</ele>
        <time>2020-02-09T09:25:35Z</time>
      </trkpt>
      <trkpt lat="47.72553" lon="6.68122">
        <ele>585.0932</ele>
        <time>2020-02-09T09:25:40Z</time>
      </trkpt>
      <trkpt lat="47.72559" lon="6.68114">
        <ele>588.7422</ele>
        <time>2020-02-09T09:25:45Z</time>
      </trkpt>
      <trkpt lat="47.72563" lon="6.6811">
        <ele>586.79</ele>
        <time>2020-02-09T09:25:55Z</time>
      </trkpt>
      <trkpt lat="47.72569" lon="6.68103">
        <ele>585.5137</ele>
        <time>2020-02-09T09:26:05Z</time>
      </trkpt>
      <trkpt lat="47.72574" lon="6.68098">
        <ele>584.47186</ele>
        <time>2020-02-09T09:26:15Z</time>
      </trkpt>
      <trkpt lat="47.72571" lon="6.68098">
        <ele>583.84863</ele>
        <time>2020-02-09T09:26:25Z</time>
      </trkpt>
      <trkpt lat="47.72577" lon="6.68097">
        <ele>586.9582</ele>
        <time>2020-02-09T09:26:35Z</time>
      </trkpt>
      <trkpt lat="47.72583" lon="6.68099">
        <ele>589.8406</ele>
        <time>2020-02-09T09:26:40Z</time>
      </trkpt>
      <trkpt lat="47.7259" lon="6.681">
        <ele>591.13196</ele>
        <time>2020-02-09T09:26:45Z</time>
      </trkpt>
      <trkpt lat="47.72597" lon="6.68097">
        <ele>594.43463</ele>
        <time>2020-02-09T09:26:50Z</time>
      </trkpt>
      <trkpt lat="47.72603" lon="6.68096">
        <ele>597.6318</ele>
        <time>2020-02-09T09:26:55Z</time>
      </trkpt>
      <trkpt lat="47.72612" lon="6.68093">
        <ele>596.7963</ele>
        <time>2020-02-09T09:27:05Z</time>
      </trkpt>
      <trkpt lat="47.72621" lon="6.6809">
        <ele>593.77936</ele>
        <time>2020-02-09T09:27:10Z</time>
      </trkpt>
      <trkpt lat="47.72625" lon="6.68088">
        <ele>593.7903</ele>
        <time>2020-02-09T09:27:15Z</time>
      </trkpt>
      <trkpt lat="47.7263" lon="6.68086">
        <ele>592.64716</ele>
        <time>2020-02-09T09:27:30Z</time>
      </trkpt>
      <trkpt lat="47.72636" lon="6.68084">
        <ele>595.8104</ele>
        <time>2020-02-09T09:27:35Z</time>
      </trkpt>
      <trkpt lat="47.72642" lon="6.68086">
        <ele>596.65875</ele>
        <time>2020-02-09T09:27:40Z</time>
      </trkpt>
      <trkpt lat="47.72648" lon="6.68082">
        <ele>601.0602</ele>
        <time>2020-02-09T09:27:50Z</time>
      </trkpt>
      <trkpt lat="47.72651" lon="6.68077">
        <ele>599.7414</ele>
        <time>2020-02-09T09:27:55Z</time>
      </trkpt>
      <trkpt lat="47.72654" lon="6.68069">
        <ele>602.1839</ele>
        <time>2020-02-09T09:28:00Z</time>
      </trkpt>
      <trkpt lat="47.72657" lon="6.68063">
        <ele>605.5754</ele>
        <time>2020-02-09T09:28:05Z</time>
      </trkpt>
      <trkpt lat="47.72662" lon="6.68055">
        <ele>609.00995</ele>
        <time>2020-02-09T09:28:10Z</time>
      </trkpt>
      <trkpt lat="47.72666" lon="6.68046">
        <ele>606.6013</ele>
        <time>2020-02-09T09:28:15Z</time>
      </trkpt>
      <trkpt lat="47.72669" lon="6.68045">
        <ele>605.514</ele>
        <time>2020-02-09T09:28:30Z</time>
      </trkpt>
      <trkpt lat="47.72673" lon="6.6804">
        <ele>603.16315</ele>
        <time>2020-02-09T09:28:35Z</time>
      </trkpt>
      <trkpt lat="47.72678" lon="6.68032">
        <ele>605.03766</ele>
        <time>2020-02-09T09:28:45Z</time>
      </trkpt>
      <trkpt lat="47.7268" lon="6.68024">
        <ele>610.4471</ele>
        <time>2020-02-09T09:28:50Z</time>
      </trkpt>
      <trkpt lat="47.72683" lon="6.68016">
        <ele>612.44604</ele>
        <time>2020-02-09T09:28:55Z</time>
      </trkpt>
      <trkpt lat="47.72686" lon="6.68009">
        <ele>610.355</ele>
        <time>2020-02-09T09:29:00Z</time>
      </trkpt>
      <trkpt lat="47.72688" lon="6.68">
        <ele>608.0027</ele>
        <time>2020-02-09T09:29:05Z</time>
      </trkpt>
      <trkpt lat="47.72691" lon="6.67995">
        <ele>607.71844</ele>
        <time>2020-02-09T09:29:10Z</time>
      </trkpt>
      <trkpt lat="47.72693" lon="6.67986">
        <ele>608.27203</ele>
        <time>2020-02-09T09:29:15Z</time>
      </trkpt>
      <trkpt lat="47.72694" lon="6.6798">
        <ele>609.6755</ele>
        <time>2020-02-09T09:29:20Z</time>
      </trkpt>
      <trkpt lat="47.72697" lon="6.67971">
        <ele>611.5585</ele>
        <time>2020-02-09T09:29:25Z</time>
      </trkpt>
      <trkpt lat="47.72701" lon="6.67969">
        <ele>610.8651</ele>
        <time>2020-02-09T09:29:35Z</time>
      </trkpt>
      <trkpt lat="47.72703" lon="6.67963">
        <ele>609.62695</ele>
        <time>2020-02-09T09:29:50Z</time>
      </trkpt>
      <trkpt lat="47.72704" lon="6.67952">
        <ele>609.3764</ele>
        <time>2020-02-09T09:29:55Z</time>
      </trkpt>
      <trkpt lat="47.72702" lon="6.67943">
        <ele>610.64124</ele>
        <time>2020-02-09T09:30:00Z</time>
      </trkpt>
      <trkpt lat="47.72702" lon="6.67935">
        <ele>613.3425</ele>
        <time>2020-02-09T09:30:05Z</time>
      </trkpt>
      <trkpt lat="47.72703" lon="6.67927">
        <ele>615.78357</ele>
        <time>2020-02-09T09:30:10Z</time>
      </trkpt>
      <trkpt lat="47.72703" lon="6.67914">
        <ele>618.433</ele>
        <time>2020-02-09T09:30:15Z</time>
      </trkpt>
      <trkpt lat="47.72703" lon="6.67905">
        <ele>620.84094</ele>
        <time>2020-02-09T09:30:20Z</time>
      </trkpt>
      <trkpt lat="47.72703" lon="6.67898">
        <ele>622.6317</ele>
        <time>2020-02-09T09:30:25Z</time>
      </trkpt>
      <trkpt lat="47.72703" lon="6.6789">
        <ele>622.5078</ele>
        <time>2020-02-09T09:30:30Z</time>
      </trkpt>
      <trkpt lat="47.72701" lon="6.67881">
        <ele>624.5822</ele>
        <time>2020-02-09T09:30:40Z</time>
      </trkpt>
      <trkpt lat="47.72699" lon="6.67873">
        <ele>621.6506</ele>
        <time>2020-02-09T09:30:50Z</time>
      </trkpt>
      <trkpt lat="47.72697" lon="6.6786">
        <ele>625.0391</ele>
        <time>2020-02-09T09:31:00Z</time>
      </trkpt>
      <trkpt lat="47.72696" lon="6.67854">
        <ele>629.2143</ele>
        <time>2020-02-09T09:31:10Z</time>
      </trkpt>
      <trkpt lat="47.72693" lon="6.67843">
        <ele>632.7181</ele>
        <time>2020-02-09T09:31:20Z</time>
      </trkpt>
      <trkpt lat="47.72693" lon="6.67835">
        <ele>641.9878</ele>
        <time>2020-02-09T09:32:00Z</time>
      </trkpt>
      <trkpt lat="47.72692" lon="6.6783">
        <ele>635.5877</ele>
        <time>2020-02-09T09:32:20Z</time>
      </trkpt>
      <trkpt lat="47.72693" lon="6.67831">
        <ele>633.38336</ele>
        <time>2020-02-09T09:32:55Z</time>
      </trkpt>
      <trkpt lat="47.72697" lon="6.67827">
        <ele>639.1401</ele>
        <time>2020-02-09T09:33:25Z</time>
      </trkpt>
      <trkpt lat="47.72703" lon="6.67823">
        <ele>639.34344</ele>
        <time>2020-02-09T09:33:35Z</time>
      </trkpt>
      <trkpt lat="47.72706" lon="6.67825">
        <ele>638.6551</ele>
        <time>2020-02-09T09:33:40Z</time>
      </trkpt>
      <trkpt lat="47.72711" lon="6.67826">
        <ele>641.31726</ele>
        <time>2020-02-09T09:33:45Z</time>
      </trkpt>
      <trkpt lat="47.72709" lon="6.67824">
        <ele>637.2587</ele>
        <time>2020-02-09T09:34:20Z</time>
      </trkpt>
      <trkpt lat="47.72702" lon="6.67825">
        <ele>639.3355</ele>
        <time>2020-02-09T09:34:30Z</time>
      </trkpt>
      <trkpt lat="47.72709" lon="6.67819">
        <ele>647.8619</ele>
        <time>2020-02-09T09:34:39Z</time>
      </trkpt>
      <trkpt lat="47.72722" lon="6.67827">
        <ele>649.45245</ele>
        <time>2020-02-09T09:34:45Z</time>
      </trkpt>
      <trkpt lat="47.72729" lon="6.67835">
        <ele>644.68506</ele>
        <time>2020-02-09T09:34:50Z</time>
      </trkpt>
      <trkpt lat="47.72738" lon="6.67841">
        <ele>642.202</ele>
        <time>2020-02-09T09:34:55Z</time>
      </trkpt>
      <trkpt lat="47.72745" lon="6.67844">
        <ele>642.31213</ele>
        <time>2020-02-09T09:35:00Z</time>
      </trkpt>
      <trkpt lat="47.72754" lon="6.67851">
        <ele>644.80707</ele>
        <time>2020-02-09T09:35:05Z</time>
      </trkpt>
      <trkpt lat="47.72762" lon="6.67859">
        <ele>648.98706</ele>
        <time>2020-02-09T09:35:10Z</time>
      </trkpt>
      <trkpt lat="47.72767" lon="6.67865">
        <ele>647.6594</ele>
        <time>2020-02-09T09:35:15Z</time>
      </trkpt>
      <trkpt lat="47.72773" lon="6.67874">
        <ele>646.34283</ele>
        <time>2020-02-09T09:35:20Z</time>
      </trkpt>
      <trkpt lat="47.72777" lon="6.67882">
        <ele>647.38165</ele>
        <time>2020-02-09T09:35:25Z</time>
      </trkpt>
      <trkpt lat="47.72781" lon="6.67891">
        <ele>646.90936</ele>
        <time>2020-02-09T09:35:30Z</time>
      </trkpt>
      <trkpt lat="47.72786" lon="6.67898">
        <ele>647.7299</ele>
        <time>2020-02-09T09:35:35Z</time>
      </trkpt>
      <trkpt lat="47.72788" lon="6.67907">
        <ele>648.87494</ele>
        <time>2020-02-09T09:35:40Z</time>
      </trkpt>
      <trkpt lat="47.7279" lon="6.67915">
        <ele>649.69055</ele>
        <time>2020-02-09T09:35:45Z</time>
      </trkpt>
      <trkpt lat="47.72793" lon="6.67923">
        <ele>651.1047</ele>
        <time>2020-02-09T09:35:50Z</time>
      </trkpt>
      <trkpt lat="47.72795" lon="6.67932">
        <ele>652.25977</ele>
        <time>2020-02-09T09:35:55Z</time>
      </trkpt>
      <trkpt lat="47.72801" lon="6.67937">
        <ele>654.1018</ele>
        <time>2020-02-09T09:36:00Z</time>
      </trkpt>
      <trkpt lat="47.72808" lon="6.67943">
        <ele>655.6293</ele>
        <time>2020-02-09T09:36:05Z</time>
      </trkpt>
      <trkpt lat="47.72811" lon="6.67947">
        <ele>658.25977</ele>
        <time>2020-02-09T09:36:10Z</time>
      </trkpt>
      <trkpt lat="47.72816" lon="6.6795">
        <ele>659.44006</ele>
        <time>2020-02-09T09:36:15Z</time>
      </trkpt>
      <trkpt lat="47.72822" lon="6.67957">
        <ele>658.59827</ele>
        <time>2020-02-09T09:36:20Z</time>
      </trkpt>
      <trkpt lat="47.72825" lon="6.6796">
        <ele>658.2151</ele>
        <time>2020-02-09T09:36:25Z</time>
      </trkpt>
      <trkpt lat="47.72834" lon="6.67971">
        <ele>658.2855</ele>
        <time>2020-02-09T09:36:35Z</time>
      </trkpt>
      <trkpt lat="47.72837" lon="6.67979">
        <ele>659.18494</ele>
        <time>2020-02-09T09:36:40Z</time>
      </trkpt>
      <trkpt lat="47.72845" lon="6.67983">
        <ele>661.8645</ele>
        <time>2020-02-09T09:36:45Z</time>
      </trkpt>
      <trkpt lat="47.72852" lon="6.67985">
        <ele>664.4699</ele>
        <time>2020-02-09T09:36:50Z</time>
      </trkpt>
      <trkpt lat="47.72858" lon="6.67986">
        <ele>668.163</ele>
        <time>2020-02-09T09:36:55Z</time>
      </trkpt>
      <trkpt lat="47.72865" lon="6.67987">
        <ele>666.3397</ele>
        <time>2020-02-09T09:37:00Z</time>
      </trkpt>
      <trkpt lat="47.7287" lon="6.67992">
        <ele>667.6049</ele>
        <time>2020-02-09T09:37:05Z</time>
      </trkpt>
      <trkpt lat="47.72873" lon="6.67997">
        <ele>668.61194</ele>
        <time>2020-02-09T09:37:10Z</time>
      </trkpt>
      <trkpt lat="47.7288" lon="6.68002">
        <ele>667.7986</ele>
        <time>2020-02-09T09:37:15Z</time>
      </trkpt>
      <trkpt lat="47.72886" lon="6.68006">
        <ele>667.78766</ele>
        <time>2020-02-09T09:37:20Z</time>
      </trkpt>
      <trkpt lat="47.72892" lon="6.68013">
        <ele>666.52545</ele>
        <time>2020-02-09T09:37:25Z</time>
      </trkpt>
      <trkpt lat="47.72899" lon="6.68019">
        <ele>670.1812</ele>
        <time>2020-02-09T09:37:30Z</time>
      </trkpt>
      <trkpt lat="47.72907" lon="6.68019">
        <ele>667.7191</ele>
        <time>2020-02-09T09:37:35Z</time>
      </trkpt>
      <trkpt lat="47.72915" lon="6.68023">
        <ele>667.1461</ele>
        <time>2020-02-09T09:37:40Z</time>
      </trkpt>
      <trkpt lat="47.72924" lon="6.68033">
        <ele>671.6403</ele>
        <time>2020-02-09T09:37:45Z</time>
      </trkpt>
      <trkpt lat="47.72931" lon="6.68042">
        <ele>677.5214</ele>
        <time>2020-02-09T09:37:50Z</time>
      </trkpt>
      <trkpt lat="47.72935" lon="6.68049">
        <ele>677.78076</ele>
        <time>2020-02-09T09:37:55Z</time>
      </trkpt>
      <trkpt lat="47.72941" lon="6.68056">
        <ele>676.5189</ele>
        <time>2020-02-09T09:38:00Z</time>
      </trkpt>
      <trkpt lat="47.72946" lon="6.68065">
        <ele>673.57733</ele>
        <time>2020-02-09T09:38:05Z</time>
      </trkpt>
      <trkpt lat="47.72952" lon="6.6808">
        <ele>675.81854</ele>
        <time>2020-02-09T09:38:10Z</time>
      </trkpt>
      <trkpt lat="47.72959" lon="6.68097">
        <ele>671.19037</ele>
        <time>2020-02-09T09:38:15Z</time>
      </trkpt>
      <trkpt lat="47.72964" lon="6.68114">
        <ele>671.49426</ele>
        <time>2020-02-09T09:38:20Z</time>
      </trkpt>
      <trkpt lat="47.72973" lon="6.68136">
        <ele>670.3014</ele>
        <time>2020-02-09T09:38:25Z</time>
      </trkpt>
      <trkpt lat="47.72983" lon="6.68156">
        <ele>671.4178</ele>
        <time>2020-02-09T09:38:30Z</time>
      </trkpt>
      <trkpt lat="47.72994" lon="6.6818">
        <ele>674.8767</ele>
        <time>2020-02-09T09:38:35Z</time>
      </trkpt>
      <trkpt lat="47.73005" lon="6.68201">
        <ele>677.8503</ele>
        <time>2020-02-09T09:38:40Z</time>
      </trkpt>
      <trkpt lat="47.73017" lon="6.68218">
        <ele>679.36755</ele>
        <time>2020-02-09T09:38:45Z</time>
      </trkpt>
      <trkpt lat="47.73038" lon="6.6823">
        <ele>678.985</ele>
        <time>2020-02-09T09:38:50Z</time>
      </trkpt>
      <trkpt lat="47.73048" lon="6.68249">
        <ele>679.8157</ele>
        <time>2020-02-09T09:38:55Z</time>
      </trkpt>
      <trkpt lat="47.73058" lon="6.68269">
        <ele>685.0798</ele>
        <time>2020-02-09T09:39:00Z</time>
      </trkpt>
      <trkpt lat="47.73065" lon="6.6829">
        <ele>685.85504</ele>
        <time>2020-02-09T09:39:05Z</time>
      </trkpt>
      <trkpt lat="47.73072" lon="6.68313">
        <ele>688.6751</ele>
        <time>2020-02-09T09:39:10Z</time>
      </trkpt>
      <trkpt lat="47.73082" lon="6.68339">
        <ele>682.6041</ele>
        <time>2020-02-09T09:39:15Z</time>
      </trkpt>
      <trkpt lat="47.731" lon="6.68363">
        <ele>674.72174</ele>
        <time>2020-02-09T09:39:20Z</time>
      </trkpt>
      <trkpt lat="47.7312" lon="6.68396">
        <ele>673.0151</ele>
        <time>2020-02-09T09:39:25Z</time>
      </trkpt>
      <trkpt lat="47.73142" lon="6.68449">
        <ele>675.6635</ele>
        <time>2020-02-09T09:39:30Z</time>
      </trkpt>
      <trkpt lat="47.73161" lon="6.68484">
        <ele>668.9417</ele>
        <time>2020-02-09T09:39:35Z</time>
      </trkpt>
      <trkpt lat="47.73169" lon="6.68502">
        <ele>666.87396</ele>
        <time>2020-02-09T09:39:40Z</time>
      </trkpt>
      <trkpt lat="47.73172" lon="6.68509">
        <ele>665.3735</ele>
        <time>2020-02-09T09:39:45Z</time>
      </trkpt>
      <trkpt lat="47.73176" lon="6.68518">
        <ele>663.3846</ele>
        <time>2020-02-09T09:39:50Z</time>
      </trkpt>
      <trkpt lat="47.73181" lon="6.68526">
        <ele>673.2386</ele>
        <time>2020-02-09T09:41:05Z</time>
      </trkpt>
      <trkpt lat="47.73184" lon="6.68533">
        <ele>674.4853</ele>
        <time>2020-02-09T09:41:10Z</time>
      </trkpt>
      <trkpt lat="47.73188" lon="6.68541">
        <ele>668.85925</ele>
        <time>2020-02-09T09:41:15Z</time>
      </trkpt>
      <trkpt lat="47.73196" lon="6.68549">
        <ele>667.302</ele>
        <time>2020-02-09T09:41:20Z</time>
      </trkpt>
      <trkpt lat="47.732" lon="6.68558">
        <ele>670.0769</ele>
        <time>2020-02-09T09:41:25Z</time>
      </trkpt>
      <trkpt lat="47.73205" lon="6.6857">
        <ele>672.50745</ele>
        <time>2020-02-09T09:41:30Z</time>
      </trkpt>
      <trkpt lat="47.73209" lon="6.68577">
        <ele>672.133</ele>
        <time>2020-02-09T09:41:35Z</time>
      </trkpt>
      <trkpt lat="47.73212" lon="6.68583">
        <ele>670.80994</ele>
        <time>2020-02-09T09:41:40Z</time>
      </trkpt>
      <trkpt lat="47.73215" lon="6.6859">
        <ele>670.90924</ele>
        <time>2020-02-09T09:41:45Z</time>
      </trkpt>
      <trkpt lat="47.73221" lon="6.68598">
        <ele>673.2028</ele>
        <time>2020-02-09T09:41:50Z</time>
      </trkpt>
      <trkpt lat="47.73228" lon="6.68606">
        <ele>679.00287</ele>
        <time>2020-02-09T09:42:00Z</time>
      </trkpt>
      <trkpt lat="47.73234" lon="6.6861">
        <ele>681.01605</ele>
        <time>2020-02-09T09:42:05Z</time>
      </trkpt>
      <trkpt lat="47.73244" lon="6.68608">
        <ele>680.79944</ele>
        <time>2020-02-09T09:42:15Z</time>
      </trkpt>
      <trkpt lat="47.73251" lon="6.68608">
        <ele>681.8518</ele>
        <time>2020-02-09T09:42:25Z</time>
      </trkpt>
      <trkpt lat="47.73259" lon="6.68607">
        <ele>683.92194</ele>
        <time>2020-02-09T09:42:30Z</time>
      </trkpt>
      <trkpt lat="47.73274" lon="6.68604">
        <ele>682.64185</ele>
        <time>2020-02-09T09:42:40Z</time>
      </trkpt>
      <trkpt lat="47.73285" lon="6.68601">
        <ele>683.3495</ele>
        <time>2020-02-09T09:42:45Z</time>
      </trkpt>
      <trkpt lat="47.73292" lon="6.68598">
        <ele>684.73395</ele>
        <time>2020-02-09T09:42:50Z</time>
      </trkpt>
      <trkpt lat="47.73299" lon="6.68597">
        <ele>685.7169</ele>
        <time>2020-02-09T09:42:55Z</time>
      </trkpt>
      <trkpt lat="47.73307" lon="6.68596">
        <ele>685.701</ele>
        <time>2020-02-09T09:43:00Z</time>
      </trkpt>
      <trkpt lat="47.73314" lon="6.68594">
        <ele>688.39075</ele>
        <time>2020-02-09T09:43:05Z</time>
      </trkpt>
      <trkpt lat="47.73323" lon="6.68592">
        <ele>689.77655</ele>
        <time>2020-02-09T09:43:10Z</time>
      </trkpt>
      <trkpt lat="47.7333" lon="6.68591">
        <ele>690.1802</ele>
        <time>2020-02-09T09:43:15Z</time>
      </trkpt>
      <trkpt lat="47.73336" lon="6.6859">
        <ele>687.59656</ele>
        <time>2020-02-09T09:43:20Z</time>
      </trkpt>
      <trkpt lat="47.73343" lon="6.6859">
        <ele>686.40674</ele>
        <time>2020-02-09T09:43:25Z</time>
      </trkpt>
      <trkpt lat="47.73351" lon="6.6859">
        <ele>686.1145</ele>
        <time>2020-02-09T09:43:30Z</time>
      </trkpt>
      <trkpt lat="47.73357" lon="6.68588">
        <ele>685.208</ele>
        <time>2020-02-09T09:43:35Z</time>
      </trkpt>
      <trkpt lat="47.73368" lon="6.68582">
        <ele>686.60254</ele>
        <time>2020-02-09T09:43:40Z</time>
      </trkpt>
      <trkpt lat="47.73386" lon="6.68573">
        <ele>695.0898</ele>
        <time>2020-02-09T09:43:45Z</time>
      </trkpt>
      <trkpt lat="47.73404" lon="6.68555">
        <ele>702.5011</ele>
        <time>2020-02-09T09:43:50Z</time>
      </trkpt>
      <trkpt lat="47.73419" lon="6.68528">
        <ele>699.79767</ele>
        <time>2020-02-09T09:43:55Z</time>
      </trkpt>
      <trkpt lat="47.73428" lon="6.68505">
        <ele>695.6626</ele>
        <time>2020-02-09T09:44:00Z</time>
      </trkpt>
      <trkpt lat="47.73433" lon="6.68482">
        <ele>697.74097</ele>
        <time>2020-02-09T09:44:05Z</time>
      </trkpt>
      <trkpt lat="47.73438" lon="6.68457">
        <ele>690.0967</ele>
        <time>2020-02-09T09:44:10Z</time>
      </trkpt>
      <trkpt lat="47.7344" lon="6.68431">
        <ele>692.15063</ele>
        <time>2020-02-09T09:44:15Z</time>
      </trkpt>
      <trkpt lat="47.73441" lon="6.68398">
        <ele>691.5352</ele>
        <time>2020-02-09T09:44:20Z</time>
      </trkpt>
      <trkpt lat="47.73445" lon="6.68369">
        <ele>686.7238</ele>
        <time>2020-02-09T09:44:25Z</time>
      </trkpt>
      <trkpt lat="47.7345" lon="6.68337">
        <ele>684.6872</ele>
        <time>2020-02-09T09:44:30Z</time>
      </trkpt>
      <trkpt lat="47.73454" lon="6.68303">
        <ele>683.2193</ele>
        <time>2020-02-09T09:44:35Z</time>
      </trkpt>
      <trkpt lat="47.73462" lon="6.68268">
        <ele>682.22546</ele>
        <time>2020-02-09T09:44:40Z</time>
      </trkpt>
      <trkpt lat="47.73473" lon="6.68238">
        <ele>682.05756</ele>
        <time>2020-02-09T09:44:45Z</time>
      </trkpt>
      <trkpt lat="47.73487" lon="6.68207">
        <ele>681.84686</ele>
        <time>2020-02-09T09:44:50Z</time>
      </trkpt>
      <trkpt lat="47.73504" lon="6.68177">
        <ele>681.27045</ele>
        <time>2020-02-09T09:44:55Z</time>
      </trkpt>
      <trkpt lat="47.73525" lon="6.68144">
        <ele>688.9544</ele>
        <time>2020-02-09T09:45:00Z</time>
      </trkpt>
      <trkpt lat="47.73543" lon="6.68115">
        <ele>685.22095</ele>
        <time>2020-02-09T09:45:05Z</time>
      </trkpt>
      <trkpt lat="47.73555" lon="6.6808">
        <ele>682.3159</ele>
        <time>2020-02-09T09:45:10Z</time>
      </trkpt>
      <trkpt lat="47.73546" lon="6.68042">
        <ele>682.06946</ele>
        <time>2020-02-09T09:45:15Z</time>
      </trkpt>
      <trkpt lat="47.73523" lon="6.68012">
        <ele>675.7271</ele>
        <time>2020-02-09T09:45:20Z</time>
      </trkpt>
      <trkpt lat="47.73502" lon="6.67976">
        <ele>679.2632</ele>
        <time>2020-02-09T09:45:25Z</time>
      </trkpt>
      <trkpt lat="47.73497" lon="6.67928">
        <ele>676.509</ele>
        <time>2020-02-09T09:45:30Z</time>
      </trkpt>
      <trkpt lat="47.735" lon="6.67899">
        <ele>671.5688</ele>
        <time>2020-02-09T09:45:35Z</time>
      </trkpt>
      <trkpt lat="47.735" lon="6.67873">
        <ele>674.2936</ele>
        <time>2020-02-09T09:45:50Z</time>
      </trkpt>
      <trkpt lat="47.73503" lon="6.67849">
        <ele>670.6977</ele>
        <time>2020-02-09T09:45:55Z</time>
      </trkpt>
      <trkpt lat="47.73509" lon="6.67824">
        <ele>667.8631</ele>
        <time>2020-02-09T09:46:00Z</time>
      </trkpt>
      <trkpt lat="47.73513" lon="6.67804">
        <ele>668.21967</ele>
        <time>2020-02-09T09:46:05Z</time>
      </trkpt>
      <trkpt lat="47.73518" lon="6.67789">
        <ele>668.3011</ele>
        <time>2020-02-09T09:46:10Z</time>
      </trkpt>
      <trkpt lat="47.7352" lon="6.67768">
        <ele>670.18616</ele>
        <time>2020-02-09T09:46:15Z</time>
      </trkpt>
      <trkpt lat="47.73519" lon="6.67759">
        <ele>671.08307</ele>
        <time>2020-02-09T09:46:20Z</time>
      </trkpt>
      <trkpt lat="47.73514" lon="6.67732">
        <ele>674.2061</ele>
        <time>2020-02-09T09:46:25Z</time>
      </trkpt>
      <trkpt lat="47.7351" lon="6.67721">
        <ele>672.18365</ele>
        <time>2020-02-09T09:46:30Z</time>
      </trkpt>
      <trkpt lat="47.73505" lon="6.67709">
        <ele>668.95856</ele>
        <time>2020-02-09T09:46:35Z</time>
      </trkpt>
      <trkpt lat="47.735" lon="6.67694">
        <ele>668.2167</ele>
        <time>2020-02-09T09:46:40Z</time>
      </trkpt>
      <trkpt lat="47.73496" lon="6.67673">
        <ele>667.0021</ele>
        <time>2020-02-09T09:46:45Z</time>
      </trkpt>
      <trkpt lat="47.73491" lon="6.67647">
        <ele>664.2743</ele>
        <time>2020-02-09T09:46:50Z</time>
      </trkpt>
      <trkpt lat="47.73491" lon="6.67623">
        <ele>664.83527</ele>
        <time>2020-02-09T09:46:55Z</time>
      </trkpt>
      <trkpt lat="47.73491" lon="6.67601">
        <ele>665.83826</ele>
        <time>2020-02-09T09:47:00Z</time>
      </trkpt>
      <trkpt lat="47.73489" lon="6.67578">
        <ele>666.6406</ele>
        <time>2020-02-09T09:47:05Z</time>
      </trkpt>
      <trkpt lat="47.73492" lon="6.67551">
        <ele>671.02844</ele>
        <time>2020-02-09T09:47:10Z</time>
      </trkpt>
      <trkpt lat="47.73494" lon="6.67537">
        <ele>671.14264</ele>
        <time>2020-02-09T09:47:15Z</time>
      </trkpt>
      <trkpt lat="47.73499" lon="6.67525">
        <ele>671.56085</ele>
        <time>2020-02-09T09:47:20Z</time>
      </trkpt>
      <trkpt lat="47.73502" lon="6.67505">
        <ele>671.7814</ele>
        <time>2020-02-09T09:47:25Z</time>
      </trkpt>
      <trkpt lat="47.73501" lon="6.67488">
        <ele>674.9582</ele>
        <time>2020-02-09T09:47:30Z</time>
      </trkpt>
      <trkpt lat="47.73503" lon="6.67461">
        <ele>669.42737</ele>
        <time>2020-02-09T09:47:35Z</time>
      </trkpt>
      <trkpt lat="47.7351" lon="6.67424">
        <ele>669.7392</ele>
        <time>2020-02-09T09:47:40Z</time>
      </trkpt>
      <trkpt lat="47.73512" lon="6.67372">
        <ele>672.2969</ele>
        <time>2020-02-09T09:47:45Z</time>
      </trkpt>
      <trkpt lat="47.73514" lon="6.6734">
        <ele>673.0379</ele>
        <time>2020-02-09T09:47:50Z</time>
      </trkpt>
      <trkpt lat="47.73517" lon="6.67323">
        <ele>669.6776</ele>
        <time>2020-02-09T09:47:55Z</time>
      </trkpt>
      <trkpt lat="47.73518" lon="6.673">
        <ele>672.8581</ele>
        <time>2020-02-09T09:48:00Z</time>
      </trkpt>
      <trkpt lat="47.7352" lon="6.67287">
        <ele>672.3306</ele>
        <time>2020-02-09T09:48:05Z</time>
      </trkpt>
      <trkpt lat="47.73522" lon="6.67272">
        <ele>671.0175</ele>
        <time>2020-02-09T09:48:10Z</time>
      </trkpt>
      <trkpt lat="47.73526" lon="6.67256">
        <ele>672.2234</ele>
        <time>2020-02-09T09:48:15Z</time>
      </trkpt>
      <trkpt lat="47.73528" lon="6.67243">
        <ele>673.18695</ele>
        <time>2020-02-09T09:48:20Z</time>
      </trkpt>
      <trkpt lat="47.73531" lon="6.67228">
        <ele>674.1744</ele>
        <time>2020-02-09T09:48:25Z</time>
      </trkpt>
      <trkpt lat="47.73533" lon="6.67216">
        <ele>675.0635</ele>
        <time>2020-02-09T09:48:30Z</time>
      </trkpt>
      <trkpt lat="47.73536" lon="6.67208">
        <ele>675.3446</ele>
        <time>2020-02-09T09:48:35Z</time>
      </trkpt>
      <trkpt lat="47.73537" lon="6.67199">
        <ele>676.8359</ele>
        <time>2020-02-09T09:48:40Z</time>
      </trkpt>
      <trkpt lat="47.73541" lon="6.67188">
        <ele>679.5325</ele>
        <time>2020-02-09T09:48:45Z</time>
      </trkpt>
      <trkpt lat="47.73544" lon="6.67179">
        <ele>680.53217</ele>
        <time>2020-02-09T09:48:50Z</time>
      </trkpt>
      <trkpt lat="47.73549" lon="6.67162">
        <ele>683.3664</ele>
        <time>2020-02-09T09:49:00Z</time>
      </trkpt>
      <trkpt lat="47.73549" lon="6.67151">
        <ele>684.6554</ele>
        <time>2020-02-09T09:49:10Z</time>
      </trkpt>
      <trkpt lat="47.7355" lon="6.67144">
        <ele>686.4087</ele>
        <time>2020-02-09T09:49:15Z</time>
      </trkpt>
      <trkpt lat="47.7355" lon="6.67131">
        <ele>686.1662</ele>
        <time>2020-02-09T09:49:20Z</time>
      </trkpt>
      <trkpt lat="47.7355" lon="6.67124">
        <ele>688.5687</ele>
        <time>2020-02-09T09:49:25Z</time>
      </trkpt>
      <trkpt lat="47.73551" lon="6.67118">
        <ele>690.29944</ele>
        <time>2020-02-09T09:49:30Z</time>
      </trkpt>
      <trkpt lat="47.73553" lon="6.6711">
        <ele>691.1962</ele>
        <time>2020-02-09T09:49:35Z</time>
      </trkpt>
      <trkpt lat="47.73554" lon="6.67098">
        <ele>692.0393</ele>
        <time>2020-02-09T09:49:40Z</time>
      </trkpt>
      <trkpt lat="47.73556" lon="6.6709">
        <ele>690.96954</ele>
        <time>2020-02-09T09:49:50Z</time>
      </trkpt>
      <trkpt lat="47.73557" lon="6.67074">
        <ele>690.55493</ele>
        <time>2020-02-09T09:49:55Z</time>
      </trkpt>
      <trkpt lat="47.73558" lon="6.67064">
        <ele>694.00995</ele>
        <time>2020-02-09T09:50:00Z</time>
      </trkpt>
      <trkpt lat="47.73558" lon="6.67049">
        <ele>697.2636</ele>
        <time>2020-02-09T09:50:10Z</time>
      </trkpt>
      <trkpt lat="47.73556" lon="6.67041">
        <ele>697.2666</ele>
        <time>2020-02-09T09:50:15Z</time>
      </trkpt>
      <trkpt lat="47.73555" lon="6.67032">
        <ele>697.2656</ele>
        <time>2020-02-09T09:50:20Z</time>
      </trkpt>
      <trkpt lat="47.73554" lon="6.67019">
        <ele>704.96716</ele>
        <time>2020-02-09T09:50:30Z</time>
      </trkpt>
      <trkpt lat="47.73555" lon="6.67011">
        <ele>703.47894</ele>
        <time>2020-02-09T09:50:35Z</time>
      </trkpt>
      <trkpt lat="47.73556" lon="6.67">
        <ele>701.16327</ele>
        <time>2020-02-09T09:50:40Z</time>
      </trkpt>
      <trkpt lat="47.73558" lon="6.6699">
        <ele>700.656</ele>
        <time>2020-02-09T09:50:45Z</time>
      </trkpt>
      <trkpt lat="47.73562" lon="6.6698">
        <ele>702.28925</ele>
        <time>2020-02-09T09:50:50Z</time>
      </trkpt>
      <trkpt lat="47.73565" lon="6.66972">
        <ele>703.64703</ele>
        <time>2020-02-09T09:50:55Z</time>
      </trkpt>
      <trkpt lat="47.7357" lon="6.66963">
        <ele>702.96765</ele>
        <time>2020-02-09T09:51:00Z</time>
      </trkpt>
      <trkpt lat="47.73573" lon="6.66955">
        <ele>703.39734</ele>
        <time>2020-02-09T09:51:05Z</time>
      </trkpt>
      <trkpt lat="47.73576" lon="6.6695">
        <ele>703.19745</ele>
        <time>2020-02-09T09:51:10Z</time>
      </trkpt>
      <trkpt lat="47.73582" lon="6.66938">
        <ele>704.96716</ele>
        <time>2020-02-09T09:51:20Z</time>
      </trkpt>
      <trkpt lat="47.73587" lon="6.66928">
        <ele>704.2807</ele>
        <time>2020-02-09T09:51:25Z</time>
      </trkpt>
      <trkpt lat="47.73589" lon="6.66919">
        <ele>703.4272</ele>
        <time>2020-02-09T09:51:30Z</time>
      </trkpt>
      <trkpt lat="47.73594" lon="6.66904">
        <ele>704.6916</ele>
        <time>2020-02-09T09:51:35Z</time>
      </trkpt>
      <trkpt lat="47.73595" lon="6.66896">
        <ele>707.2106</ele>
        <time>2020-02-09T09:51:40Z</time>
      </trkpt>
      <trkpt lat="47.73601" lon="6.66885">
        <ele>705.5959</ele>
        <time>2020-02-09T09:51:45Z</time>
      </trkpt>
      <trkpt lat="47.73607" lon="6.66872">
        <ele>704.19415</ele>
        <time>2020-02-09T09:51:50Z</time>
      </trkpt>
      <trkpt lat="47.73614" lon="6.66856">
        <ele>705.0527</ele>
        <time>2020-02-09T09:51:55Z</time>
      </trkpt>
      <trkpt lat="47.7362" lon="6.66844">
        <ele>707.3429</ele>
        <time>2020-02-09T09:52:00Z</time>
      </trkpt>
      <trkpt lat="47.73624" lon="6.66836">
        <ele>707.2245</ele>
        <time>2020-02-09T09:52:05Z</time>
      </trkpt>
      <trkpt lat="47.73626" lon="6.6683">
        <ele>710.57666</ele>
        <time>2020-02-09T09:52:15Z</time>
      </trkpt>
      <trkpt lat="47.73626" lon="6.66829">
        <ele>718.7508</ele>
        <time>2020-02-09T09:52:30Z</time>
      </trkpt>
      <trkpt lat="47.73629" lon="6.66827">
        <ele>723.9457</ele>
        <time>2020-02-09T09:53:10Z</time>
      </trkpt>
      <trkpt lat="47.73629" lon="6.66825">
        <ele>708.09906</ele>
        <time>2020-02-09T09:53:50Z</time>
      </trkpt>
      <trkpt lat="47.73634" lon="6.66831">
        <ele>711.6116</ele>
        <time>2020-02-09T09:54:10Z</time>
      </trkpt>
      <trkpt lat="47.73632" lon="6.66832">
        <ele>709.21545</ele>
        <time>2020-02-09T09:54:50Z</time>
      </trkpt>
      <trkpt lat="47.73639" lon="6.66823">
        <ele>712.3629</ele>
        <time>2020-02-09T09:55:25Z</time>
      </trkpt>
      <trkpt lat="47.73646" lon="6.66813">
        <ele>714.1572</ele>
        <time>2020-02-09T09:55:30Z</time>
      </trkpt>
      <trkpt lat="47.73656" lon="6.66801">
        <ele>713.7542</ele>
        <time>2020-02-09T09:55:35Z</time>
      </trkpt>
      <trkpt lat="47.73665" lon="6.6679">
        <ele>714.71063</ele>
        <time>2020-02-09T09:55:40Z</time>
      </trkpt>
      <trkpt lat="47.73674" lon="6.66777">
        <ele>714.7604</ele>
        <time>2020-02-09T09:55:45Z</time>
      </trkpt>
      <trkpt lat="47.73685" lon="6.66764">
        <ele>716.7729</ele>
        <time>2020-02-09T09:55:50Z</time>
      </trkpt>
      <trkpt lat="47.73695" lon="6.66751">
        <ele>717.33234</ele>
        <time>2020-02-09T09:55:55Z</time>
      </trkpt>
      <trkpt lat="47.73705" lon="6.66739">
        <ele>716.65045</ele>
        <time>2020-02-09T09:56:00Z</time>
      </trkpt>
      <trkpt lat="47.73713" lon="6.66726">
        <ele>717.3283</ele>
        <time>2020-02-09T09:56:05Z</time>
      </trkpt>
      <trkpt lat="47.73724" lon="6.6671">
        <ele>718.11273</ele>
        <time>2020-02-09T09:56:10Z</time>
      </trkpt>
      <trkpt lat="47.73737" lon="6.66695">
        <ele>718.15454</ele>
        <time>2020-02-09T09:56:15Z</time>
      </trkpt>
      <trkpt lat="47.7375" lon="6.6668">
        <ele>721.3899</ele>
        <time>2020-02-09T09:56:20Z</time>
      </trkpt>
      <trkpt lat="47.73757" lon="6.66671">
        <ele>723.2915</ele>
        <time>2020-02-09T09:56:25Z</time>
      </trkpt>
      <trkpt lat="47.73762" lon="6.66665">
        <ele>723.5793</ele>
        <time>2020-02-09T09:56:30Z</time>
      </trkpt>
      <trkpt lat="47.73767" lon="6.6666">
        <ele>723.46277</ele>
        <time>2020-02-09T09:56:35Z</time>
      </trkpt>
      <trkpt lat="47.73775" lon="6.66653">
        <ele>725.3606</ele>
        <time>2020-02-09T09:56:40Z</time>
      </trkpt>
      <trkpt lat="47.73784" lon="6.66643">
        <ele>723.7774</ele>
        <time>2020-02-09T09:56:45Z</time>
      </trkpt>
      <trkpt lat="47.7379" lon="6.66636">
        <ele>726.72186</ele>
        <time>2020-02-09T09:56:50Z</time>
      </trkpt>
      <trkpt lat="47.73797" lon="6.66626">
        <ele>725.6135</ele>
        <time>2020-02-09T09:56:55Z</time>
      </trkpt>
      <trkpt lat="47.73803" lon="6.66614">
        <ele>727.38007</ele>
        <time>2020-02-09T09:57:00Z</time>
      </trkpt>
      <trkpt lat="47.73811" lon="6.66606">
        <ele>727.5295</ele>
        <time>2020-02-09T09:57:05Z</time>
      </trkpt>
      <trkpt lat="47.73818" lon="6.666">
        <ele>725.7927</ele>
        <time>2020-02-09T09:57:10Z</time>
      </trkpt>
      <trkpt lat="47.73823" lon="6.66595">
        <ele>725.1644</ele>
        <time>2020-02-09T09:57:15Z</time>
      </trkpt>
      <trkpt lat="47.73832" lon="6.66586">
        <ele>727.5464</ele>
        <time>2020-02-09T09:57:20Z</time>
      </trkpt>
      <trkpt lat="47.73839" lon="6.66582">
        <ele>727.59717</ele>
        <time>2020-02-09T09:57:25Z</time>
      </trkpt>
      <trkpt lat="47.73845" lon="6.6658">
        <ele>728.17676</ele>
        <time>2020-02-09T09:57:30Z</time>
      </trkpt>
      <trkpt lat="47.73854" lon="6.66575">
        <ele>727.99255</ele>
        <time>2020-02-09T09:57:35Z</time>
      </trkpt>
      <trkpt lat="47.73866" lon="6.66567">
        <ele>725.4303</ele>
        <time>2020-02-09T09:57:40Z</time>
      </trkpt>
      <trkpt lat="47.73874" lon="6.6657">
        <ele>726.85724</ele>
        <time>2020-02-09T09:57:45Z</time>
      </trkpt>
      <trkpt lat="47.73878" lon="6.66585">
        <ele>727.75055</ele>
        <time>2020-02-09T09:57:50Z</time>
      </trkpt>
      <trkpt lat="47.73883" lon="6.666">
        <ele>726.6611</ele>
        <time>2020-02-09T09:57:55Z</time>
      </trkpt>
      <trkpt lat="47.73887" lon="6.66614">
        <ele>727.5155</ele>
        <time>2020-02-09T09:58:00Z</time>
      </trkpt>
      <trkpt lat="47.73893" lon="6.6663">
        <ele>728.4148</ele>
        <time>2020-02-09T09:58:05Z</time>
      </trkpt>
      <trkpt lat="47.73898" lon="6.66645">
        <ele>729.30414</ele>
        <time>2020-02-09T09:58:10Z</time>
      </trkpt>
      <trkpt lat="47.73903" lon="6.66657">
        <ele>730.567</ele>
        <time>2020-02-09T09:58:15Z</time>
      </trkpt>
      <trkpt lat="47.73906" lon="6.6667">
        <ele>730.4166</ele>
        <time>2020-02-09T09:58:20Z</time>
      </trkpt>
      <trkpt lat="47.73909" lon="6.66684">
        <ele>733.21356</ele>
        <time>2020-02-09T09:58:25Z</time>
      </trkpt>
      <trkpt lat="47.73912" lon="6.66698">
        <ele>732.82404</ele>
        <time>2020-02-09T09:58:30Z</time>
      </trkpt>
      <trkpt lat="47.73913" lon="6.66708">
        <ele>734.117</ele>
        <time>2020-02-09T09:58:35Z</time>
      </trkpt>
      <trkpt lat="47.73915" lon="6.66716">
        <ele>735.8016</ele>
        <time>2020-02-09T09:58:40Z</time>
      </trkpt>
      <trkpt lat="47.73917" lon="6.66725">
        <ele>736.4432</ele>
        <time>2020-02-09T09:58:45Z</time>
      </trkpt>
      <trkpt lat="47.73917" lon="6.66735">
        <ele>737.8091</ele>
        <time>2020-02-09T09:58:50Z</time>
      </trkpt>
      <trkpt lat="47.73918" lon="6.66746">
        <ele>739.1432</ele>
        <time>2020-02-09T09:58:55Z</time>
      </trkpt>
      <trkpt lat="47.73919" lon="6.66754">
        <ele>740.54517</ele>
        <time>2020-02-09T09:59:00Z</time>
      </trkpt>
      <trkpt lat="47.73919" lon="6.66764">
        <ele>741.24567</ele>
        <time>2020-02-09T09:59:05Z</time>
      </trkpt>
      <trkpt lat="47.73917" lon="6.66776">
        <ele>741.9801</ele>
        <time>2020-02-09T09:59:10Z</time>
      </trkpt>
      <trkpt lat="47.73915" lon="6.66785">
        <ele>742.1814</ele>
        <time>2020-02-09T09:59:15Z</time>
      </trkpt>
      <trkpt lat="47.73913" lon="6.66793">
        <ele>742.94476</ele>
        <time>2020-02-09T09:59:20Z</time>
      </trkpt>
      <trkpt lat="47.73912" lon="6.66803">
        <ele>742.6049</ele>
        <time>2020-02-09T09:59:25Z</time>
      </trkpt>
      <trkpt lat="47.73912" lon="6.66811">
        <ele>742.4704</ele>
        <time>2020-02-09T09:59:30Z</time>
      </trkpt>
      <trkpt lat="47.73912" lon="6.6682">
        <ele>742.31696</ele>
        <time>2020-02-09T09:59:35Z</time>
      </trkpt>
      <trkpt lat="47.7391" lon="6.66829">
        <ele>743.6374</ele>
        <time>2020-02-09T09:59:40Z</time>
      </trkpt>
      <trkpt lat="47.73909" lon="6.66841">
        <ele>744.59314</ele>
        <time>2020-02-09T09:59:50Z</time>
      </trkpt>
      <trkpt lat="47.7391" lon="6.66851">
        <ele>745.4672</ele>
        <time>2020-02-09T09:59:55Z</time>
      </trkpt>
      <trkpt lat="47.73911" lon="6.6686">
        <ele>746.147</ele>
        <time>2020-02-09T10:00:00Z</time>
      </trkpt>
      <trkpt lat="47.7391" lon="6.66872">
        <ele>747.1686</ele>
        <time>2020-02-09T10:00:05Z</time>
      </trkpt>
      <trkpt lat="47.73911" lon="6.66879">
        <ele>748.7336</ele>
        <time>2020-02-09T10:00:10Z</time>
      </trkpt>
      <trkpt lat="47.7391" lon="6.6689">
        <ele>750.57874</ele>
        <time>2020-02-09T10:00:15Z</time>
      </trkpt>
      <trkpt lat="47.73907" lon="6.66898">
        <ele>751.9336</ele>
        <time>2020-02-09T10:00:20Z</time>
      </trkpt>
      <trkpt lat="47.73904" lon="6.66903">
        <ele>751.00745</ele>
        <time>2020-02-09T10:00:25Z</time>
      </trkpt>
      <trkpt lat="47.73901" lon="6.66909">
        <ele>752.9086</ele>
        <time>2020-02-09T10:00:30Z</time>
      </trkpt>
      <trkpt lat="47.73899" lon="6.66916">
        <ele>753.4122</ele>
        <time>2020-02-09T10:00:35Z</time>
      </trkpt>
      <trkpt lat="47.73894" lon="6.66924">
        <ele>755.08624</ele>
        <time>2020-02-09T10:00:40Z</time>
      </trkpt>
      <trkpt lat="47.73892" lon="6.66931">
        <ele>756.93</ele>
        <time>2020-02-09T10:00:45Z</time>
      </trkpt>
      <trkpt lat="47.73888" lon="6.66944">
        <ele>758.3999</ele>
        <time>2020-02-09T10:00:55Z</time>
      </trkpt>
      <trkpt lat="47.73886" lon="6.66952">
        <ele>759.73627</ele>
        <time>2020-02-09T10:01:00Z</time>
      </trkpt>
      <trkpt lat="47.73885" lon="6.66959">
        <ele>760.4853</ele>
        <time>2020-02-09T10:01:05Z</time>
      </trkpt>
      <trkpt lat="47.73882" lon="6.66967">
        <ele>760.87427</ele>
        <time>2020-02-09T10:01:10Z</time>
      </trkpt>
      <trkpt lat="47.73879" lon="6.66974">
        <ele>762.6008</ele>
        <time>2020-02-09T10:01:15Z</time>
      </trkpt>
      <trkpt lat="47.73878" lon="6.6698">
        <ele>763.4098</ele>
        <time>2020-02-09T10:01:20Z</time>
      </trkpt>
      <trkpt lat="47.73875" lon="6.6699">
        <ele>764.5998</ele>
        <time>2020-02-09T10:01:25Z</time>
      </trkpt>
      <trkpt lat="47.73871" lon="6.66998">
        <ele>766.9352</ele>
        <time>2020-02-09T10:01:35Z</time>
      </trkpt>
      <trkpt lat="47.73868" lon="6.67005">
        <ele>767.5378</ele>
        <time>2020-02-09T10:01:40Z</time>
      </trkpt>
      <trkpt lat="47.73868" lon="6.67017">
        <ele>766.3715</ele>
        <time>2020-02-09T10:01:45Z</time>
      </trkpt>
      <trkpt lat="47.73867" lon="6.67024">
        <ele>766.9781</ele>
        <time>2020-02-09T10:01:50Z</time>
      </trkpt>
      <trkpt lat="47.73864" lon="6.67032">
        <ele>767.9987</ele>
        <time>2020-02-09T10:01:55Z</time>
      </trkpt>
      <trkpt lat="47.73859" lon="6.67039">
        <ele>767.47</ele>
        <time>2020-02-09T10:02:00Z</time>
      </trkpt>
      <trkpt lat="47.73856" lon="6.67047">
        <ele>771.0499</ele>
        <time>2020-02-09T10:02:05Z</time>
      </trkpt>
      <trkpt lat="47.73854" lon="6.67056">
        <ele>772.2274</ele>
        <time>2020-02-09T10:02:15Z</time>
      </trkpt>
      <trkpt lat="47.73846" lon="6.67069">
        <ele>774.5327</ele>
        <time>2020-02-09T10:02:25Z</time>
      </trkpt>
      <trkpt lat="47.7384" lon="6.67079">
        <ele>776.416</ele>
        <time>2020-02-09T10:02:30Z</time>
      </trkpt>
      <trkpt lat="47.73835" lon="6.67086">
        <ele>778.594</ele>
        <time>2020-02-09T10:02:35Z</time>
      </trkpt>
      <trkpt lat="47.7383" lon="6.67095">
        <ele>780.1822</ele>
        <time>2020-02-09T10:02:45Z</time>
      </trkpt>
      <trkpt lat="47.73824" lon="6.67106">
        <ele>782.9555</ele>
        <time>2020-02-09T10:02:55Z</time>
      </trkpt>
      <trkpt lat="47.73819" lon="6.67114">
        <ele>784.99634</ele>
        <time>2020-02-09T10:03:05Z</time>
      </trkpt>
      <trkpt lat="47.73816" lon="6.67121">
        <ele>785.3448</ele>
        <time>2020-02-09T10:03:10Z</time>
      </trkpt>
      <trkpt lat="47.73813" lon="6.67129">
        <ele>787.5826</ele>
        <time>2020-02-09T10:03:25Z</time>
      </trkpt>
      <trkpt lat="47.73808" lon="6.67138">
        <ele>788.56323</ele>
        <time>2020-02-09T10:03:40Z</time>
      </trkpt>
      <trkpt lat="47.73805" lon="6.67152">
        <ele>790.84924</ele>
        <time>2020-02-09T10:03:50Z</time>
      </trkpt>
      <trkpt lat="47.738" lon="6.67157">
        <ele>791.899</ele>
        <time>2020-02-09T10:04:00Z</time>
      </trkpt>
      <trkpt lat="47.73797" lon="6.67164">
        <ele>792.50726</ele>
        <time>2020-02-09T10:04:05Z</time>
      </trkpt>
      <trkpt lat="47.73794" lon="6.67169">
        <ele>793.70886</ele>
        <time>2020-02-09T10:04:10Z</time>
      </trkpt>
      <trkpt lat="47.73792" lon="6.67179">
        <ele>797.0964</ele>
        <time>2020-02-09T10:04:20Z</time>
      </trkpt>
      <trkpt lat="47.73791" lon="6.67186">
        <ele>795.77264</ele>
        <time>2020-02-09T10:04:25Z</time>
      </trkpt>
      <trkpt lat="47.73788" lon="6.67196">
        <ele>798.96466</ele>
        <time>2020-02-09T10:04:35Z</time>
      </trkpt>
      <trkpt lat="47.73784" lon="6.67206">
        <ele>798.31525</ele>
        <time>2020-02-09T10:04:45Z</time>
      </trkpt>
      <trkpt lat="47.73782" lon="6.67213">
        <ele>802.17804</ele>
        <time>2020-02-09T10:04:50Z</time>
      </trkpt>
      <trkpt lat="47.73779" lon="6.67225">
        <ele>803.4002</ele>
        <time>2020-02-09T10:05:00Z</time>
      </trkpt>
      <trkpt lat="47.73779" lon="6.67236">
        <ele>803.80096</ele>
        <time>2020-02-09T10:05:10Z</time>
      </trkpt>
      <trkpt lat="47.73779" lon="6.67243">
        <ele>806.0696</ele>
        <time>2020-02-09T10:05:15Z</time>
      </trkpt>
      <trkpt lat="47.73777" lon="6.67249">
        <ele>804.4705</ele>
        <time>2020-02-09T10:05:20Z</time>
      </trkpt>
      <trkpt lat="47.73774" lon="6.67255">
        <ele>804.8083</ele>
        <time>2020-02-09T10:05:25Z</time>
      </trkpt>
      <trkpt lat="47.73776" lon="6.67263">
        <ele>804.26965</ele>
        <time>2020-02-09T10:05:35Z</time>
      </trkpt>
      <trkpt lat="47.73779" lon="6.67261">
        <ele>802.20605</ele>
        <time>2020-02-09T10:06:05Z</time>
      </trkpt>
      <trkpt lat="47.73777" lon="6.67262">
        <ele>806.2315</ele>
        <time>2020-02-09T10:06:55Z</time>
      </trkpt>
      <trkpt lat="47.73777" lon="6.67258">
        <ele>805.1661</ele>
        <time>2020-02-09T10:07:20Z</time>
      </trkpt>
      <trkpt lat="47.73779" lon="6.67245">
        <ele>805.16113</ele>
        <time>2020-02-09T10:07:30Z</time>
      </trkpt>
      <trkpt lat="47.73782" lon="6.67235">
        <ele>805.48193</ele>
        <time>2020-02-09T10:07:40Z</time>
      </trkpt>
      <trkpt lat="47.73785" lon="6.67225">
        <ele>805.5359</ele>
        <time>2020-02-09T10:07:50Z</time>
      </trkpt>
      <trkpt lat="47.73788" lon="6.67222">
        <ele>805.0941</ele>
        <time>2020-02-09T10:08:05Z</time>
      </trkpt>
      <trkpt lat="47.73789" lon="6.67223">
        <ele>805.78577</ele>
        <time>2020-02-09T10:08:35Z</time>
      </trkpt>
      <trkpt lat="47.73787" lon="6.67227">
        <ele>802.6877</ele>
        <time>2020-02-09T10:11:00Z</time>
      </trkpt>
      <trkpt lat="47.73785" lon="6.67236">
        <ele>802.89557</ele>
        <time>2020-02-09T10:11:10Z</time>
      </trkpt>
      <trkpt lat="47.7378" lon="6.67245">
        <ele>801.0879</ele>
        <time>2020-02-09T10:11:20Z</time>
      </trkpt>
      <trkpt lat="47.73778" lon="6.67249">
        <ele>803.5391</ele>
        <time>2020-02-09T10:11:30Z</time>
      </trkpt>
      <trkpt lat="47.73776" lon="6.67258">
        <ele>803.9289</ele>
        <time>2020-02-09T10:11:39Z</time>
      </trkpt>
      <trkpt lat="47.73776" lon="6.67264">
        <ele>804.12476</ele>
        <time>2020-02-09T10:11:50Z</time>
      </trkpt>
      <trkpt lat="47.73777" lon="6.67272">
        <ele>803.0245</ele>
        <time>2020-02-09T10:11:55Z</time>
      </trkpt>
      <trkpt lat="47.73777" lon="6.67281">
        <ele>803.9399</ele>
        <time>2020-02-09T10:12:00Z</time>
      </trkpt>
      <trkpt lat="47.73775" lon="6.67291">
        <ele>803.71</ele>
        <time>2020-02-09T10:12:05Z</time>
      </trkpt>
      <trkpt lat="47.73774" lon="6.67305">
        <ele>802.1311</ele>
        <time>2020-02-09T10:12:10Z</time>
      </trkpt>
      <trkpt lat="47.73774" lon="6.67319">
        <ele>803.63007</ele>
        <time>2020-02-09T10:12:15Z</time>
      </trkpt>
      <trkpt lat="47.73777" lon="6.67331">
        <ele>801.97723</ele>
        <time>2020-02-09T10:12:20Z</time>
      </trkpt>
      <trkpt lat="47.73775" lon="6.67344">
        <ele>801.8443</ele>
        <time>2020-02-09T10:12:25Z</time>
      </trkpt>
      <trkpt lat="47.73778" lon="6.67354">
        <ele>802.8176</ele>
        <time>2020-02-09T10:12:30Z</time>
      </trkpt>
      <trkpt lat="47.73784" lon="6.67363">
        <ele>802.5318</ele>
        <time>2020-02-09T10:12:35Z</time>
      </trkpt>
      <trkpt lat="47.73785" lon="6.67379">
        <ele>803.734</ele>
        <time>2020-02-09T10:12:40Z</time>
      </trkpt>
      <trkpt lat="47.73785" lon="6.67394">
        <ele>804.77435</ele>
        <time>2020-02-09T10:12:45Z</time>
      </trkpt>
      <trkpt lat="47.73786" lon="6.67406">
        <ele>804.1138</ele>
        <time>2020-02-09T10:12:50Z</time>
      </trkpt>
      <trkpt lat="47.73786" lon="6.67419">
        <ele>805.306</ele>
        <time>2020-02-09T10:12:55Z</time>
      </trkpt>
      <trkpt lat="47.73786" lon="6.67431">
        <ele>807.106</ele>
        <time>2020-02-09T10:13:00Z</time>
      </trkpt>
      <trkpt lat="47.73787" lon="6.67441">
        <ele>808.83923</ele>
        <time>2020-02-09T10:13:05Z</time>
      </trkpt>
      <trkpt lat="47.73788" lon="6.67451">
        <ele>810.8205</ele>
        <time>2020-02-09T10:13:10Z</time>
      </trkpt>
      <trkpt lat="47.73787" lon="6.67457">
        <ele>811.1794</ele>
        <time>2020-02-09T10:13:15Z</time>
      </trkpt>
      <trkpt lat="47.73787" lon="6.67464">
        <ele>812.2901</ele>
        <time>2020-02-09T10:13:20Z</time>
      </trkpt>
      <trkpt lat="47.73785" lon="6.67473">
        <ele>812.39703</ele>
        <time>2020-02-09T10:13:25Z</time>
      </trkpt>
      <trkpt lat="47.73782" lon="6.67481">
        <ele>811.7252</ele>
        <time>2020-02-09T10:13:30Z</time>
      </trkpt>
      <trkpt lat="47.73781" lon="6.67489">
        <ele>811.64124</ele>
        <time>2020-02-09T10:13:35Z</time>
      </trkpt>
      <trkpt lat="47.7378" lon="6.67499">
        <ele>812.625</ele>
        <time>2020-02-09T10:13:40Z</time>
      </trkpt>
      <trkpt lat="47.7378" lon="6.67511">
        <ele>812.40704</ele>
        <time>2020-02-09T10:13:45Z</time>
      </trkpt>
      <trkpt lat="47.73779" lon="6.67519">
        <ele>814.9945</ele>
        <time>2020-02-09T10:13:50Z</time>
      </trkpt>
      <trkpt lat="47.73779" lon="6.67529">
        <ele>815.77045</ele>
        <time>2020-02-09T10:13:55Z</time>
      </trkpt>
      <trkpt lat="47.73781" lon="6.67538">
        <ele>815.48645</ele>
        <time>2020-02-09T10:14:00Z</time>
      </trkpt>
      <trkpt lat="47.73782" lon="6.67548">
        <ele>817.08136</ele>
        <time>2020-02-09T10:14:05Z</time>
      </trkpt>
      <trkpt lat="47.73782" lon="6.67557">
        <ele>816.6274</ele>
        <time>2020-02-09T10:14:10Z</time>
      </trkpt>
      <trkpt lat="47.73784" lon="6.67568">
        <ele>816.1354</ele>
        <time>2020-02-09T10:14:15Z</time>
      </trkpt>
      <trkpt lat="47.73786" lon="6.67575">
        <ele>816.1104</ele>
        <time>2020-02-09T10:14:25Z</time>
      </trkpt>
      <trkpt lat="47.73788" lon="6.67582">
        <ele>818.5313</ele>
        <time>2020-02-09T10:14:30Z</time>
      </trkpt>
      <trkpt lat="47.73789" lon="6.67588">
        <ele>817.8723</ele>
        <time>2020-02-09T10:14:40Z</time>
      </trkpt>
      <trkpt lat="47.73788" lon="6.67602">
        <ele>817.9083</ele>
        <time>2020-02-09T10:14:45Z</time>
      </trkpt>
      <trkpt lat="47.73789" lon="6.67625">
        <ele>816.86835</ele>
        <time>2020-02-09T10:14:50Z</time>
      </trkpt>
      <trkpt lat="47.73781" lon="6.67677">
        <ele>812.9739</ele>
        <time>2020-02-09T10:14:55Z</time>
      </trkpt>
      <trkpt lat="47.73775" lon="6.67743">
        <ele>807.3969</ele>
        <time>2020-02-09T10:15:00Z</time>
      </trkpt>
      <trkpt lat="47.73771" lon="6.67803">
        <ele>804.6544</ele>
        <time>2020-02-09T10:15:05Z</time>
      </trkpt>
      <trkpt lat="47.73776" lon="6.67853">
        <ele>802.21704</ele>
        <time>2020-02-09T10:15:10Z</time>
      </trkpt>
      <trkpt lat="47.73791" lon="6.67894">
        <ele>796.1303</ele>
        <time>2020-02-09T10:15:15Z</time>
      </trkpt>
      <trkpt lat="47.73795" lon="6.67923">
        <ele>795.13934</ele>
        <time>2020-02-09T10:15:20Z</time>
      </trkpt>
      <trkpt lat="47.73802" lon="6.67944">
        <ele>794.75275</ele>
        <time>2020-02-09T10:15:25Z</time>
      </trkpt>
      <trkpt lat="47.73798" lon="6.67967">
        <ele>794.78467</ele>
        <time>2020-02-09T10:15:30Z</time>
      </trkpt>
      <trkpt lat="47.73798" lon="6.67991">
        <ele>795.29913</ele>
        <time>2020-02-09T10:15:35Z</time>
      </trkpt>
      <trkpt lat="47.738" lon="6.68003">
        <ele>796.411</ele>
        <time>2020-02-09T10:15:40Z</time>
      </trkpt>
      <trkpt lat="47.73801" lon="6.68022">
        <ele>796.5469</ele>
        <time>2020-02-09T10:15:45Z</time>
      </trkpt>
      <trkpt lat="47.73806" lon="6.68041">
        <ele>795.79065</ele>
        <time>2020-02-09T10:15:50Z</time>
      </trkpt>
      <trkpt lat="47.73807" lon="6.68065">
        <ele>794.8416</ele>
        <time>2020-02-09T10:15:55Z</time>
      </trkpt>
      <trkpt lat="47.73809" lon="6.68086">
        <ele>795.7257</ele>
        <time>2020-02-09T10:16:00Z</time>
      </trkpt>
      <trkpt lat="47.73809" lon="6.68106">
        <ele>796.9325</ele>
        <time>2020-02-09T10:16:05Z</time>
      </trkpt>
      <trkpt lat="47.7381" lon="6.68125">
        <ele>797.7967</ele>
        <time>2020-02-09T10:16:10Z</time>
      </trkpt>
      <trkpt lat="47.73808" lon="6.68141">
        <ele>797.52094</ele>
        <time>2020-02-09T10:16:15Z</time>
      </trkpt>
      <trkpt lat="47.73811" lon="6.68155">
        <ele>797.6898</ele>
        <time>2020-02-09T10:16:20Z</time>
      </trkpt>
      <trkpt lat="47.73815" lon="6.68171">
        <ele>797.97455</ele>
        <time>2020-02-09T10:16:25Z</time>
      </trkpt>
      <trkpt lat="47.73817" lon="6.68186">
        <ele>799.761</ele>
        <time>2020-02-09T10:16:30Z</time>
      </trkpt>
      <trkpt lat="47.73818" lon="6.68199">
        <ele>801.1329</ele>
        <time>2020-02-09T10:16:35Z</time>
      </trkpt>
      <trkpt lat="47.73819" lon="6.68212">
        <ele>800.76715</ele>
        <time>2020-02-09T10:16:40Z</time>
      </trkpt>
      <trkpt lat="47.73819" lon="6.68225">
        <ele>800.4574</ele>
        <time>2020-02-09T10:16:45Z</time>
      </trkpt>
      <trkpt lat="47.7382" lon="6.68236">
        <ele>801.52356</ele>
        <time>2020-02-09T10:16:50Z</time>
      </trkpt>
      <trkpt lat="47.73817" lon="6.68251">
        <ele>803.3063</ele>
        <time>2020-02-09T10:16:55Z</time>
      </trkpt>
      <trkpt lat="47.73813" lon="6.68269">
        <ele>802.32794</ele>
        <time>2020-02-09T10:17:00Z</time>
      </trkpt>
      <trkpt lat="47.73812" lon="6.68281">
        <ele>802.53284</ele>
        <time>2020-02-09T10:17:05Z</time>
      </trkpt>
      <trkpt lat="47.73806" lon="6.68297">
        <ele>802.9835</ele>
        <time>2020-02-09T10:17:10Z</time>
      </trkpt>
      <trkpt lat="47.73796" lon="6.68317">
        <ele>802.229</ele>
        <time>2020-02-09T10:17:15Z</time>
      </trkpt>
      <trkpt lat="47.73789" lon="6.68333">
        <ele>802.269</ele>
        <time>2020-02-09T10:17:20Z</time>
      </trkpt>
      <trkpt lat="47.73781" lon="6.68348">
        <ele>801.56055</ele>
        <time>2020-02-09T10:17:25Z</time>
      </trkpt>
      <trkpt lat="47.73774" lon="6.68361">
        <ele>802.4419</ele>
        <time>2020-02-09T10:17:30Z</time>
      </trkpt>
      <trkpt lat="47.73766" lon="6.68376">
        <ele>803.774</ele>
        <time>2020-02-09T10:17:35Z</time>
      </trkpt>
      <trkpt lat="47.73755" lon="6.68391">
        <ele>804.0428</ele>
        <time>2020-02-09T10:17:40Z</time>
      </trkpt>
      <trkpt lat="47.73746" lon="6.68408">
        <ele>802.76465</ele>
        <time>2020-02-09T10:17:45Z</time>
      </trkpt>
      <trkpt lat="47.73739" lon="6.68424">
        <ele>802.45087</ele>
        <time>2020-02-09T10:17:50Z</time>
      </trkpt>
      <trkpt lat="47.73735" lon="6.68439">
        <ele>803.5811</ele>
        <time>2020-02-09T10:17:55Z</time>
      </trkpt>
      <trkpt lat="47.73732" lon="6.68453">
        <ele>805.1641</ele>
        <time>2020-02-09T10:18:00Z</time>
      </trkpt>
      <trkpt lat="47.73729" lon="6.68474">
        <ele>803.2953</ele>
        <time>2020-02-09T10:18:05Z</time>
      </trkpt>
      <trkpt lat="47.73729" lon="6.68487">
        <ele>803.5241</ele>
        <time>2020-02-09T10:18:10Z</time>
      </trkpt>
      <trkpt lat="47.73729" lon="6.68503">
        <ele>806.2695</ele>
        <time>2020-02-09T10:19:15Z</time>
      </trkpt>
      <trkpt lat="47.73733" lon="6.68529">
        <ele>804.7684</ele>
        <time>2020-02-09T10:19:20Z</time>
      </trkpt>
      <trkpt lat="47.73737" lon="6.68564">
        <ele>804.8293</ele>
        <time>2020-02-09T10:19:25Z</time>
      </trkpt>
      <trkpt lat="47.73727" lon="6.68601">
        <ele>803.5601</ele>
        <time>2020-02-09T10:19:30Z</time>
      </trkpt>
      <trkpt lat="47.73723" lon="6.68653">
        <ele>802.04913</ele>
        <time>2020-02-09T10:19:35Z</time>
      </trkpt>
      <trkpt lat="47.73698" lon="6.68686">
        <ele>797.0034</ele>
        <time>2020-02-09T10:19:40Z</time>
      </trkpt>
      <trkpt lat="47.7367" lon="6.68687">
        <ele>795.68176</ele>
        <time>2020-02-09T10:19:45Z</time>
      </trkpt>
      <trkpt lat="47.7364" lon="6.68713">
        <ele>787.96405</ele>
        <time>2020-02-09T10:19:50Z</time>
      </trkpt>
      <trkpt lat="47.73615" lon="6.68723">
        <ele>778.02</ele>
        <time>2020-02-09T10:19:55Z</time>
      </trkpt>
      <trkpt lat="47.7359" lon="6.68741">
        <ele>767.8002</ele>
        <time>2020-02-09T10:20:00Z</time>
      </trkpt>
      <trkpt lat="47.73558" lon="6.68747">
        <ele>766.5561</ele>
        <time>2020-02-09T10:20:05Z</time>
      </trkpt>
      <trkpt lat="47.73531" lon="6.68771">
        <ele>760.5312</ele>
        <time>2020-02-09T10:20:10Z</time>
      </trkpt>
      <trkpt lat="47.73492" lon="6.68773">
        <ele>746.04626</ele>
        <time>2020-02-09T10:20:15Z</time>
      </trkpt>
      <trkpt lat="47.73449" lon="6.68774">
        <ele>744.7546</ele>
        <time>2020-02-09T10:20:20Z</time>
      </trkpt>
      <trkpt lat="47.73419" lon="6.68773">
        <ele>735.9769</ele>
        <time>2020-02-09T10:20:25Z</time>
      </trkpt>
      <trkpt lat="47.73388" lon="6.6878">
        <ele>729.1468</ele>
        <time>2020-02-09T10:20:30Z</time>
      </trkpt>
      <trkpt lat="47.73359" lon="6.6877">
        <ele>727.5325</ele>
        <time>2020-02-09T10:20:35Z</time>
      </trkpt>
      <trkpt lat="47.73332" lon="6.68798">
        <ele>722.75586</ele>
        <time>2020-02-09T10:20:40Z</time>
      </trkpt>
      <trkpt lat="47.73305" lon="6.6883">
        <ele>717.97736</ele>
        <time>2020-02-09T10:20:45Z</time>
      </trkpt>
      <trkpt lat="47.73278" lon="6.68862">
        <ele>714.3712</ele>
        <time>2020-02-09T10:20:50Z</time>
      </trkpt>
      <trkpt lat="47.73246" lon="6.68897">
        <ele>704.0589</ele>
        <time>2020-02-09T10:20:55Z</time>
      </trkpt>
      <trkpt lat="47.7323" lon="6.68881">
        <ele>700.62915</ele>
        <time>2020-02-09T10:21:00Z</time>
      </trkpt>
      <trkpt lat="47.7323" lon="6.68853">
        <ele>695.6805</ele>
        <time>2020-02-09T10:21:05Z</time>
      </trkpt>
      <trkpt lat="47.73233" lon="6.68812">
        <ele>692.0025</ele>
        <time>2020-02-09T10:21:10Z</time>
      </trkpt>
      <trkpt lat="47.73212" lon="6.68747">
        <ele>690.27856</ele>
        <time>2020-02-09T10:21:15Z</time>
      </trkpt>
      <trkpt lat="47.73199" lon="6.68693">
        <ele>687.72577</ele>
        <time>2020-02-09T10:21:20Z</time>
      </trkpt>
      <trkpt lat="47.73196" lon="6.68642">
        <ele>687.69</ele>
        <time>2020-02-09T10:21:25Z</time>
      </trkpt>
      <trkpt lat="47.73194" lon="6.68584">
        <ele>682.61005</ele>
        <time>2020-02-09T10:21:30Z</time>
      </trkpt>
      <trkpt lat="47.7317" lon="6.68528">
        <ele>673.5614</ele>
        <time>2020-02-09T10:21:35Z</time>
      </trkpt>
      <trkpt lat="47.73164" lon="6.68521">
        <ele>671.0761</ele>
        <time>2020-02-09T10:21:40Z</time>
      </trkpt>
      <trkpt lat="47.73159" lon="6.68531">
        <ele>662.64386</ele>
        <time>2020-02-09T10:23:35Z</time>
      </trkpt>
      <trkpt lat="47.73143" lon="6.68562">
        <ele>658.5238</ele>
        <time>2020-02-09T10:23:40Z</time>
      </trkpt>
      <trkpt lat="47.7312" lon="6.68617">
        <ele>655.06256</ele>
        <time>2020-02-09T10:23:45Z</time>
      </trkpt>
      <trkpt lat="47.73103" lon="6.68654">
        <ele>658.04034</ele>
        <time>2020-02-09T10:23:50Z</time>
      </trkpt>
      <trkpt lat="47.73085" lon="6.68675">
        <ele>657.8061</ele>
        <time>2020-02-09T10:23:55Z</time>
      </trkpt>
      <trkpt lat="47.7307" lon="6.68699">
        <ele>658.56055</ele>
        <time>2020-02-09T10:24:00Z</time>
      </trkpt>
      <trkpt lat="47.73053" lon="6.68726">
        <ele>659.01715</ele>
        <time>2020-02-09T10:24:05Z</time>
      </trkpt>
      <trkpt lat="47.73035" lon="6.68763">
        <ele>655.45557</ele>
        <time>2020-02-09T10:24:10Z</time>
      </trkpt>
      <trkpt lat="47.73013" lon="6.68799">
        <ele>655.00793</ele>
        <time>2020-02-09T10:24:15Z</time>
      </trkpt>
      <trkpt lat="47.72992" lon="6.68827">
        <ele>656.10474</ele>
        <time>2020-02-09T10:24:20Z</time>
      </trkpt>
      <trkpt lat="47.72973" lon="6.68848">
        <ele>653.94995</ele>
        <time>2020-02-09T10:24:25Z</time>
      </trkpt>
      <trkpt lat="47.72934" lon="6.68873">
        <ele>652.68353</ele>
        <time>2020-02-09T10:24:30Z</time>
      </trkpt>
      <trkpt lat="47.72897" lon="6.68887">
        <ele>652.0087</ele>
        <time>2020-02-09T10:24:35Z</time>
      </trkpt>
      <trkpt lat="47.72861" lon="6.68865">
        <ele>651.4609</ele>
        <time>2020-02-09T10:24:40Z</time>
      </trkpt>
      <trkpt lat="47.72829" lon="6.68864">
        <ele>648.57526</ele>
        <time>2020-02-09T10:24:45Z</time>
      </trkpt>
      <trkpt lat="47.72797" lon="6.68863">
        <ele>648.097</ele>
        <time>2020-02-09T10:24:50Z</time>
      </trkpt>
      <trkpt lat="47.72754" lon="6.68845">
        <ele>644.8834</ele>
        <time>2020-02-09T10:24:55Z</time>
      </trkpt>
      <trkpt lat="47.72713" lon="6.68847">
        <ele>638.97943</ele>
        <time>2020-02-09T10:25:00Z</time>
      </trkpt>
      <trkpt lat="47.72684" lon="6.68852">
        <ele>635.0988</ele>
        <time>2020-02-09T10:25:05Z</time>
      </trkpt>
      <trkpt lat="47.72677" lon="6.68854">
        <ele>625.4296</ele>
        <time>2020-02-09T10:25:15Z</time>
      </trkpt>
      <trkpt lat="47.72681" lon="6.6887">
        <ele>616.3592</ele>
        <time>2020-02-09T10:27:40Z</time>
      </trkpt>
      <trkpt lat="47.72679" lon="6.68899">
        <ele>616.12244</ele>
        <time>2020-02-09T10:27:45Z</time>
      </trkpt>
      <trkpt lat="47.72675" lon="6.6894">
        <ele>616.4979</ele>
        <time>2020-02-09T10:27:50Z</time>
      </trkpt>
      <trkpt lat="47.72673" lon="6.68979">
        <ele>619.414</ele>
        <time>2020-02-09T10:27:55Z</time>
      </trkpt>
      <trkpt lat="47.7267" lon="6.69014">
        <ele>614.93353</ele>
        <time>2020-02-09T10:28:00Z</time>
      </trkpt>
      <trkpt lat="47.7267" lon="6.69054">
        <ele>615.1188</ele>
        <time>2020-02-09T10:28:05Z</time>
      </trkpt>
      <trkpt lat="47.72667" lon="6.69112">
        <ele>609.7171</ele>
        <time>2020-02-09T10:28:10Z</time>
      </trkpt>
      <trkpt lat="47.72667" lon="6.69167">
        <ele>615.89355</ele>
        <time>2020-02-09T10:28:15Z</time>
      </trkpt>
      <trkpt lat="47.72664" lon="6.69221">
        <ele>611.68726</ele>
        <time>2020-02-09T10:28:20Z</time>
      </trkpt>
      <trkpt lat="47.72646" lon="6.69269">
        <ele>610.18164</ele>
        <time>2020-02-09T10:28:25Z</time>
      </trkpt>
      <trkpt lat="47.72635" lon="6.69317">
        <ele>602.2176</ele>
        <time>2020-02-09T10:28:30Z</time>
      </trkpt>
      <trkpt lat="47.72618" lon="6.69357">
        <ele>609.62103</ele>
        <time>2020-02-09T10:28:35Z</time>
      </trkpt>
      <trkpt lat="47.72606" lon="6.69395">
        <ele>609.6676</ele>
        <time>2020-02-09T10:28:40Z</time>
      </trkpt>
      <trkpt lat="47.72612" lon="6.69432">
        <ele>606.90436</ele>
        <time>2020-02-09T10:28:45Z</time>
      </trkpt>
      <trkpt lat="47.72621" lon="6.69472">
        <ele>610.4669</ele>
        <time>2020-02-09T10:28:50Z</time>
      </trkpt>
      <trkpt lat="47.72619" lon="6.6951">
        <ele>609.00793</ele>
        <time>2020-02-09T10:28:55Z</time>
      </trkpt>
      <trkpt lat="47.72623" lon="6.69554">
        <ele>609.16144</ele>
        <time>2020-02-09T10:29:00Z</time>
      </trkpt>
      <trkpt lat="47.72633" lon="6.69605">
        <ele>603.4939</ele>
        <time>2020-02-09T10:29:05Z</time>
      </trkpt>
      <trkpt lat="47.72648" lon="6.69661">
        <ele>603.4969</ele>
        <time>2020-02-09T10:29:10Z</time>
      </trkpt>
      <trkpt lat="47.72655" lon="6.69712">
        <ele>602.80475</ele>
        <time>2020-02-09T10:29:15Z</time>
      </trkpt>
      <trkpt lat="47.72637" lon="6.69737">
        <ele>601.1334</ele>
        <time>2020-02-09T10:29:20Z</time>
      </trkpt>
      <trkpt lat="47.72601" lon="6.69721">
        <ele>591.97614</ele>
        <time>2020-02-09T10:29:25Z</time>
      </trkpt>
      <trkpt lat="47.72562" lon="6.69705">
        <ele>591.99493</ele>
        <time>2020-02-09T10:29:30Z</time>
      </trkpt>
      <trkpt lat="47.72524" lon="6.69704">
        <ele>577.2323</ele>
        <time>2020-02-09T10:29:35Z</time>
      </trkpt>
      <trkpt lat="47.72488" lon="6.69739">
        <ele>576.5519</ele>
        <time>2020-02-09T10:29:40Z</time>
      </trkpt>
      <trkpt lat="47.72458" lon="6.69761">
        <ele>576.182</ele>
        <time>2020-02-09T10:29:45Z</time>
      </trkpt>
      <trkpt lat="47.72456" lon="6.69774">
        <ele>575.38</ele>
        <time>2020-02-09T10:29:50Z</time>
      </trkpt>
      <trkpt lat="47.72453" lon="6.69784">
        <ele>572.97314</ele>
        <time>2020-02-09T10:29:55Z</time>
      </trkpt>
      <trkpt lat="47.72456" lon="6.69802">
        <ele>571.8766</ele>
        <time>2020-02-09T10:30:35Z</time>
      </trkpt>
      <trkpt lat="47.72456" lon="6.69811">
        <ele>570.7455</ele>
        <time>2020-02-09T10:30:40Z</time>
      </trkpt>
      <trkpt lat="47.72455" lon="6.69821">
        <ele>570.4845</ele>
        <time>2020-02-09T10:30:45Z</time>
      </trkpt>
      <trkpt lat="47.72451" lon="6.69828">
        <ele>570.61304</ele>
        <time>2020-02-09T10:30:50Z</time>
      </trkpt>
      <trkpt lat="47.72446" lon="6.69837">
        <ele>568.5201</ele>
        <time>2020-02-09T10:30:55Z</time>
      </trkpt>
      <trkpt lat="47.72441" lon="6.69845">
        <ele>568.46765</ele>
        <time>2020-02-09T10:31:00Z</time>
      </trkpt>
      <trkpt lat="47.72434" lon="6.69853">
        <ele>568.16815</ele>
        <time>2020-02-09T10:31:05Z</time>
      </trkpt>
      <trkpt lat="47.72426" lon="6.6986">
        <ele>569.4504</ele>
        <time>2020-02-09T10:31:10Z</time>
      </trkpt>
      <trkpt lat="47.72417" lon="6.69867">
        <ele>570.0475</ele>
        <time>2020-02-09T10:31:15Z</time>
      </trkpt>
      <trkpt lat="47.72411" lon="6.69872">
        <ele>571.69763</ele>
        <time>2020-02-09T10:31:20Z</time>
      </trkpt>
      <trkpt lat="47.72403" lon="6.69875">
        <ele>574.1805</ele>
        <time>2020-02-09T10:31:25Z</time>
      </trkpt>
      <trkpt lat="47.72395" lon="6.69881">
        <ele>573.54266</ele>
        <time>2020-02-09T10:31:30Z</time>
      </trkpt>
      <trkpt lat="47.72386" lon="6.69887">
        <ele>573.8522</ele>
        <time>2020-02-09T10:31:35Z</time>
      </trkpt>
      <trkpt lat="47.72379" lon="6.69894">
        <ele>573.5496</ele>
        <time>2020-02-09T10:31:40Z</time>
      </trkpt>
      <trkpt lat="47.72361" lon="6.69904">
        <ele>573.0641</ele>
        <time>2020-02-09T10:31:45Z</time>
      </trkpt>
      <trkpt lat="47.7233" lon="6.69922">
        <ele>572.898</ele>
        <time>2020-02-09T10:31:50Z</time>
      </trkpt>
      <trkpt lat="47.723" lon="6.69951">
        <ele>573.5783</ele>
        <time>2020-02-09T10:31:55Z</time>
      </trkpt>
      <trkpt lat="47.72273" lon="6.70004">
        <ele>575.8438</ele>
        <time>2020-02-09T10:32:00Z</time>
      </trkpt>
      <trkpt lat="47.72253" lon="6.70056">
        <ele>567.2478</ele>
        <time>2020-02-09T10:32:05Z</time>
      </trkpt>
      <trkpt lat="47.72263" lon="6.70115">
        <ele>565.4398</ele>
        <time>2020-02-09T10:32:10Z</time>
      </trkpt>
      <trkpt lat="47.72264" lon="6.70182">
        <ele>562.14954</ele>
        <time>2020-02-09T10:32:15Z</time>
      </trkpt>
      <trkpt lat="47.72252" lon="6.70247">
        <ele>555.1664</ele>
        <time>2020-02-09T10:32:20Z</time>
      </trkpt>
      <trkpt lat="47.72237" lon="6.70302">
        <ele>553.29816</ele>
        <time>2020-02-09T10:32:25Z</time>
      </trkpt>
      <trkpt lat="47.72218" lon="6.70348">
        <ele>544.2737</ele>
        <time>2020-02-09T10:32:30Z</time>
      </trkpt>
      <trkpt lat="47.7221" lon="6.70366">
        <ele>541.5918</ele>
        <time>2020-02-09T10:32:35Z</time>
      </trkpt>
      <trkpt lat="47.72207" lon="6.70371">
        <ele>541.90186</ele>
        <time>2020-02-09T10:32:40Z</time>
      </trkpt>
      <trkpt lat="47.72203" lon="6.70379">
        <ele>540.96686</ele>
        <time>2020-02-09T10:32:45Z</time>
      </trkpt>
      <trkpt lat="47.72197" lon="6.70391">
        <ele>543.07587</ele>
        <time>2020-02-09T10:32:50Z</time>
      </trkpt>
      <trkpt lat="47.72194" lon="6.70398">
        <ele>544.45337</ele>
        <time>2020-02-09T10:33:00Z</time>
      </trkpt>
      <trkpt lat="47.7219" lon="6.70409">
        <ele>546.33264</ele>
        <time>2020-02-09T10:33:10Z</time>
      </trkpt>
      <trkpt lat="47.72186" lon="6.70417">
        <ele>544.90173</ele>
        <time>2020-02-09T10:33:20Z</time>
      </trkpt>
      <trkpt lat="47.72179" lon="6.70426">
        <ele>543.87964</ele>
        <time>2020-02-09T10:33:25Z</time>
      </trkpt>
      <trkpt lat="47.72175" lon="6.70432">
        <ele>544.0712</ele>
        <time>2020-02-09T10:33:30Z</time>
      </trkpt>
      <trkpt lat="47.7217" lon="6.7044">
        <ele>544.3862</ele>
        <time>2020-02-09T10:33:35Z</time>
      </trkpt>
      <trkpt lat="47.72164" lon="6.7045">
        <ele>545.09033</ele>
        <time>2020-02-09T10:33:40Z</time>
      </trkpt>
      <trkpt lat="47.72155" lon="6.70464">
        <ele>547.1079</ele>
        <time>2020-02-09T10:33:45Z</time>
      </trkpt>
      <trkpt lat="47.72144" lon="6.70471">
        <ele>547.76764</ele>
        <time>2020-02-09T10:33:50Z</time>
      </trkpt>
      <trkpt lat="47.72134" lon="6.70471">
        <ele>545.7075</ele>
        <time>2020-02-09T10:33:55Z</time>
      </trkpt>
      <trkpt lat="47.72129" lon="6.70472">
        <ele>545.6374</ele>
        <time>2020-02-09T10:34:00Z</time>
      </trkpt>
      <trkpt lat="47.72124" lon="6.70476">
        <ele>547.00226</ele>
        <time>2020-02-09T10:34:05Z</time>
      </trkpt>
      <trkpt lat="47.72104" lon="6.70483">
        <ele>547.77356</ele>
        <time>2020-02-09T10:35:49Z</time>
      </trkpt>
      <trkpt lat="47.72068" lon="6.7049">
        <ele>545.75494</ele>
        <time>2020-02-09T10:35:55Z</time>
      </trkpt>
      <trkpt lat="47.72025" lon="6.70479">
        <ele>550.16876</ele>
        <time>2020-02-09T10:36:00Z</time>
      </trkpt>
      <trkpt lat="47.71974" lon="6.70474">
        <ele>545.986</ele>
        <time>2020-02-09T10:36:05Z</time>
      </trkpt>
      <trkpt lat="47.71924" lon="6.70488">
        <ele>543.79376</ele>
        <time>2020-02-09T10:36:10Z</time>
      </trkpt>
      <trkpt lat="47.71883" lon="6.70524">
        <ele>539.87885</ele>
        <time>2020-02-09T10:36:15Z</time>
      </trkpt>
      <trkpt lat="47.71853" lon="6.70561">
        <ele>532.64026</ele>
        <time>2020-02-09T10:36:20Z</time>
      </trkpt>
      <trkpt lat="47.7184" lon="6.70594">
        <ele>529.502</ele>
        <time>2020-02-09T10:36:25Z</time>
      </trkpt>
      <trkpt lat="47.71832" lon="6.70612">
        <ele>527.33606</ele>
        <time>2020-02-09T10:36:30Z</time>
      </trkpt>
      <trkpt lat="47.71825" lon="6.70629">
        <ele>525.08057</ele>
        <time>2020-02-09T10:36:35Z</time>
      </trkpt>
      <trkpt lat="47.7182" lon="6.70648">
        <ele>524.0604</ele>
        <time>2020-02-09T10:36:40Z</time>
      </trkpt>
      <trkpt lat="47.71812" lon="6.70675">
        <ele>522.2275</ele>
        <time>2020-02-09T10:36:45Z</time>
      </trkpt>
      <trkpt lat="47.71798" lon="6.70717">
        <ele>523.98346</ele>
        <time>2020-02-09T10:36:50Z</time>
      </trkpt>
      <trkpt lat="47.71782" lon="6.70766">
        <ele>522.24524</ele>
        <time>2020-02-09T10:36:55Z</time>
      </trkpt>
      <trkpt lat="47.71763" lon="6.70813">
        <ele>524.0328</ele>
        <time>2020-02-09T10:37:00Z</time>
      </trkpt>
      <trkpt lat="47.71727" lon="6.70841">
        <ele>528.06525</ele>
        <time>2020-02-09T10:37:05Z</time>
      </trkpt>
      <trkpt lat="47.71714" lon="6.70867">
        <ele>520.7616</ele>
        <time>2020-02-09T10:37:10Z</time>
      </trkpt>
      <trkpt lat="47.71706" lon="6.70901">
        <ele>508.96634</ele>
        <time>2020-02-09T10:37:15Z</time>
      </trkpt>
      <trkpt lat="47.71704" lon="6.70914">
        <ele>499.3513</ele>
        <time>2020-02-09T10:37:20Z</time>
      </trkpt>
      <trkpt lat="47.71708" lon="6.7092">
        <ele>499.7218</ele>
        <time>2020-02-09T10:37:50Z</time>
      </trkpt>
      <trkpt lat="47.71729" lon="6.70916">
        <ele>497.4268</ele>
        <time>2020-02-09T10:37:55Z</time>
      </trkpt>
      <trkpt lat="47.71745" lon="6.7094">
        <ele>496.1311</ele>
        <time>2020-02-09T10:38:00Z</time>
      </trkpt>
      <trkpt lat="47.71758" lon="6.70958">
        <ele>496.2385</ele>
        <time>2020-02-09T10:38:05Z</time>
      </trkpt>
      <trkpt lat="47.71768" lon="6.70977">
        <ele>498.5196</ele>
        <time>2020-02-09T10:38:10Z</time>
      </trkpt>
      <trkpt lat="47.71777" lon="6.70994">
        <ele>499.64493</ele>
        <time>2020-02-09T10:38:15Z</time>
      </trkpt>
      <trkpt lat="47.71784" lon="6.71004">
        <ele>499.77008</ele>
        <time>2020-02-09T10:38:20Z</time>
      </trkpt>
      <trkpt lat="47.71792" lon="6.71011">
        <ele>501.3991</ele>
        <time>2020-02-09T10:38:25Z</time>
      </trkpt>
      <trkpt lat="47.71798" lon="6.71013">
        <ele>503.3831</ele>
        <time>2020-02-09T10:38:30Z</time>
      </trkpt>
      <trkpt lat="47.71803" lon="6.71017">
        <ele>502.5601</ele>
        <time>2020-02-09T10:38:40Z</time>
      </trkpt>
      <trkpt lat="47.71809" lon="6.71021">
        <ele>502.74243</ele>
        <time>2020-02-09T10:38:45Z</time>
      </trkpt>
      <trkpt lat="47.71815" lon="6.71025">
        <ele>502.63104</ele>
        <time>2020-02-09T10:38:50Z</time>
      </trkpt>
      <trkpt lat="47.7182" lon="6.71029">
        <ele>502.86465</ele>
        <time>2020-02-09T10:38:55Z</time>
      </trkpt>
      <trkpt lat="47.71828" lon="6.71031">
        <ele>503.73593</ele>
        <time>2020-02-09T10:39:00Z</time>
      </trkpt>
      <trkpt lat="47.71837" lon="6.71032">
        <ele>504.4377</ele>
        <time>2020-02-09T10:39:05Z</time>
      </trkpt>
      <trkpt lat="47.71845" lon="6.71037">
        <ele>505.40073</ele>
        <time>2020-02-09T10:39:10Z</time>
      </trkpt>
      <trkpt lat="47.71854" lon="6.71044">
        <ele>505.00055</ele>
        <time>2020-02-09T10:39:15Z</time>
      </trkpt>
      <trkpt lat="47.71865" lon="6.7105">
        <ele>506.9927</ele>
        <time>2020-02-09T10:39:20Z</time>
      </trkpt>
      <trkpt lat="47.71877" lon="6.71058">
        <ele>505.70828</ele>
        <time>2020-02-09T10:39:25Z</time>
      </trkpt>
      <trkpt lat="47.7189" lon="6.71065">
        <ele>523.42804</ele>
        <time>2020-02-09T10:39:30Z</time>
      </trkpt>
      <trkpt lat="47.71911" lon="6.71074">
        <ele>512.503</ele>
        <time>2020-02-09T10:39:35Z</time>
      </trkpt>
      <trkpt lat="47.7193" lon="6.71096">
        <ele>498.00128</ele>
        <time>2020-02-09T10:39:40Z</time>
      </trkpt>
      <trkpt lat="47.7195" lon="6.71127">
        <ele>503.66202</ele>
        <time>2020-02-09T10:39:45Z</time>
      </trkpt>
      <trkpt lat="47.7197" lon="6.71159">
        <ele>505.312</ele>
        <time>2020-02-09T10:39:50Z</time>
      </trkpt>
      <trkpt lat="47.71986" lon="6.71196">
        <ele>502.48914</ele>
        <time>2020-02-09T10:39:55Z</time>
      </trkpt>
      <trkpt lat="47.71993" lon="6.71248">
        <ele>497.18637</ele>
        <time>2020-02-09T10:40:00Z</time>
      </trkpt>
      <trkpt lat="47.71995" lon="6.71304">
        <ele>487.13925</ele>
        <time>2020-02-09T10:40:05Z</time>
      </trkpt>
      <trkpt lat="47.71991" lon="6.71357">
        <ele>495.31726</ele>
        <time>2020-02-09T10:40:10Z</time>
      </trkpt>
      <trkpt lat="47.71987" lon="6.71405">
        <ele>502.7503</ele>
        <time>2020-02-09T10:40:15Z</time>
      </trkpt>
      <trkpt lat="47.71975" lon="6.71456">
        <ele>497.4071</ele>
        <time>2020-02-09T10:40:20Z</time>
      </trkpt>
      <trkpt lat="47.71957" lon="6.71508">
        <ele>496.65924</ele>
        <time>2020-02-09T10:40:25Z</time>
      </trkpt>
      <trkpt lat="47.71945" lon="6.71563">
        <ele>494.3153</ele>
        <time>2020-02-09T10:40:30Z</time>
      </trkpt>
      <trkpt lat="47.71938" lon="6.71625">
        <ele>489.36813</ele>
        <time>2020-02-09T10:40:35Z</time>
      </trkpt>
      <trkpt lat="47.71951" lon="6.7169">
        <ele>489.64294</ele>
        <time>2020-02-09T10:40:40Z</time>
      </trkpt>
      <trkpt lat="47.7198" lon="6.71721">
        <ele>489.0234</ele>
        <time>2020-02-09T10:40:45Z</time>
      </trkpt>
      <trkpt lat="47.71984" lon="6.71721">
        <ele>482.66147</ele>
        <time>2020-02-09T10:40:50Z</time>
      </trkpt>
      <trkpt lat="47.71995" lon="6.71717">
        <ele>474.75494</ele>
        <time>2020-02-09T10:41:00Z</time>
      </trkpt>
      <trkpt lat="47.72005" lon="6.71712">
        <ele>475.50797</ele>
        <time>2020-02-09T10:41:05Z</time>
      </trkpt>
      <trkpt lat="47.72036" lon="6.71683">
        <ele>472.2028</ele>
        <time>2020-02-09T10:41:10Z</time>
      </trkpt>
      <trkpt lat="47.72068" lon="6.71654">
        <ele>475.4115</ele>
        <time>2020-02-09T10:41:15Z</time>
      </trkpt>
      <trkpt lat="47.72087" lon="6.7164">
        <ele>471.91833</ele>
        <time>2020-02-09T10:41:20Z</time>
      </trkpt>
      <trkpt lat="47.72089" lon="6.71676">
        <ele>453.06165</ele>
        <time>2020-02-09T10:43:10Z</time>
      </trkpt>
      <trkpt lat="47.72084" lon="6.71693">
        <ele>452.60342</ele>
        <time>2020-02-09T10:43:15Z</time>
      </trkpt>
      <trkpt lat="47.72078" lon="6.71706">
        <ele>452.70078</ele>
        <time>2020-02-09T10:43:20Z</time>
      </trkpt>
      <trkpt lat="47.72077" lon="6.71719">
        <ele>450.05286</ele>
        <time>2020-02-09T10:44:50Z</time>
      </trkpt>
      <trkpt lat="47.72089" lon="6.7174">
        <ele>450.1561</ele>
        <time>2020-02-09T10:44:55Z</time>
      </trkpt>
      <trkpt lat="47.7209" lon="6.71748">
        <ele>447.00616</ele>
        <time>2020-02-09T10:45:05Z</time>
      </trkpt>
      <trkpt lat="47.72095" lon="6.71759">
        <ele>443.207</ele>
        <time>2020-02-09T10:45:15Z</time>
      </trkpt>
      <trkpt lat="47.72096" lon="6.71763">
        <ele>443.88223</ele>
        <time>2020-02-09T10:45:25Z</time>
      </trkpt>
      <trkpt lat="47.72097" lon="6.7178">
        <ele>443.07333</ele>
        <time>2020-02-09T10:45:30Z</time>
      </trkpt>
      <trkpt lat="47.72102" lon="6.71791">
        <ele>440.67032</ele>
        <time>2020-02-09T10:45:35Z</time>
      </trkpt>
      <trkpt lat="47.72104" lon="6.71802">
        <ele>441.0703</ele>
        <time>2020-02-09T10:45:40Z</time>
      </trkpt>
      <trkpt lat="47.7209" lon="6.71816">
        <ele>438.6528</ele>
        <time>2020-02-09T10:45:45Z</time>
      </trkpt>
      <trkpt lat="47.72071" lon="6.71836">
        <ele>437.8922</ele>
        <time>2020-02-09T10:45:50Z</time>
      </trkpt>
      <trkpt lat="47.72054" lon="6.71856">
        <ele>437.15622</ele>
        <time>2020-02-09T10:45:55Z</time>
      </trkpt>
      <trkpt lat="47.72038" lon="6.71877">
        <ele>437.00394</ele>
        <time>2020-02-09T10:46:00Z</time>
      </trkpt>
      <trkpt lat="47.72023" lon="6.71901">
        <ele>436.66592</ele>
        <time>2020-02-09T10:46:05Z</time>
      </trkpt>
      <trkpt lat="47.72012" lon="6.71922">
        <ele>437.36258</ele>
        <time>2020-02-09T10:46:10Z</time>
      </trkpt>
      <trkpt lat="47.72004" lon="6.71938">
        <ele>437.09827</ele>
        <time>2020-02-09T10:46:15Z</time>
      </trkpt>
      <trkpt lat="47.71993" lon="6.71955">
        <ele>438.018</ele>
        <time>2020-02-09T10:46:20Z</time>
      </trkpt>
      <trkpt lat="47.71978" lon="6.71964">
        <ele>438.4769</ele>
        <time>2020-02-09T10:46:25Z</time>
      </trkpt>
      <trkpt lat="47.71962" lon="6.71981">
        <ele>437.99738</ele>
        <time>2020-02-09T10:46:30Z</time>
      </trkpt>
      <trkpt lat="47.71941" lon="6.71998">
        <ele>437.56598</ele>
        <time>2020-02-09T10:46:35Z</time>
      </trkpt>
      <trkpt lat="47.71919" lon="6.72013">
        <ele>437.509</ele>
        <time>2020-02-09T10:46:40Z</time>
      </trkpt>
      <trkpt lat="47.71903" lon="6.72018">
        <ele>438.1762</ele>
        <time>2020-02-09T10:46:45Z</time>
      </trkpt>
      <trkpt lat="47.71882" lon="6.72023">
        <ele>440.55435</ele>
        <time>2020-02-09T10:46:50Z</time>
      </trkpt>
      <trkpt lat="47.71861" lon="6.72031">
        <ele>438.84836</ele>
        <time>2020-02-09T10:46:55Z</time>
      </trkpt>
      <trkpt lat="47.71843" lon="6.72045">
        <ele>438.18896</ele>
        <time>2020-02-09T10:47:00Z</time>
      </trkpt>
      <trkpt lat="47.71824" lon="6.72065">
        <ele>437.83325</ele>
        <time>2020-02-09T10:47:05Z</time>
      </trkpt>
      <trkpt lat="47.71808" lon="6.72082">
        <ele>443.90582</ele>
        <time>2020-02-09T10:47:10Z</time>
      </trkpt>
      <trkpt lat="47.7179" lon="6.721">
        <ele>435.6293</ele>
        <time>2020-02-09T10:47:15Z</time>
      </trkpt>
      <trkpt lat="47.71773" lon="6.72124">
        <ele>434.11526</ele>
        <time>2020-02-09T10:47:20Z</time>
      </trkpt>
      <trkpt lat="47.71756" lon="6.72148">
        <ele>439.71313</ele>
        <time>2020-02-09T10:47:25Z</time>
      </trkpt>
      <trkpt lat="47.71742" lon="6.72184">
        <ele>437.60922</ele>
        <time>2020-02-09T10:47:30Z</time>
      </trkpt>
      <trkpt lat="47.71725" lon="6.72219">
        <ele>437.29578</ele>
        <time>2020-02-09T10:47:35Z</time>
      </trkpt>
      <trkpt lat="47.71706" lon="6.72249">
        <ele>435.5792</ele>
        <time>2020-02-09T10:47:40Z</time>
      </trkpt>
      <trkpt lat="47.7167" lon="6.7228">
        <ele>435.64896</ele>
        <time>2020-02-09T10:47:45Z</time>
      </trkpt>
      <trkpt lat="47.71638" lon="6.72306">
        <ele>431.98343</ele>
        <time>2020-02-09T10:47:50Z</time>
      </trkpt>
      <trkpt lat="47.71615" lon="6.72338">
        <ele>431.84686</ele>
        <time>2020-02-09T10:47:55Z</time>
      </trkpt>
      <trkpt lat="47.716" lon="6.72377">
        <ele>429.5807</ele>
        <time>2020-02-09T10:48:00Z</time>
      </trkpt>
      <trkpt lat="47.71584" lon="6.72414">
        <ele>429.2359</ele>
        <time>2020-02-09T10:48:05Z</time>
      </trkpt>
      <trkpt lat="47.71567" lon="6.72449">
        <ele>429.1249</ele>
        <time>2020-02-09T10:48:10Z</time>
      </trkpt>
      <trkpt lat="47.7155" lon="6.72482">
        <ele>428.7831</ele>
        <time>2020-02-09T10:48:15Z</time>
      </trkpt>
      <trkpt lat="47.71529" lon="6.7251">
        <ele>429.27716</ele>
        <time>2020-02-09T10:48:20Z</time>
      </trkpt>
      <trkpt lat="47.71506" lon="6.72528">
        <ele>430.56985</ele>
        <time>2020-02-09T10:48:25Z</time>
      </trkpt>
      <trkpt lat="47.71477" lon="6.72546">
        <ele>429.80954</ele>
        <time>2020-02-09T10:48:30Z</time>
      </trkpt>
      <trkpt lat="47.71447" lon="6.72562">
        <ele>428.78998</ele>
        <time>2020-02-09T10:48:35Z</time>
      </trkpt>
      <trkpt lat="47.71418" lon="6.72586">
        <ele>427.89127</ele>
        <time>2020-02-09T10:48:40Z</time>
      </trkpt>
      <trkpt lat="47.71393" lon="6.72612">
        <ele>427.55435</ele>
        <time>2020-02-09T10:48:45Z</time>
      </trkpt>
      <trkpt lat="47.71374" lon="6.72636">
        <ele>427.67712</ele>
        <time>2020-02-09T10:48:50Z</time>
      </trkpt>
      <trkpt lat="47.71353" lon="6.72652">
        <ele>427.2774</ele>
        <time>2020-02-09T10:48:55Z</time>
      </trkpt>
      <trkpt lat="47.7133" lon="6.72665">
        <ele>427.49054</ele>
        <time>2020-02-09T10:49:00Z</time>
      </trkpt>
      <trkpt lat="47.71307" lon="6.72686">
        <ele>426.12436</ele>
        <time>2020-02-09T10:49:05Z</time>
      </trkpt>
      <trkpt lat="47.71287" lon="6.72711">
        <ele>427.03873</ele>
        <time>2020-02-09T10:49:10Z</time>
      </trkpt>
      <trkpt lat="47.71263" lon="6.72737">
        <ele>428.43442</ele>
        <time>2020-02-09T10:49:15Z</time>
      </trkpt>
      <trkpt lat="47.71245" lon="6.72768">
        <ele>430.41168</ele>
        <time>2020-02-09T10:49:20Z</time>
      </trkpt>
      <trkpt lat="47.71231" lon="6.728">
        <ele>429.23984</ele>
        <time>2020-02-09T10:49:25Z</time>
      </trkpt>
      <trkpt lat="47.71214" lon="6.72821">
        <ele>427.56027</ele>
        <time>2020-02-09T10:49:30Z</time>
      </trkpt>
      <trkpt lat="47.71195" lon="6.72836">
        <ele>428.8273</ele>
        <time>2020-02-09T10:49:35Z</time>
      </trkpt>
      <trkpt lat="47.7118" lon="6.72846">
        <ele>427.42963</ele>
        <time>2020-02-09T10:49:40Z</time>
      </trkpt>
      <trkpt lat="47.71161" lon="6.72859">
        <ele>427.7999</ele>
        <time>2020-02-09T10:49:45Z</time>
      </trkpt>
      <trkpt lat="47.71138" lon="6.72863">
        <ele>429.33316</ele>
        <time>2020-02-09T10:49:50Z</time>
      </trkpt>
      <trkpt lat="47.71114" lon="6.72851">
        <ele>429.69952</ele>
        <time>2020-02-09T10:49:55Z</time>
      </trkpt>
      <trkpt lat="47.71095" lon="6.72816">
        <ele>428.94223</ele>
        <time>2020-02-09T10:50:00Z</time>
      </trkpt>
      <trkpt lat="47.71079" lon="6.72785">
        <ele>428.513</ele>
        <time>2020-02-09T10:50:05Z</time>
      </trkpt>
      <trkpt lat="47.71064" lon="6.72757">
        <ele>427.6791</ele>
        <time>2020-02-09T10:50:10Z</time>
      </trkpt>
      <trkpt lat="47.71053" lon="6.72727">
        <ele>427.37756</ele>
        <time>2020-02-09T10:50:15Z</time>
      </trkpt>
      <trkpt lat="47.7104" lon="6.72699">
        <ele>427.30685</ele>
        <time>2020-02-09T10:50:20Z</time>
      </trkpt>
      <trkpt lat="47.71025" lon="6.72676">
        <ele>431.83508</ele>
        <time>2020-02-09T10:50:25Z</time>
      </trkpt>
      <trkpt lat="47.71012" lon="6.72652">
        <ele>429.88617</ele>
        <time>2020-02-09T10:50:30Z</time>
      </trkpt>
      <trkpt lat="47.70998" lon="6.72629">
        <ele>427.14383</ele>
        <time>2020-02-09T10:50:35Z</time>
      </trkpt>
      <trkpt lat="47.70987" lon="6.72607">
        <ele>427.59268</ele>
        <time>2020-02-09T10:50:40Z</time>
      </trkpt>
      <trkpt lat="47.70972" lon="6.72592">
        <ele>426.00357</ele>
        <time>2020-02-09T10:50:45Z</time>
      </trkpt>
      <trkpt lat="47.70955" lon="6.72574">
        <ele>424.92722</ele>
        <time>2020-02-09T10:50:50Z</time>
      </trkpt>
      <trkpt lat="47.7094" lon="6.72555">
        <ele>425.2012</ele>
        <time>2020-02-09T10:50:55Z</time>
      </trkpt>
      <trkpt lat="47.70926" lon="6.72549">
        <ele>424.83588</ele>
        <time>2020-02-09T10:51:00Z</time>
      </trkpt>
      <trkpt lat="47.70915" lon="6.72573">
        <ele>424.447</ele>
        <time>2020-02-09T10:51:05Z</time>
      </trkpt>
      <trkpt lat="47.70904" lon="6.72596">
        <ele>425.29843</ele>
        <time>2020-02-09T10:51:10Z</time>
      </trkpt>
      <trkpt lat="47.70892" lon="6.72617">
        <ele>424.83786</ele>
        <time>2020-02-09T10:51:15Z</time>
      </trkpt>
      <trkpt lat="47.70879" lon="6.72638">
        <ele>425.58716</ele>
        <time>2020-02-09T10:51:20Z</time>
      </trkpt>
      <trkpt lat="47.70868" lon="6.72658">
        <ele>425.83368</ele>
        <time>2020-02-09T10:51:25Z</time>
      </trkpt>
      <trkpt lat="47.70853" lon="6.72674">
        <ele>424.33112</ele>
        <time>2020-02-09T10:51:30Z</time>
      </trkpt>
      <trkpt lat="47.70847" lon="6.72704">
        <ele>425.13443</ele>
        <time>2020-02-09T10:51:35Z</time>
      </trkpt>
      <trkpt lat="47.70835" lon="6.72736">
        <ele>424.30264</ele>
        <time>2020-02-09T10:51:40Z</time>
      </trkpt>
      <trkpt lat="47.70819" lon="6.72766">
        <ele>424.6454</ele>
        <time>2020-02-09T10:51:45Z</time>
      </trkpt>
      <trkpt lat="47.70803" lon="6.72798">
        <ele>423.94617</ele>
        <time>2020-02-09T10:51:50Z</time>
      </trkpt>
      <trkpt lat="47.70789" lon="6.72826">
        <ele>423.7645</ele>
        <time>2020-02-09T10:51:55Z</time>
      </trkpt>
      <trkpt lat="47.70772" lon="6.72856">
        <ele>422.10892</ele>
        <time>2020-02-09T10:52:00Z</time>
      </trkpt>
      <trkpt lat="47.70754" lon="6.72888">
        <ele>421.9361</ele>
        <time>2020-02-09T10:52:05Z</time>
      </trkpt>
      <trkpt lat="47.70738" lon="6.72912">
        <ele>421.49033</ele>
        <time>2020-02-09T10:52:10Z</time>
      </trkpt>
      <trkpt lat="47.70722" lon="6.72926">
        <ele>420.966</ele>
        <time>2020-02-09T10:52:15Z</time>
      </trkpt>
      <trkpt lat="47.70702" lon="6.72939">
        <ele>420.93948</ele>
        <time>2020-02-09T10:52:20Z</time>
      </trkpt>
      <trkpt lat="47.70686" lon="6.7295">
        <ele>421.11328</ele>
        <time>2020-02-09T10:52:25Z</time>
      </trkpt>
      <trkpt lat="47.70675" lon="6.72958">
        <ele>422.06964</ele>
        <time>2020-02-09T10:52:30Z</time>
      </trkpt>
      <trkpt lat="47.70679" lon="6.72966">
        <ele>420.51138</ele>
        <time>2020-02-09T10:52:35Z</time>
      </trkpt>
      <trkpt lat="47.70672" lon="6.72966">
        <ele>420.15695</ele>
        <time>2020-02-09T10:54:40Z</time>
      </trkpt>
      <trkpt lat="47.70662" lon="6.72971">
        <ele>420.86584</ele>
        <time>2020-02-09T10:54:45Z</time>
      </trkpt>
      <trkpt lat="47.70648" lon="6.72985">
        <ele>419.41077</ele>
        <time>2020-02-09T10:54:50Z</time>
      </trkpt>
      <trkpt lat="47.70631" lon="6.73001">
        <ele>418.72546</ele>
        <time>2020-02-09T10:54:55Z</time>
      </trkpt>
      <trkpt lat="47.70609" lon="6.73019">
        <ele>418.34064</ele>
        <time>2020-02-09T10:55:00Z</time>
      </trkpt>
      <trkpt lat="47.70584" lon="6.73035">
        <ele>420.41025</ele>
        <time>2020-02-09T10:55:05Z</time>
      </trkpt>
      <trkpt lat="47.7056" lon="6.73043">
        <ele>421.17612</ele>
        <time>2020-02-09T10:55:10Z</time>
      </trkpt>
      <trkpt lat="47.70539" lon="6.73045">
        <ele>422.37894</ele>
        <time>2020-02-09T10:55:15Z</time>
      </trkpt>
      <trkpt lat="47.7052" lon="6.73048">
        <ele>422.97205</ele>
        <time>2020-02-09T10:55:20Z</time>
      </trkpt>
      <trkpt lat="47.705" lon="6.73045">
        <ele>423.11835</ele>
        <time>2020-02-09T10:55:25Z</time>
      </trkpt>
      <trkpt lat="47.70485" lon="6.73023">
        <ele>422.9976</ele>
        <time>2020-02-09T10:55:30Z</time>
      </trkpt>
      <trkpt lat="47.70463" lon="6.73003">
        <ele>422.86697</ele>
        <time>2020-02-09T10:55:35Z</time>
      </trkpt>
      <trkpt lat="47.70441" lon="6.72985">
        <ele>422.87778</ele>
        <time>2020-02-09T10:55:40Z</time>
      </trkpt>
      <trkpt lat="47.70417" lon="6.7298">
        <ele>423.46204</ele>
        <time>2020-02-09T10:55:45Z</time>
      </trkpt>
      <trkpt lat="47.70393" lon="6.72988">
        <ele>423.37857</ele>
        <time>2020-02-09T10:55:50Z</time>
      </trkpt>
      <trkpt lat="47.70373" lon="6.73007">
        <ele>423.67908</ele>
        <time>2020-02-09T10:55:55Z</time>
      </trkpt>
      <trkpt lat="47.70358" lon="6.73036">
        <ele>423.46304</ele>
        <time>2020-02-09T10:56:00Z</time>
      </trkpt>
      <trkpt lat="47.70343" lon="6.7307">
        <ele>422.63916</ele>
        <time>2020-02-09T10:56:05Z</time>
      </trkpt>
      <trkpt lat="47.70326" lon="6.73104">
        <ele>422.58615</ele>
        <time>2020-02-09T10:56:10Z</time>
      </trkpt>
      <trkpt lat="47.7031" lon="6.73137">
        <ele>422.85812</ele>
        <time>2020-02-09T10:56:15Z</time>
      </trkpt>
      <trkpt lat="47.70296" lon="6.7317">
        <ele>422.86404</ele>
        <time>2020-02-09T10:56:20Z</time>
      </trkpt>
      <trkpt lat="47.70281" lon="6.73204">
        <ele>422.87973</ele>
        <time>2020-02-09T10:56:25Z</time>
      </trkpt>
      <trkpt lat="47.70266" lon="6.73236">
        <ele>423.0948</ele>
        <time>2020-02-09T10:56:30Z</time>
      </trkpt>
      <trkpt lat="47.7025" lon="6.73263">
        <ele>423.52783</ele>
        <time>2020-02-09T10:56:35Z</time>
      </trkpt>
      <trkpt lat="47.70227" lon="6.73284">
        <ele>424.011</ele>
        <time>2020-02-09T10:56:40Z</time>
      </trkpt>
      <trkpt lat="47.70196" lon="6.73287">
        <ele>424.47647</ele>
        <time>2020-02-09T10:56:45Z</time>
      </trkpt>
      <trkpt lat="47.70169" lon="6.73276">
        <ele>425.14328</ele>
        <time>2020-02-09T10:56:50Z</time>
      </trkpt>
      <trkpt lat="47.70145" lon="6.73253">
        <ele>425.67654</ele>
        <time>2020-02-09T10:56:55Z</time>
      </trkpt>
      <trkpt lat="47.70128" lon="6.73222">
        <ele>425.4821</ele>
        <time>2020-02-09T10:57:00Z</time>
      </trkpt>
      <trkpt lat="47.70122" lon="6.73187">
        <ele>426.4298</ele>
        <time>2020-02-09T10:57:05Z</time>
      </trkpt>
      <trkpt lat="47.7012" lon="6.73153">
        <ele>427.40607</ele>
        <time>2020-02-09T10:57:10Z</time>
      </trkpt>
      <trkpt lat="47.70121" lon="6.73115">
        <ele>426.2226</ele>
        <time>2020-02-09T10:57:15Z</time>
      </trkpt>
      <trkpt lat="47.7012" lon="6.73078">
        <ele>426.7539</ele>
        <time>2020-02-09T10:57:20Z</time>
      </trkpt>
      <trkpt lat="47.70119" lon="6.73042">
        <ele>427.3098</ele>
        <time>2020-02-09T10:57:25Z</time>
      </trkpt>
      <trkpt lat="47.70118" lon="6.73005">
        <ele>428.66327</ele>
        <time>2020-02-09T10:57:30Z</time>
      </trkpt>
      <trkpt lat="47.70119" lon="6.72971">
        <ele>427.63687</ele>
        <time>2020-02-09T10:57:35Z</time>
      </trkpt>
      <trkpt lat="47.70118" lon="6.72934">
        <ele>426.48874</ele>
        <time>2020-02-09T10:57:40Z</time>
      </trkpt>
      <trkpt lat="47.70119" lon="6.729">
        <ele>426.56042</ele>
        <time>2020-02-09T10:57:45Z</time>
      </trkpt>
      <trkpt lat="47.70121" lon="6.72867">
        <ele>426.0959</ele>
        <time>2020-02-09T10:57:50Z</time>
      </trkpt>
      <trkpt lat="47.70121" lon="6.72836">
        <ele>426.13126</ele>
        <time>2020-02-09T10:57:55Z</time>
      </trkpt>
      <trkpt lat="47.70121" lon="6.72803">
        <ele>426.4406</ele>
        <time>2020-02-09T10:58:00Z</time>
      </trkpt>
      <trkpt lat="47.70115" lon="6.72766">
        <ele>427.41687</ele>
        <time>2020-02-09T10:58:05Z</time>
      </trkpt>
      <trkpt lat="47.70108" lon="6.72734">
        <ele>427.023</ele>
        <time>2020-02-09T10:58:10Z</time>
      </trkpt>
      <trkpt lat="47.70098" lon="6.72701">
        <ele>428.16626</ele>
        <time>2020-02-09T10:58:15Z</time>
      </trkpt>
      <trkpt lat="47.70088" lon="6.72667">
        <ele>427.12616</ele>
        <time>2020-02-09T10:58:20Z</time>
      </trkpt>
      <trkpt lat="47.70081" lon="6.72634">
        <ele>426.75293</ele>
        <time>2020-02-09T10:58:25Z</time>
      </trkpt>
      <trkpt lat="47.70068" lon="6.72603">
        <ele>426.7431</ele>
        <time>2020-02-09T10:58:30Z</time>
      </trkpt>
      <trkpt lat="47.70052" lon="6.72574">
        <ele>426.2766</ele>
        <time>2020-02-09T10:58:35Z</time>
      </trkpt>
      <trkpt lat="47.70032" lon="6.72549">
        <ele>426.3041</ele>
        <time>2020-02-09T10:58:40Z</time>
      </trkpt>
      <trkpt lat="47.70012" lon="6.72526">
        <ele>427.39035</ele>
        <time>2020-02-09T10:58:45Z</time>
      </trkpt>
      <trkpt lat="47.69991" lon="6.72503">
        <ele>427.26953</ele>
        <time>2020-02-09T10:58:50Z</time>
      </trkpt>
      <trkpt lat="47.69973" lon="6.72479">
        <ele>426.95526</ele>
        <time>2020-02-09T10:58:55Z</time>
      </trkpt>
      <trkpt lat="47.69958" lon="6.72453">
        <ele>426.94052</ele>
        <time>2020-02-09T10:59:00Z</time>
      </trkpt>
      <trkpt lat="47.69942" lon="6.72426">
        <ele>426.11258</ele>
        <time>2020-02-09T10:59:05Z</time>
      </trkpt>
      <trkpt lat="47.69923" lon="6.72399">
        <ele>426.89926</ele>
        <time>2020-02-09T10:59:10Z</time>
      </trkpt>
      <trkpt lat="47.69906" lon="6.72374">
        <ele>426.4809</ele>
        <time>2020-02-09T10:59:15Z</time>
      </trkpt>
      <trkpt lat="47.69888" lon="6.72347">
        <ele>426.00555</ele>
        <time>2020-02-09T10:59:20Z</time>
      </trkpt>
      <trkpt lat="47.69867" lon="6.72322">
        <ele>426.5133</ele>
        <time>2020-02-09T10:59:25Z</time>
      </trkpt>
      <trkpt lat="47.69845" lon="6.72305">
        <ele>427.0741</ele>
        <time>2020-02-09T10:59:30Z</time>
      </trkpt>
      <trkpt lat="47.69822" lon="6.72297">
        <ele>426.24615</ele>
        <time>2020-02-09T10:59:35Z</time>
      </trkpt>
      <trkpt lat="47.698" lon="6.72292">
        <ele>425.68146</ele>
        <time>2020-02-09T10:59:40Z</time>
      </trkpt>
      <trkpt lat="47.69781" lon="6.72292">
        <ele>424.96158</ele>
        <time>2020-02-09T10:59:45Z</time>
      </trkpt>
      <trkpt lat="47.69753" lon="6.72308">
        <ele>424.73767</ele>
        <time>2020-02-09T10:59:50Z</time>
      </trkpt>
      <trkpt lat="47.69727" lon="6.7232">
        <ele>426.11258</ele>
        <time>2020-02-09T10:59:55Z</time>
      </trkpt>
      <trkpt lat="47.697" lon="6.72334">
        <ele>426.01535</ele>
        <time>2020-02-09T11:00:00Z</time>
      </trkpt>
      <trkpt lat="47.6968" lon="6.72344">
        <ele>426.31</ele>
        <time>2020-02-09T11:00:05Z</time>
      </trkpt>
      <trkpt lat="47.69663" lon="6.72351">
        <ele>426.1666</ele>
        <time>2020-02-09T11:00:10Z</time>
      </trkpt>
      <trkpt lat="47.69657" lon="6.72354">
        <ele>426.4917</ele>
        <time>2020-02-09T11:00:15Z</time>
      </trkpt>
      <trkpt lat="47.69644" lon="6.72346">
        <ele>427.98752</ele>
        <time>2020-02-09T11:00:20Z</time>
      </trkpt>
      <trkpt lat="47.6963" lon="6.7234">
        <ele>425.75903</ele>
        <time>2020-02-09T11:00:25Z</time>
      </trkpt>
      <trkpt lat="47.69621" lon="6.72356">
        <ele>428.8656</ele>
        <time>2020-02-09T11:00:30Z</time>
      </trkpt>
      <trkpt lat="47.69611" lon="6.72371">
        <ele>429.99814</ele>
        <time>2020-02-09T11:00:35Z</time>
      </trkpt>
      <trkpt lat="47.69606" lon="6.72379">
        <ele>430.4343</ele>
        <time>2020-02-09T11:00:40Z</time>
      </trkpt>
      <trkpt lat="47.69587" lon="6.72413">
        <ele>429.64255</ele>
        <time>2020-02-09T11:02:35Z</time>
      </trkpt>
      <trkpt lat="47.69605" lon="6.72424">
        <ele>427.9266</ele>
        <time>2020-02-09T11:02:45Z</time>
      </trkpt>
      <trkpt lat="47.69588" lon="6.72393">
        <ele>427.84805</ele>
        <time>2020-02-09T11:03:05Z</time>
      </trkpt>
      <trkpt lat="47.69581" lon="6.72384">
        <ele>429.04242</ele>
        <time>2020-02-09T11:03:10Z</time>
      </trkpt>
      <trkpt lat="47.69577" lon="6.72375">
        <ele>429.43924</ele>
        <time>2020-02-09T11:03:15Z</time>
      </trkpt>
      <trkpt lat="47.69564" lon="6.7236">
        <ele>430.5001</ele>
        <time>2020-02-09T11:03:20Z</time>
      </trkpt>
      <trkpt lat="47.69555" lon="6.72352">
        <ele>432.7261</ele>
        <time>2020-02-09T11:03:25Z</time>
      </trkpt>
      <trkpt lat="47.69548" lon="6.72345">
        <ele>430.782</ele>
        <time>2020-02-09T11:03:30Z</time>
      </trkpt>
      <trkpt lat="47.6954" lon="6.72337">
        <ele>430.55215</ele>
        <time>2020-02-09T11:03:35Z</time>
      </trkpt>
      <trkpt lat="47.69537" lon="6.72334">
        <ele>432.8332</ele>
        <time>2020-02-09T11:03:40Z</time>
      </trkpt>
      <trkpt lat="47.69527" lon="6.72328">
        <ele>431.95102</ele>
        <time>2020-02-09T11:03:50Z</time>
      </trkpt>
      <trkpt lat="47.69519" lon="6.72322">
        <ele>432.50998</ele>
        <time>2020-02-09T11:03:55Z</time>
      </trkpt>
      <trkpt lat="47.69511" lon="6.72315">
        <ele>434.0475</ele>
        <time>2020-02-09T11:04:00Z</time>
      </trkpt>
      <trkpt lat="47.69507" lon="6.72311">
        <ele>434.24594</ele>
        <time>2020-02-09T11:04:05Z</time>
      </trkpt>
      <trkpt lat="47.69495" lon="6.723">
        <ele>436.32004</ele>
        <time>2020-02-09T11:04:15Z</time>
      </trkpt>
      <trkpt lat="47.6949" lon="6.72295">
        <ele>437.30362</ele>
        <time>2020-02-09T11:04:20Z</time>
      </trkpt>
      <trkpt lat="47.69483" lon="6.72289">
        <ele>438.61545</ele>
        <time>2020-02-09T11:04:25Z</time>
      </trkpt>
      <trkpt lat="47.69478" lon="6.72285">
        <ele>439.0036</ele>
        <time>2020-02-09T11:04:30Z</time>
      </trkpt>
      <trkpt lat="47.69473" lon="6.7228">
        <ele>438.74713</ele>
        <time>2020-02-09T11:04:35Z</time>
      </trkpt>
      <trkpt lat="47.6947" lon="6.72276">
        <ele>439.493</ele>
        <time>2020-02-09T11:04:40Z</time>
      </trkpt>
      <trkpt lat="47.69464" lon="6.72266">
        <ele>440.73813</ele>
        <time>2020-02-09T11:04:50Z</time>
      </trkpt>
      <trkpt lat="47.69462" lon="6.72259">
        <ele>441.28064</ele>
        <time>2020-02-09T11:04:55Z</time>
      </trkpt>
      <trkpt lat="47.6946" lon="6.72249">
        <ele>443.05267</ele>
        <time>2020-02-09T11:05:05Z</time>
      </trkpt>
      <trkpt lat="47.69455" lon="6.72245">
        <ele>444.12012</ele>
        <time>2020-02-09T11:05:10Z</time>
      </trkpt>
      <trkpt lat="47.69448" lon="6.72243">
        <ele>444.50443</ele>
        <time>2020-02-09T11:05:15Z</time>
      </trkpt>
      <trkpt lat="47.69444" lon="6.7224">
        <ele>445.25836</ele>
        <time>2020-02-09T11:05:20Z</time>
      </trkpt>
      <trkpt lat="47.69439" lon="6.72238">
        <ele>446.02313</ele>
        <time>2020-02-09T11:05:25Z</time>
      </trkpt>
      <trkpt lat="47.69431" lon="6.72231">
        <ele>446.66504</ele>
        <time>2020-02-09T11:05:30Z</time>
      </trkpt>
      <trkpt lat="47.69424" lon="6.72225">
        <ele>447.48984</ele>
        <time>2020-02-09T11:05:35Z</time>
      </trkpt>
      <trkpt lat="47.6942" lon="6.72218">
        <ele>446.88525</ele>
        <time>2020-02-09T11:05:40Z</time>
      </trkpt>
      <trkpt lat="47.69413" lon="6.72209">
        <ele>446.64145</ele>
        <time>2020-02-09T11:05:45Z</time>
      </trkpt>
      <trkpt lat="47.69405" lon="6.72199">
        <ele>447.98923</ele>
        <time>2020-02-09T11:05:50Z</time>
      </trkpt>
      <trkpt lat="47.69397" lon="6.72188">
        <ele>448.46704</ele>
        <time>2020-02-09T11:05:55Z</time>
      </trkpt>
      <trkpt lat="47.69397" lon="6.72181">
        <ele>447.13593</ele>
        <time>2020-02-09T11:06:00Z</time>
      </trkpt>
      <trkpt lat="47.69402" lon="6.72185">
        <ele>450.2092</ele>
        <time>2020-02-09T11:06:05Z</time>
      </trkpt>
      <trkpt lat="47.69403" lon="6.72189">
        <ele>449.55637</ele>
        <time>2020-02-09T11:06:50Z</time>
      </trkpt>
      <trkpt lat="47.69404" lon="6.72173">
        <ele>449.20636</ele>
        <time>2020-02-09T11:07:55Z</time>
      </trkpt>
      <trkpt lat="47.69412" lon="6.72143">
        <ele>448.0846</ele>
        <time>2020-02-09T11:08:00Z</time>
      </trkpt>
      <trkpt lat="47.69412" lon="6.72111">
        <ele>447.6894</ele>
        <time>2020-02-09T11:08:05Z</time>
      </trkpt>
      <trkpt lat="47.69412" lon="6.72082">
        <ele>448.02267</ele>
        <time>2020-02-09T11:08:10Z</time>
      </trkpt>
      <trkpt lat="47.69416" lon="6.72052">
        <ele>448.31073</ele>
        <time>2020-02-09T11:08:15Z</time>
      </trkpt>
      <trkpt lat="47.69429" lon="6.7203">
        <ele>450.33307</ele>
        <time>2020-02-09T11:08:20Z</time>
      </trkpt>
      <trkpt lat="47.69437" lon="6.72017">
        <ele>451.28485</ele>
        <time>2020-02-09T11:08:25Z</time>
      </trkpt>
      <trkpt lat="47.69444" lon="6.72005">
        <ele>452.0862</ele>
        <time>2020-02-09T11:08:30Z</time>
      </trkpt>
      <trkpt lat="47.69449" lon="6.71992">
        <ele>451.92395</ele>
        <time>2020-02-09T11:08:35Z</time>
      </trkpt>
      <trkpt lat="47.69454" lon="6.71981">
        <ele>452.60736</ele>
        <time>2020-02-09T11:08:40Z</time>
      </trkpt>
      <trkpt lat="47.6946" lon="6.71962">
        <ele>452.37823</ele>
        <time>2020-02-09T11:08:45Z</time>
      </trkpt>
      <trkpt lat="47.69464" lon="6.7195">
        <ele>453.571</ele>
        <time>2020-02-09T11:08:50Z</time>
      </trkpt>
      <trkpt lat="47.69464" lon="6.71929">
        <ele>454.28003</ele>
        <time>2020-02-09T11:08:55Z</time>
      </trkpt>
      <trkpt lat="47.69466" lon="6.71912">
        <ele>455.27228</ele>
        <time>2020-02-09T11:09:00Z</time>
      </trkpt>
      <trkpt lat="47.69464" lon="6.71895">
        <ele>456.71896</ele>
        <time>2020-02-09T11:09:05Z</time>
      </trkpt>
      <trkpt lat="47.69464" lon="6.71878">
        <ele>460.03656</ele>
        <time>2020-02-09T11:09:10Z</time>
      </trkpt>
      <trkpt lat="47.69459" lon="6.7186">
        <ele>460.21164</ele>
        <time>2020-02-09T11:09:15Z</time>
      </trkpt>
      <trkpt lat="47.69455" lon="6.71847">
        <ele>460.70248</ele>
        <time>2020-02-09T11:09:20Z</time>
      </trkpt>
      <trkpt lat="47.69446" lon="6.71832">
        <ele>461.11563</ele>
        <time>2020-02-09T11:09:25Z</time>
      </trkpt>
      <trkpt lat="47.69438" lon="6.71818">
        <ele>461.32715</ele>
        <time>2020-02-09T11:09:30Z</time>
      </trkpt>
      <trkpt lat="47.69429" lon="6.718">
        <ele>462.969</ele>
        <time>2020-02-09T11:09:35Z</time>
      </trkpt>
      <trkpt lat="47.69419" lon="6.71781">
        <ele>464.34338</ele>
        <time>2020-02-09T11:09:40Z</time>
      </trkpt>
      <trkpt lat="47.69406" lon="6.71759">
        <ele>464.3601</ele>
        <time>2020-02-09T11:09:45Z</time>
      </trkpt>
      <trkpt lat="47.69392" lon="6.71731">
        <ele>464.2145</ele>
        <time>2020-02-09T11:09:50Z</time>
      </trkpt>
      <trkpt lat="47.69384" lon="6.71703">
        <ele>463.79834</ele>
        <time>2020-02-09T11:09:55Z</time>
      </trkpt>
      <trkpt lat="47.69376" lon="6.7168">
        <ele>464.5146</ele>
        <time>2020-02-09T11:10:00Z</time>
      </trkpt>
      <trkpt lat="47.6937" lon="6.71661">
        <ele>465.71</ele>
        <time>2020-02-09T11:10:05Z</time>
      </trkpt>
      <trkpt lat="47.69362" lon="6.71637">
        <ele>466.98026</ele>
        <time>2020-02-09T11:10:10Z</time>
      </trkpt>
      <trkpt lat="47.69354" lon="6.71615">
        <ele>467.63165</ele>
        <time>2020-02-09T11:10:15Z</time>
      </trkpt>
      <trkpt lat="47.69346" lon="6.7159">
        <ele>469.03586</ele>
        <time>2020-02-09T11:10:20Z</time>
      </trkpt>
      <trkpt lat="47.69341" lon="6.71564">
        <ele>468.6993</ele>
        <time>2020-02-09T11:10:25Z</time>
      </trkpt>
      <trkpt lat="47.69337" lon="6.7154">
        <ele>469.04962</ele>
        <time>2020-02-09T11:10:30Z</time>
      </trkpt>
      <trkpt lat="47.69337" lon="6.71517">
        <ele>469.53674</ele>
        <time>2020-02-09T11:10:35Z</time>
      </trkpt>
      <trkpt lat="47.69334" lon="6.71488">
        <ele>470.22363</ele>
        <time>2020-02-09T11:10:40Z</time>
      </trkpt>
      <trkpt lat="47.69326" lon="6.71454">
        <ele>471.1871</ele>
        <time>2020-02-09T11:10:45Z</time>
      </trkpt>
      <trkpt lat="47.6933" lon="6.7142">
        <ele>470.95978</ele>
        <time>2020-02-09T11:10:50Z</time>
      </trkpt>
      <trkpt lat="47.69338" lon="6.71389">
        <ele>470.71765</ele>
        <time>2020-02-09T11:10:55Z</time>
      </trkpt>
      <trkpt lat="47.69342" lon="6.71356">
        <ele>471.49515</ele>
        <time>2020-02-09T11:11:00Z</time>
      </trkpt>
      <trkpt lat="47.69347" lon="6.71333">
        <ele>471.86816</ele>
        <time>2020-02-09T11:11:05Z</time>
      </trkpt>
      <trkpt lat="47.69351" lon="6.71313">
        <ele>472.98917</ele>
        <time>2020-02-09T11:11:10Z</time>
      </trkpt>
      <trkpt lat="47.69354" lon="6.71288">
        <ele>472.5797</ele>
        <time>2020-02-09T11:11:15Z</time>
      </trkpt>
      <trkpt lat="47.69358" lon="6.71264">
        <ele>473.22244</ele>
        <time>2020-02-09T11:11:20Z</time>
      </trkpt>
      <trkpt lat="47.69362" lon="6.71241">
        <ele>474.78055</ele>
        <time>2020-02-09T11:11:25Z</time>
      </trkpt>
      <trkpt lat="47.69371" lon="6.7122">
        <ele>474.2136</ele>
        <time>2020-02-09T11:11:30Z</time>
      </trkpt>
      <trkpt lat="47.69379" lon="6.71192">
        <ele>475.02762</ele>
        <time>2020-02-09T11:11:35Z</time>
      </trkpt>
      <trkpt lat="47.69383" lon="6.71168">
        <ele>474.32187</ele>
        <time>2020-02-09T11:11:40Z</time>
      </trkpt>
      <trkpt lat="47.69391" lon="6.71142">
        <ele>474.7018</ele>
        <time>2020-02-09T11:11:45Z</time>
      </trkpt>
      <trkpt lat="47.69396" lon="6.71122">
        <ele>475.38492</ele>
        <time>2020-02-09T11:11:50Z</time>
      </trkpt>
      <trkpt lat="47.69396" lon="6.71094">
        <ele>476.4707</ele>
        <time>2020-02-09T11:11:55Z</time>
      </trkpt>
      <trkpt lat="47.69385" lon="6.71062">
        <ele>474.6693</ele>
        <time>2020-02-09T11:12:00Z</time>
      </trkpt>
      <trkpt lat="47.69371" lon="6.71043">
        <ele>474.18112</ele>
        <time>2020-02-09T11:12:05Z</time>
      </trkpt>
      <trkpt lat="47.69359" lon="6.71029">
        <ele>477.6215</ele>
        <time>2020-02-09T11:12:10Z</time>
      </trkpt>
      <trkpt lat="47.69349" lon="6.71016">
        <ele>478.07236</ele>
        <time>2020-02-09T11:12:15Z</time>
      </trkpt>
      <trkpt lat="47.6934" lon="6.71003">
        <ele>477.11942</ele>
        <time>2020-02-09T11:12:20Z</time>
      </trkpt>
      <trkpt lat="47.69333" lon="6.7099">
        <ele>477.59885</ele>
        <time>2020-02-09T11:12:25Z</time>
      </trkpt>
      <trkpt lat="47.69324" lon="6.70979">
        <ele>478.8757</ele>
        <time>2020-02-09T11:12:30Z</time>
      </trkpt>
      <trkpt lat="47.69317" lon="6.70969">
        <ele>480.067</ele>
        <time>2020-02-09T11:12:35Z</time>
      </trkpt>
      <trkpt lat="47.69308" lon="6.70965">
        <ele>479.60425</ele>
        <time>2020-02-09T11:12:40Z</time>
      </trkpt>
      <trkpt lat="47.69297" lon="6.70953">
        <ele>479.87302</ele>
        <time>2020-02-09T11:12:45Z</time>
      </trkpt>
      <trkpt lat="47.6929" lon="6.70945">
        <ele>480.6095</ele>
        <time>2020-02-09T11:12:50Z</time>
      </trkpt>
      <trkpt lat="47.69276" lon="6.70924">
        <ele>479.88977</ele>
        <time>2020-02-09T11:12:55Z</time>
      </trkpt>
      <trkpt lat="47.69253" lon="6.70893">
        <ele>480.06503</ele>
        <time>2020-02-09T11:13:00Z</time>
      </trkpt>
      <trkpt lat="47.69228" lon="6.70851">
        <ele>477.46988</ele>
        <time>2020-02-09T11:13:05Z</time>
      </trkpt>
      <trkpt lat="47.69189" lon="6.70815">
        <ele>478.38837</ele>
        <time>2020-02-09T11:13:10Z</time>
      </trkpt>
      <trkpt lat="47.69153" lon="6.7077">
        <ele>475.23727</ele>
        <time>2020-02-09T11:13:15Z</time>
      </trkpt>
      <trkpt lat="47.69127" lon="6.70728">
        <ele>474.38782</ele>
        <time>2020-02-09T11:13:20Z</time>
      </trkpt>
      <trkpt lat="47.69116" lon="6.7071">
        <ele>473.43307</ele>
        <time>2020-02-09T11:13:25Z</time>
      </trkpt>
      <trkpt lat="47.69111" lon="6.7069">
        <ele>471.38</ele>
        <time>2020-02-09T11:13:30Z</time>
      </trkpt>
      <trkpt lat="47.69107" lon="6.70669">
        <ele>470.1587</ele>
        <time>2020-02-09T11:13:35Z</time>
      </trkpt>
      <trkpt lat="47.69101" lon="6.70648">
        <ele>471.13004</ele>
        <time>2020-02-09T11:13:40Z</time>
      </trkpt>
      <trkpt lat="47.69098" lon="6.70635">
        <ele>470.2581</ele>
        <time>2020-02-09T11:13:45Z</time>
      </trkpt>
      <trkpt lat="47.69094" lon="6.70618">
        <ele>470.75507</ele>
        <time>2020-02-09T11:13:50Z</time>
      </trkpt>
      <trkpt lat="47.69087" lon="6.70602">
        <ele>471.18906</ele>
        <time>2020-02-09T11:13:55Z</time>
      </trkpt>
      <trkpt lat="47.69084" lon="6.70587">
        <ele>472.28348</ele>
        <time>2020-02-09T11:14:00Z</time>
      </trkpt>
      <trkpt lat="47.69081" lon="6.70574">
        <ele>472.52066</ele>
        <time>2020-02-09T11:14:05Z</time>
      </trkpt>
      <trkpt lat="47.69074" lon="6.70557">
        <ele>472.39468</ele>
        <time>2020-02-09T11:14:10Z</time>
      </trkpt>
      <trkpt lat="47.69069" lon="6.7054">
        <ele>472.58072</ele>
        <time>2020-02-09T11:14:15Z</time>
      </trkpt>
      <trkpt lat="47.69062" lon="6.70529">
        <ele>473.08267</ele>
        <time>2020-02-09T11:14:20Z</time>
      </trkpt>
      <trkpt lat="47.69052" lon="6.70501">
        <ele>472.49704</ele>
        <time>2020-02-09T11:14:25Z</time>
      </trkpt>
      <trkpt lat="47.69046" lon="6.70458">
        <ele>469.46393</ele>
        <time>2020-02-09T11:14:30Z</time>
      </trkpt>
      <trkpt lat="47.69039" lon="6.70418">
        <ele>468.719</ele>
        <time>2020-02-09T11:14:35Z</time>
      </trkpt>
      <trkpt lat="47.69027" lon="6.70393">
        <ele>469.46</ele>
        <time>2020-02-09T11:14:40Z</time>
      </trkpt>
      <trkpt lat="47.69015" lon="6.70369">
        <ele>472.57382</ele>
        <time>2020-02-09T11:14:45Z</time>
      </trkpt>
      <trkpt lat="47.69006" lon="6.70357">
        <ele>472.9685</ele>
        <time>2020-02-09T11:14:50Z</time>
      </trkpt>
      <trkpt lat="47.68996" lon="6.7035">
        <ele>472.8612</ele>
        <time>2020-02-09T11:14:55Z</time>
      </trkpt>
      <trkpt lat="47.68979" lon="6.70345">
        <ele>470.883</ele>
        <time>2020-02-09T11:15:00Z</time>
      </trkpt>
      <trkpt lat="47.68961" lon="6.70358">
        <ele>470.58777</ele>
        <time>2020-02-09T11:15:05Z</time>
      </trkpt>
      <trkpt lat="47.68942" lon="6.70371">
        <ele>472.82678</ele>
        <time>2020-02-09T11:15:10Z</time>
      </trkpt>
      <trkpt lat="47.68926" lon="6.70378">
        <ele>474.29037</ele>
        <time>2020-02-09T11:15:15Z</time>
      </trkpt>
      <trkpt lat="47.68916" lon="6.70387">
        <ele>473.76376</ele>
        <time>2020-02-09T11:15:20Z</time>
      </trkpt>
      <trkpt lat="47.68904" lon="6.70397">
        <ele>472.92126</ele>
        <time>2020-02-09T11:15:25Z</time>
      </trkpt>
      <trkpt lat="47.68879" lon="6.70406">
        <ele>472.07285</ele>
        <time>2020-02-09T11:15:30Z</time>
      </trkpt>
      <trkpt lat="47.68849" lon="6.70387">
        <ele>470.5543</ele>
        <time>2020-02-09T11:15:35Z</time>
      </trkpt>
      <trkpt lat="47.68822" lon="6.70356">
        <ele>468.92267</ele>
        <time>2020-02-09T11:15:40Z</time>
      </trkpt>
      <trkpt lat="47.68802" lon="6.70336">
        <ele>471.50204</ele>
        <time>2020-02-09T11:15:45Z</time>
      </trkpt>
      <trkpt lat="47.68816" lon="6.70312">
        <ele>473.02658</ele>
        <time>2020-02-09T11:15:50Z</time>
      </trkpt>
      <trkpt lat="47.68831" lon="6.70277">
        <ele>470.33878</ele>
        <time>2020-02-09T11:15:55Z</time>
      </trkpt>
      <trkpt lat="47.68847" lon="6.70247">
        <ele>469.3901</ele>
        <time>2020-02-09T11:16:00Z</time>
      </trkpt>
      <trkpt lat="47.68861" lon="6.70217">
        <ele>468.9217</ele>
        <time>2020-02-09T11:16:05Z</time>
      </trkpt>
      <trkpt lat="47.68873" lon="6.70186">
        <ele>468.53497</ele>
        <time>2020-02-09T11:16:10Z</time>
      </trkpt>
      <trkpt lat="47.68885" lon="6.70159">
        <ele>468.20236</ele>
        <time>2020-02-09T11:16:15Z</time>
      </trkpt>
      <trkpt lat="47.68906" lon="6.70158">
        <ele>469.53476</ele>
        <time>2020-02-09T11:16:20Z</time>
      </trkpt>
      <trkpt lat="47.6894" lon="6.70177">
        <ele>467.4801</ele>
        <time>2020-02-09T11:16:25Z</time>
      </trkpt>
      <trkpt lat="47.68976" lon="6.70188">
        <ele>466.58862</ele>
        <time>2020-02-09T11:16:30Z</time>
      </trkpt>
      <trkpt lat="47.6901" lon="6.70173">
        <ele>465.02127</ele>
        <time>2020-02-09T11:16:35Z</time>
      </trkpt>
      <trkpt lat="47.69031" lon="6.70135">
        <ele>463.24643</ele>
        <time>2020-02-09T11:16:40Z</time>
      </trkpt>
      <trkpt lat="47.69044" lon="6.70088">
        <ele>462.35318</ele>
        <time>2020-02-09T11:16:45Z</time>
      </trkpt>
      <trkpt lat="47.69056" lon="6.70051">
        <ele>461.26517</ele>
        <time>2020-02-09T11:16:50Z</time>
      </trkpt>
      <trkpt lat="47.69082" lon="6.70015">
        <ele>461.3222</ele>
        <time>2020-02-09T11:16:55Z</time>
      </trkpt>
      <trkpt lat="47.69117" lon="6.69975">
        <ele>462.19183</ele>
        <time>2020-02-09T11:17:00Z</time>
      </trkpt>
      <trkpt lat="47.69152" lon="6.6995">
        <ele>463.45303</ele>
        <time>2020-02-09T11:17:05Z</time>
      </trkpt>
      <trkpt lat="47.69184" lon="6.69935">
        <ele>462.54993</ele>
        <time>2020-02-09T11:17:10Z</time>
      </trkpt>
      <trkpt lat="47.69218" lon="6.69928">
        <ele>459.81326</ele>
        <time>2020-02-09T11:17:15Z</time>
      </trkpt>
      <trkpt lat="47.69259" lon="6.69901">
        <ele>455.08444</ele>
        <time>2020-02-09T11:17:20Z</time>
      </trkpt>
      <trkpt lat="47.69303" lon="6.69863">
        <ele>451.28583</ele>
        <time>2020-02-09T11:17:25Z</time>
      </trkpt>
      <trkpt lat="47.69352" lon="6.69835">
        <ele>447.95386</ele>
        <time>2020-02-09T11:17:30Z</time>
      </trkpt>
      <trkpt lat="47.69394" lon="6.69808">
        <ele>446.24234</ele>
        <time>2020-02-09T11:17:35Z</time>
      </trkpt>
      <trkpt lat="47.6943" lon="6.69794">
        <ele>449.03036</ele>
        <time>2020-02-09T11:17:40Z</time>
      </trkpt>
      <trkpt lat="47.69452" lon="6.69824">
        <ele>450.92398</ele>
        <time>2020-02-09T11:17:45Z</time>
      </trkpt>
      <trkpt lat="47.69473" lon="6.69836">
        <ele>452.14914</ele>
        <time>2020-02-09T11:17:50Z</time>
      </trkpt>
      <trkpt lat="47.69481" lon="6.69815">
        <ele>452.22583</ele>
        <time>2020-02-09T11:17:55Z</time>
      </trkpt>
      <trkpt lat="47.69473" lon="6.6979">
        <ele>452.12653</ele>
        <time>2020-02-09T11:18:00Z</time>
      </trkpt>
      <trkpt lat="47.69469" lon="6.69769">
        <ele>453.0174</ele>
        <time>2020-02-09T11:18:05Z</time>
      </trkpt>
      <trkpt lat="47.69466" lon="6.69744">
        <ele>453.63986</ele>
        <time>2020-02-09T11:18:10Z</time>
      </trkpt>
      <trkpt lat="47.69462" lon="6.69715">
        <ele>452.6044</ele>
        <time>2020-02-09T11:18:15Z</time>
      </trkpt>
      <trkpt lat="47.69461" lon="6.69693">
        <ele>452.9289</ele>
        <time>2020-02-09T11:18:20Z</time>
      </trkpt>
      <trkpt lat="47.6946" lon="6.69669">
        <ele>453.58084</ele>
        <time>2020-02-09T11:18:25Z</time>
      </trkpt>
      <trkpt lat="47.6946" lon="6.69646">
        <ele>454.10596</ele>
        <time>2020-02-09T11:18:30Z</time>
      </trkpt>
      <trkpt lat="47.69461" lon="6.69622">
        <ele>455.09625</ele>
        <time>2020-02-09T11:18:35Z</time>
      </trkpt>
      <trkpt lat="47.69457" lon="6.69605">
        <ele>455.26443</ele>
        <time>2020-02-09T11:18:40Z</time>
      </trkpt>
      <trkpt lat="47.69452" lon="6.69597">
        <ele>454.04892</ele>
        <time>2020-02-09T11:18:45Z</time>
      </trkpt>
      <trkpt lat="47.69449" lon="6.69589">
        <ele>455.00677</ele>
        <time>2020-02-09T11:18:50Z</time>
      </trkpt>
      <trkpt lat="47.69444" lon="6.69562">
        <ele>454.27707</ele>
        <time>2020-02-09T11:18:55Z</time>
      </trkpt>
      <trkpt lat="47.69431" lon="6.69516">
        <ele>452.43726</ele>
        <time>2020-02-09T11:19:00Z</time>
      </trkpt>
      <trkpt lat="47.69418" lon="6.69451">
        <ele>450.10693</ele>
        <time>2020-02-09T11:19:05Z</time>
      </trkpt>
      <trkpt lat="47.69404" lon="6.69383">
        <ele>453.47662</ele>
        <time>2020-02-09T11:19:10Z</time>
      </trkpt>
      <trkpt lat="47.69384" lon="6.69332">
        <ele>446.20007</ele>
        <time>2020-02-09T11:19:15Z</time>
      </trkpt>
      <trkpt lat="47.69382" lon="6.69301">
        <ele>449.0756</ele>
        <time>2020-02-09T11:19:20Z</time>
      </trkpt>
      <trkpt lat="47.69387" lon="6.69276">
        <ele>443.0232</ele>
        <time>2020-02-09T11:19:25Z</time>
      </trkpt>
      <trkpt lat="47.69388" lon="6.69257">
        <ele>442.02167</ele>
        <time>2020-02-09T11:19:30Z</time>
      </trkpt>
      <trkpt lat="47.69389" lon="6.69236">
        <ele>441.73862</ele>
        <time>2020-02-09T11:19:35Z</time>
      </trkpt>
      <trkpt lat="47.69387" lon="6.6921">
        <ele>440.32538</ele>
        <time>2020-02-09T11:19:40Z</time>
      </trkpt>
      <trkpt lat="47.69388" lon="6.69171">
        <ele>439.90573</ele>
        <time>2020-02-09T11:19:45Z</time>
      </trkpt>
      <trkpt lat="47.69391" lon="6.69134">
        <ele>438.65573</ele>
        <time>2020-02-09T11:19:50Z</time>
      </trkpt>
      <trkpt lat="47.69395" lon="6.69094">
        <ele>438.02292</ele>
        <time>2020-02-09T11:19:55Z</time>
      </trkpt>
      <trkpt lat="47.69402" lon="6.6907">
        <ele>440.0551</ele>
        <time>2020-02-09T11:20:00Z</time>
      </trkpt>
      <trkpt lat="47.69412" lon="6.69054">
        <ele>439.9264</ele>
        <time>2020-02-09T11:20:05Z</time>
      </trkpt>
      <trkpt lat="47.69426" lon="6.69033">
        <ele>441.28455</ele>
        <time>2020-02-09T11:20:10Z</time>
      </trkpt>
      <trkpt lat="47.69441" lon="6.69016">
        <ele>442.33127</ele>
        <time>2020-02-09T11:20:15Z</time>
      </trkpt>
      <trkpt lat="47.6945" lon="6.68994">
        <ele>442.04623</ele>
        <time>2020-02-09T11:20:20Z</time>
      </trkpt>
      <trkpt lat="47.69457" lon="6.68977">
        <ele>442.34305</ele>
        <time>2020-02-09T11:20:25Z</time>
      </trkpt>
      <trkpt lat="47.69468" lon="6.68957">
        <ele>441.93222</ele>
        <time>2020-02-09T11:20:30Z</time>
      </trkpt>
      <trkpt lat="47.69479" lon="6.6893">
        <ele>443.15884</ele>
        <time>2020-02-09T11:20:35Z</time>
      </trkpt>
      <trkpt lat="47.69493" lon="6.68902">
        <ele>439.82516</ele>
        <time>2020-02-09T11:20:40Z</time>
      </trkpt>
      <trkpt lat="47.69514" lon="6.68871">
        <ele>440.16125</ele>
        <time>2020-02-09T11:20:45Z</time>
      </trkpt>
      <trkpt lat="47.69545" lon="6.68831">
        <ele>439.97354</ele>
        <time>2020-02-09T11:20:50Z</time>
      </trkpt>
      <trkpt lat="47.69569" lon="6.6878">
        <ele>437.6623</ele>
        <time>2020-02-09T11:20:55Z</time>
      </trkpt>
      <trkpt lat="47.69588" lon="6.68731">
        <ele>433.77927</ele>
        <time>2020-02-09T11:21:00Z</time>
      </trkpt>
      <trkpt lat="47.696" lon="6.68683">
        <ele>434.22336</ele>
        <time>2020-02-09T11:21:05Z</time>
      </trkpt>
      <trkpt lat="47.69611" lon="6.68645">
        <ele>433.2684</ele>
        <time>2020-02-09T11:21:10Z</time>
      </trkpt>
      <trkpt lat="47.69619" lon="6.68601">
        <ele>431.82135</ele>
        <time>2020-02-09T11:21:15Z</time>
      </trkpt>
      <trkpt lat="47.69631" lon="6.68556">
        <ele>430.56296</ele>
        <time>2020-02-09T11:21:20Z</time>
      </trkpt>
      <trkpt lat="47.6965" lon="6.68508">
        <ele>429.9883</ele>
        <time>2020-02-09T11:21:25Z</time>
      </trkpt>
      <trkpt lat="47.69687" lon="6.6848">
        <ele>429.12393</ele>
        <time>2020-02-09T11:21:30Z</time>
      </trkpt>
      <trkpt lat="47.69732" lon="6.68475">
        <ele>428.42654</ele>
        <time>2020-02-09T11:21:35Z</time>
      </trkpt>
      <trkpt lat="47.69777" lon="6.68489">
        <ele>426.0458</ele>
        <time>2020-02-09T11:21:40Z</time>
      </trkpt>
      <trkpt lat="47.69825" lon="6.68498">
        <ele>418.59686</ele>
        <time>2020-02-09T11:21:45Z</time>
      </trkpt>
      <trkpt lat="47.69878" lon="6.68489">
        <ele>421.3931</ele>
        <time>2020-02-09T11:21:50Z</time>
      </trkpt>
      <trkpt lat="47.69927" lon="6.68479">
        <ele>414.2746</ele>
        <time>2020-02-09T11:21:55Z</time>
      </trkpt>
      <trkpt lat="47.69965" lon="6.68472">
        <ele>408.85605</ele>
        <time>2020-02-09T11:22:00Z</time>
      </trkpt>
      <trkpt lat="47.69992" lon="6.68467">
        <ele>406.06732</ele>
        <time>2020-02-09T11:22:05Z</time>
      </trkpt>
      <trkpt lat="47.69997" lon="6.68465">
        <ele>407.79233</ele>
        <time>2020-02-09T11:22:10Z</time>
      </trkpt>
      <trkpt lat="47.70002" lon="6.68456">
        <ele>406.58145</ele>
        <time>2020-02-09T11:22:15Z</time>
      </trkpt>
      <trkpt lat="47.70003" lon="6.68423">
        <ele>405.04984</ele>
        <time>2020-02-09T11:22:20Z</time>
      </trkpt>
      <trkpt lat="47.69996" lon="6.68385">
        <ele>405.771</ele>
        <time>2020-02-09T11:22:25Z</time>
      </trkpt>
      <trkpt lat="47.6999" lon="6.68348">
        <ele>407.1015</ele>
        <time>2020-02-09T11:22:30Z</time>
      </trkpt>
      <trkpt lat="47.69982" lon="6.6831">
        <ele>403.51144</ele>
        <time>2020-02-09T11:22:35Z</time>
      </trkpt>
      <trkpt lat="47.69967" lon="6.68278">
        <ele>405.4894</ele>
        <time>2020-02-09T11:22:40Z</time>
      </trkpt>
      <trkpt lat="47.69949" lon="6.68253">
        <ele>404.36502</ele>
        <time>2020-02-09T11:22:45Z</time>
      </trkpt>
      <trkpt lat="47.69933" lon="6.68221">
        <ele>403.7587</ele>
        <time>2020-02-09T11:22:50Z</time>
      </trkpt>
      <trkpt lat="47.69914" lon="6.68194">
        <ele>402.70306</ele>
        <time>2020-02-09T11:22:55Z</time>
      </trkpt>
      <trkpt lat="47.69891" lon="6.68174">
        <ele>401.40225</ele>
        <time>2020-02-09T11:23:00Z</time>
      </trkpt>
      <trkpt lat="47.69865" lon="6.68156">
        <ele>400.88724</ele>
        <time>2020-02-09T11:23:05Z</time>
      </trkpt>
      <trkpt lat="47.69837" lon="6.68144">
        <ele>400.22607</ele>
        <time>2020-02-09T11:23:10Z</time>
      </trkpt>
      <trkpt lat="47.69806" lon="6.68125">
        <ele>399.11862</ele>
        <time>2020-02-09T11:23:15Z</time>
      </trkpt>
      <trkpt lat="47.69777" lon="6.68102">
        <ele>398.09265</ele>
        <time>2020-02-09T11:23:20Z</time>
      </trkpt>
      <trkpt lat="47.6975" lon="6.68082">
        <ele>397.74054</ele>
        <time>2020-02-09T11:23:25Z</time>
      </trkpt>
      <trkpt lat="47.69724" lon="6.68066">
        <ele>397.60126</ele>
        <time>2020-02-09T11:23:30Z</time>
      </trkpt>
      <trkpt lat="47.69705" lon="6.68048">
        <ele>399.9926</ele>
        <time>2020-02-09T11:23:35Z</time>
      </trkpt>
      <trkpt lat="47.69713" lon="6.68017">
        <ele>399.31088</ele>
        <time>2020-02-09T11:23:40Z</time>
      </trkpt>
      <trkpt lat="47.69728" lon="6.67987">
        <ele>399.5963</ele>
        <time>2020-02-09T11:23:45Z</time>
      </trkpt>
      <trkpt lat="47.6974" lon="6.67958">
        <ele>398.92932</ele>
        <time>2020-02-09T11:23:50Z</time>
      </trkpt>
      <trkpt lat="47.69752" lon="6.67921">
        <ele>398.77042</ele>
        <time>2020-02-09T11:23:55Z</time>
      </trkpt>
      <trkpt lat="47.69764" lon="6.67892">
        <ele>398.25253</ele>
        <time>2020-02-09T11:24:00Z</time>
      </trkpt>
      <trkpt lat="47.69773" lon="6.67859">
        <ele>398.68018</ele>
        <time>2020-02-09T11:24:05Z</time>
      </trkpt>
      <trkpt lat="47.69775" lon="6.67825">
        <ele>400.18488</ele>
        <time>2020-02-09T11:24:10Z</time>
      </trkpt>
      <trkpt lat="47.6977" lon="6.67789">
        <ele>402.12817</ele>
        <time>2020-02-09T11:24:15Z</time>
      </trkpt>
      <trkpt lat="47.69764" lon="6.67759">
        <ele>400.8068</ele>
        <time>2020-02-09T11:24:20Z</time>
      </trkpt>
      <trkpt lat="47.69758" lon="6.67729">
        <ele>400.67435</ele>
        <time>2020-02-09T11:24:25Z</time>
      </trkpt>
      <trkpt lat="47.69754" lon="6.67697">
        <ele>399.66595</ele>
        <time>2020-02-09T11:24:30Z</time>
      </trkpt>
      <trkpt lat="47.6975" lon="6.67663">
        <ele>399.9014</ele>
        <time>2020-02-09T11:24:35Z</time>
      </trkpt>
      <trkpt lat="47.69743" lon="6.67627">
        <ele>399.35602</ele>
        <time>2020-02-09T11:24:40Z</time>
      </trkpt>
      <trkpt lat="47.69736" lon="6.67587">
        <ele>397.10794</ele>
        <time>2020-02-09T11:24:45Z</time>
      </trkpt>
      <trkpt lat="47.6973" lon="6.67546">
        <ele>396.5489</ele>
        <time>2020-02-09T11:24:50Z</time>
      </trkpt>
      <trkpt lat="47.69727" lon="6.67503">
        <ele>395.97415</ele>
        <time>2020-02-09T11:24:55Z</time>
      </trkpt>
      <trkpt lat="47.6972" lon="6.67465">
        <ele>395.80548</ele>
        <time>2020-02-09T11:25:00Z</time>
      </trkpt>
      <trkpt lat="47.69714" lon="6.67421">
        <ele>395.79468</ele>
        <time>2020-02-09T11:25:05Z</time>
      </trkpt>
      <trkpt lat="47.69705" lon="6.67378">
        <ele>395.02972</ele>
        <time>2020-02-09T11:25:10Z</time>
      </trkpt>
      <trkpt lat="47.69706" lon="6.67334">
        <ele>394.16382</ele>
        <time>2020-02-09T11:25:15Z</time>
      </trkpt>
      <trkpt lat="47.69719" lon="6.67285">
        <ele>392.181</ele>
        <time>2020-02-09T11:25:20Z</time>
      </trkpt>
      <trkpt lat="47.69708" lon="6.67233">
        <ele>392.3938</ele>
        <time>2020-02-09T11:25:25Z</time>
      </trkpt>
      <trkpt lat="47.69681" lon="6.67199">
        <ele>392.25064</ele>
        <time>2020-02-09T11:25:30Z</time>
      </trkpt>
      <trkpt lat="47.69655" lon="6.67174">
        <ele>394.40405</ele>
        <time>2020-02-09T11:25:35Z</time>
      </trkpt>
      <trkpt lat="47.69635" lon="6.67149">
        <ele>394.10202</ele>
        <time>2020-02-09T11:25:40Z</time>
      </trkpt>
      <trkpt lat="47.69644" lon="6.67119">
        <ele>393.86472</ele>
        <time>2020-02-09T11:25:45Z</time>
      </trkpt>
      <trkpt lat="47.69651" lon="6.67078">
        <ele>393.40576</ele>
        <time>2020-02-09T11:25:50Z</time>
      </trkpt>
      <trkpt lat="47.69653" lon="6.67045">
        <ele>393.06354</ele>
        <time>2020-02-09T11:25:55Z</time>
      </trkpt>
      <trkpt lat="47.6965" lon="6.67012">
        <ele>392.64285</ele>
        <time>2020-02-09T11:26:00Z</time>
      </trkpt>
      <trkpt lat="47.69647" lon="6.66982">
        <ele>392.52225</ele>
        <time>2020-02-09T11:26:05Z</time>
      </trkpt>
      <trkpt lat="47.69643" lon="6.66952">
        <ele>391.00928</ele>
        <time>2020-02-09T11:26:10Z</time>
      </trkpt>
      <trkpt lat="47.69634" lon="6.66915">
        <ele>390.48666</ele>
        <time>2020-02-09T11:26:15Z</time>
      </trkpt>
      <trkpt lat="47.69622" lon="6.66888">
        <ele>390.27292</ele>
        <time>2020-02-09T11:26:20Z</time>
      </trkpt>
      <trkpt lat="47.69609" lon="6.66861">
        <ele>392.45557</ele>
        <time>2020-02-09T11:26:25Z</time>
      </trkpt>
      <trkpt lat="47.69594" lon="6.66845">
        <ele>391.29657</ele>
        <time>2020-02-09T11:26:30Z</time>
      </trkpt>
      <trkpt lat="47.69581" lon="6.66823">
        <ele>391.94275</ele>
        <time>2020-02-09T11:26:35Z</time>
      </trkpt>
      <trkpt lat="47.69577" lon="6.668">
        <ele>390.3455</ele>
        <time>2020-02-09T11:26:40Z</time>
      </trkpt>
      <trkpt lat="47.69569" lon="6.66772">
        <ele>388.05127</ele>
        <time>2020-02-09T11:26:45Z</time>
      </trkpt>
      <trkpt lat="47.69563" lon="6.66751">
        <ele>388.17972</ele>
        <time>2020-02-09T11:26:50Z</time>
      </trkpt>
      <trkpt lat="47.6955" lon="6.66759">
        <ele>388.73462</ele>
        <time>2020-02-09T11:26:55Z</time>
      </trkpt>
      <trkpt lat="47.69534" lon="6.66774">
        <ele>389.5876</ele>
        <time>2020-02-09T11:27:00Z</time>
      </trkpt>
      <trkpt lat="47.69523" lon="6.66781">
        <ele>389.77878</ele>
        <time>2020-02-09T11:27:05Z</time>
      </trkpt>
      <trkpt lat="47.69511" lon="6.66787">
        <ele>390.49646</ele>
        <time>2020-02-09T11:27:15Z</time>
      </trkpt>
      <trkpt lat="47.69497" lon="6.66797">
        <ele>388.9189</ele>
        <time>2020-02-09T11:27:45Z</time>
      </trkpt>
      <trkpt lat="47.69489" lon="6.668">
        <ele>388.58264</ele>
        <time>2020-02-09T11:27:50Z</time>
      </trkpt>
      <trkpt lat="47.69473" lon="6.66809">
        <ele>389.11697</ele>
        <time>2020-02-09T11:27:55Z</time>
      </trkpt>
      <trkpt lat="47.69456" lon="6.66816">
        <ele>389.60916</ele>
        <time>2020-02-09T11:28:00Z</time>
      </trkpt>
      <trkpt lat="47.69442" lon="6.66814">
        <ele>388.42188</ele>
        <time>2020-02-09T11:28:05Z</time>
      </trkpt>
      <trkpt lat="47.69427" lon="6.66799">
        <ele>387.99734</ele>
        <time>2020-02-09T11:28:10Z</time>
      </trkpt>
      <trkpt lat="47.69425" lon="6.6678">
        <ele>387.82874</ele>
        <time>2020-02-09T11:28:15Z</time>
      </trkpt>
      <trkpt lat="47.69418" lon="6.66762">
        <ele>387.94147</ele>
        <time>2020-02-09T11:28:20Z</time>
      </trkpt>
      <trkpt lat="47.69413" lon="6.66739">
        <ele>387.5572</ele>
        <time>2020-02-09T11:28:25Z</time>
      </trkpt>
      <trkpt lat="47.69413" lon="6.66718">
        <ele>387.39542</ele>
        <time>2020-02-09T11:28:30Z</time>
      </trkpt>
      <trkpt lat="47.69413" lon="6.66704">
        <ele>388.9248</ele>
        <time>2020-02-09T11:28:35Z</time>
      </trkpt>
      <trkpt lat="47.69414" lon="6.66691">
        <ele>387.96893</ele>
        <time>2020-02-09T11:28:40Z</time>
      </trkpt>
      <trkpt lat="47.6942" lon="6.66677">
        <ele>386.6337</ele>
        <time>2020-02-09T11:28:45Z</time>
      </trkpt>
      <trkpt lat="47.69427" lon="6.66667">
        <ele>385.8965</ele>
        <time>2020-02-09T11:28:50Z</time>
      </trkpt>
      <trkpt lat="47.69439" lon="6.66656">
        <ele>387.19052</ele>
        <time>2020-02-09T11:28:55Z</time>
      </trkpt>
      <trkpt lat="47.69452" lon="6.66646">
        <ele>385.18387</ele>
        <time>2020-02-09T11:29:00Z</time>
      </trkpt>
      <trkpt lat="47.69471" lon="6.66632">
        <ele>384.94763</ele>
        <time>2020-02-09T11:29:05Z</time>
      </trkpt>
      <trkpt lat="47.69483" lon="6.66621">
        <ele>385.0878</ele>
        <time>2020-02-09T11:29:10Z</time>
      </trkpt>
      <trkpt lat="47.69486" lon="6.66606">
        <ele>385.86417</ele>
        <time>2020-02-09T11:29:15Z</time>
      </trkpt>
      <trkpt lat="47.69482" lon="6.66595">
        <ele>386.41998</ele>
        <time>2020-02-09T11:29:20Z</time>
      </trkpt>
      <trkpt lat="47.69479" lon="6.66576">
        <ele>385.02115</ele>
        <time>2020-02-09T11:29:25Z</time>
      </trkpt>
      <trkpt lat="47.69475" lon="6.6656">
        <ele>385.82397</ele>
        <time>2020-02-09T11:29:30Z</time>
      </trkpt>
      <trkpt lat="47.69466" lon="6.6654">
        <ele>386.18964</ele>
        <time>2020-02-09T11:29:35Z</time>
      </trkpt>
      <trkpt lat="47.69461" lon="6.66526">
        <ele>386.61508</ele>
        <time>2020-02-09T11:29:40Z</time>
      </trkpt>
      <trkpt lat="47.69452" lon="6.66508">
        <ele>388.44638</ele>
        <time>2020-02-09T11:29:45Z</time>
      </trkpt>
      <trkpt lat="47.69439" lon="6.66495">
        <ele>387.766</ele>
        <time>2020-02-09T11:29:50Z</time>
      </trkpt>
      <trkpt lat="47.6942" lon="6.66475">
        <ele>387.63168</ele>
        <time>2020-02-09T11:29:55Z</time>
      </trkpt>
      <trkpt lat="47.69407" lon="6.66458">
        <ele>386.63174</ele>
        <time>2020-02-09T11:30:00Z</time>
      </trkpt>
      <trkpt lat="47.69398" lon="6.6644">
        <ele>386.84448</ele>
        <time>2020-02-09T11:30:05Z</time>
      </trkpt>
      <trkpt lat="47.69383" lon="6.66417">
        <ele>387.068</ele>
        <time>2020-02-09T11:30:10Z</time>
      </trkpt>
      <trkpt lat="47.69367" lon="6.664">
        <ele>389.73367</ele>
        <time>2020-02-09T11:30:15Z</time>
      </trkpt>
      <trkpt lat="47.69353" lon="6.66388">
        <ele>387.2405</ele>
        <time>2020-02-09T11:30:20Z</time>
      </trkpt>
      <trkpt lat="47.69343" lon="6.66374">
        <ele>386.31412</ele>
        <time>2020-02-09T11:30:25Z</time>
      </trkpt>
      <trkpt lat="47.69331" lon="6.66347">
        <ele>388.61795</ele>
        <time>2020-02-09T11:30:30Z</time>
      </trkpt>
      <trkpt lat="47.69319" lon="6.66324">
        <ele>387.92383</ele>
        <time>2020-02-09T11:30:35Z</time>
      </trkpt>
      <trkpt lat="47.6931" lon="6.66296">
        <ele>387.47385</ele>
        <time>2020-02-09T11:30:40Z</time>
      </trkpt>
      <trkpt lat="47.69302" lon="6.66273">
        <ele>386.8533</ele>
        <time>2020-02-09T11:30:45Z</time>
      </trkpt>
      <trkpt lat="47.693" lon="6.66251">
        <ele>386.6935</ele>
        <time>2020-02-09T11:30:50Z</time>
      </trkpt>
      <trkpt lat="47.69297" lon="6.66227">
        <ele>388.44443</ele>
        <time>2020-02-09T11:30:55Z</time>
      </trkpt>
      <trkpt lat="47.69291" lon="6.662">
        <ele>386.7778</ele>
        <time>2020-02-09T11:31:00Z</time>
      </trkpt>
      <trkpt lat="47.69296" lon="6.66175">
        <ele>386.5445</ele>
        <time>2020-02-09T11:31:05Z</time>
      </trkpt>
      <trkpt lat="47.69302" lon="6.6614">
        <ele>385.59363</ele>
        <time>2020-02-09T11:31:10Z</time>
      </trkpt>
      <trkpt lat="47.69315" lon="6.66099">
        <ele>385.01135</ele>
        <time>2020-02-09T11:31:15Z</time>
      </trkpt>
      <trkpt lat="47.69326" lon="6.66063">
        <ele>384.4546</ele>
        <time>2020-02-09T11:31:20Z</time>
      </trkpt>
      <trkpt lat="47.69331" lon="6.66031">
        <ele>383.75766</ele>
        <time>2020-02-09T11:31:25Z</time>
      </trkpt>
      <trkpt lat="47.69342" lon="6.65999">
        <ele>384.0419</ele>
        <time>2020-02-09T11:31:30Z</time>
      </trkpt>
      <trkpt lat="47.69354" lon="6.65973">
        <ele>384.1125</ele>
        <time>2020-02-09T11:31:35Z</time>
      </trkpt>
      <trkpt lat="47.69373" lon="6.65953">
        <ele>383.60083</ele>
        <time>2020-02-09T11:31:40Z</time>
      </trkpt>
      <trkpt lat="47.69398" lon="6.65941">
        <ele>383.26266</ele>
        <time>2020-02-09T11:31:45Z</time>
      </trkpt>
      <trkpt lat="47.69415" lon="6.65936">
        <ele>383.40677</ele>
        <time>2020-02-09T11:31:50Z</time>
      </trkpt>
      <trkpt lat="47.69434" lon="6.65931">
        <ele>383.77237</ele>
        <time>2020-02-09T11:31:55Z</time>
      </trkpt>
      <trkpt lat="47.69455" lon="6.65928">
        <ele>382.65106</ele>
        <time>2020-02-09T11:32:00Z</time>
      </trkpt>
      <trkpt lat="47.6947" lon="6.65923">
        <ele>383.2264</ele>
        <time>2020-02-09T11:32:05Z</time>
      </trkpt>
      <trkpt lat="47.6948" lon="6.65919">
        <ele>381.81995</ele>
        <time>2020-02-09T11:32:10Z</time>
      </trkpt>
      <trkpt lat="47.69487" lon="6.65918">
        <ele>381.8944</ele>
        <time>2020-02-09T11:32:15Z</time>
      </trkpt>
      <trkpt lat="47.6949" lon="6.65918">
        <ele>384.75354</ele>
        <time>2020-02-09T11:32:20Z</time>
      </trkpt>
      <trkpt lat="47.69497" lon="6.65916">
        <ele>384.21738</ele>
        <time>2020-02-09T11:32:25Z</time>
      </trkpt>
      <trkpt lat="47.69503" lon="6.65912">
        <ele>383.1617</ele>
        <time>2020-02-09T11:32:30Z</time>
      </trkpt>
      <trkpt lat="47.69509" lon="6.65907">
        <ele>382.3688</ele>
        <time>2020-02-09T11:32:35Z</time>
      </trkpt>
      <trkpt lat="47.69525" lon="6.659">
        <ele>384.6614</ele>
        <time>2020-02-09T11:32:40Z</time>
      </trkpt>
      <trkpt lat="47.69534" lon="6.65896">
        <ele>384.79276</ele>
        <time>2020-02-09T11:32:45Z</time>
      </trkpt>
      <trkpt lat="47.69539" lon="6.65891">
        <ele>382.9559</ele>
        <time>2020-02-09T11:32:55Z</time>
      </trkpt>
      <trkpt lat="47.6954" lon="6.6589">
        <ele>383.25974</ele>
        <time>2020-02-09T11:33:10Z</time>
      </trkpt>
      <trkpt lat="47.69539" lon="6.65877">
        <ele>383.50476</ele>
        <time>2020-02-09T11:33:25Z</time>
      </trkpt>
      <trkpt lat="47.69531" lon="6.65852">
        <ele>382.54422</ele>
        <time>2020-02-09T11:33:30Z</time>
      </trkpt>
      <trkpt lat="47.69532" lon="6.65821">
        <ele>382.59518</ele>
        <time>2020-02-09T11:33:35Z</time>
      </trkpt>
      <trkpt lat="47.69528" lon="6.65788">
        <ele>381.86795</ele>
        <time>2020-02-09T11:33:40Z</time>
      </trkpt>
      <trkpt lat="47.69517" lon="6.65754">
        <ele>382.6148</ele>
        <time>2020-02-09T11:33:45Z</time>
      </trkpt>
      <trkpt lat="47.69507" lon="6.65714">
        <ele>381.9787</ele>
        <time>2020-02-09T11:33:50Z</time>
      </trkpt>
      <trkpt lat="47.69498" lon="6.65677">
        <ele>380.097</ele>
        <time>2020-02-09T11:33:55Z</time>
      </trkpt>
      <trkpt lat="47.69487" lon="6.65651">
        <ele>382.8971</ele>
        <time>2020-02-09T11:34:00Z</time>
      </trkpt>
      <trkpt lat="47.69486" lon="6.65624">
        <ele>382.80005</ele>
        <time>2020-02-09T11:34:05Z</time>
      </trkpt>
      <trkpt lat="47.69479" lon="6.65601">
        <ele>380.83005</ele>
        <time>2020-02-09T11:34:10Z</time>
      </trkpt>
      <trkpt lat="47.69465" lon="6.65583">
        <ele>380.5047</ele>
        <time>2020-02-09T11:34:15Z</time>
      </trkpt>
      <trkpt lat="47.69447" lon="6.6556">
        <ele>381.08585</ele>
        <time>2020-02-09T11:34:20Z</time>
      </trkpt>
      <trkpt lat="47.69438" lon="6.65541">
        <ele>381.0839</ele>
        <time>2020-02-09T11:34:25Z</time>
      </trkpt>
      <trkpt lat="47.69432" lon="6.65531">
        <ele>381.22992</ele>
        <time>2020-02-09T11:34:30Z</time>
      </trkpt>
      <trkpt lat="47.69426" lon="6.65522">
        <ele>381.56412</ele>
        <time>2020-02-09T11:34:35Z</time>
      </trkpt>
      <trkpt lat="47.6943" lon="6.65504">
        <ele>382.18158</ele>
        <time>2020-02-09T11:34:40Z</time>
      </trkpt>
      <trkpt lat="47.69436" lon="6.65488">
        <ele>380.9555</ele>
        <time>2020-02-09T11:34:45Z</time>
      </trkpt>
      <trkpt lat="47.69439" lon="6.6547">
        <ele>379.9549</ele>
        <time>2020-02-09T11:34:50Z</time>
      </trkpt>
      <trkpt lat="47.69444" lon="6.65452">
        <ele>380.2685</ele>
        <time>2020-02-09T11:34:55Z</time>
      </trkpt>
      <trkpt lat="47.69448" lon="6.65439">
        <ele>380.44</ele>
        <time>2020-02-09T11:35:00Z</time>
      </trkpt>
      <trkpt lat="47.69448" lon="6.65418">
        <ele>381.20737</ele>
        <time>2020-02-09T11:35:05Z</time>
      </trkpt>
      <trkpt lat="47.69451" lon="6.65392">
        <ele>380.62524</ele>
        <time>2020-02-09T11:35:10Z</time>
      </trkpt>
      <trkpt lat="47.6946" lon="6.65374">
        <ele>382.3237</ele>
        <time>2020-02-09T11:35:15Z</time>
      </trkpt>
      <trkpt lat="47.69456" lon="6.6535">
        <ele>386.94055</ele>
        <time>2020-02-09T11:35:20Z</time>
      </trkpt>
      <trkpt lat="47.6946" lon="6.65324">
        <ele>381.78366</ele>
        <time>2020-02-09T11:35:25Z</time>
      </trkpt>
      <trkpt lat="47.69465" lon="6.65297">
        <ele>381.01822</ele>
        <time>2020-02-09T11:35:30Z</time>
      </trkpt>
      <trkpt lat="47.69471" lon="6.65271">
        <ele>380.5831</ele>
        <time>2020-02-09T11:35:35Z</time>
      </trkpt>
      <trkpt lat="47.69458" lon="6.65259">
        <ele>380.08426</ele>
        <time>2020-02-09T11:35:40Z</time>
      </trkpt>
      <trkpt lat="47.69445" lon="6.65249">
        <ele>382.92844</ele>
        <time>2020-02-09T11:35:45Z</time>
      </trkpt>
      <trkpt lat="47.69443" lon="6.65223">
        <ele>381.73956</ele>
        <time>2020-02-09T11:35:50Z</time>
      </trkpt>
      <trkpt lat="47.69449" lon="6.65194">
        <ele>378.95923</ele>
        <time>2020-02-09T11:35:55Z</time>
      </trkpt>
      <trkpt lat="47.69456" lon="6.65162">
        <ele>378.53198</ele>
        <time>2020-02-09T11:36:00Z</time>
      </trkpt>
      <trkpt lat="47.69464" lon="6.65128">
        <ele>382.37564</ele>
        <time>2020-02-09T11:36:05Z</time>
      </trkpt>
      <trkpt lat="47.69472" lon="6.65106">
        <ele>383.16565</ele>
        <time>2020-02-09T11:36:10Z</time>
      </trkpt>
      <trkpt lat="47.69483" lon="6.65066">
        <ele>380.62326</ele>
        <time>2020-02-09T11:36:15Z</time>
      </trkpt>
      <trkpt lat="47.6949" lon="6.65032">
        <ele>378.72012</ele>
        <time>2020-02-09T11:36:20Z</time>
      </trkpt>
      <trkpt lat="47.69498" lon="6.65">
        <ele>378.7054</ele>
        <time>2020-02-09T11:36:25Z</time>
      </trkpt>
      <trkpt lat="47.69505" lon="6.64965">
        <ele>377.97244</ele>
        <time>2020-02-09T11:36:30Z</time>
      </trkpt>
      <trkpt lat="47.69505" lon="6.64936">
        <ele>377.1003</ele>
        <time>2020-02-09T11:36:35Z</time>
      </trkpt>
      <trkpt lat="47.69502" lon="6.64906">
        <ele>376.37424</ele>
        <time>2020-02-09T11:36:40Z</time>
      </trkpt>
      <trkpt lat="47.69497" lon="6.64875">
        <ele>375.73148</ele>
        <time>2020-02-09T11:36:45Z</time>
      </trkpt>
      <trkpt lat="47.69491" lon="6.64849">
        <ele>377.74118</ele>
        <time>2020-02-09T11:36:50Z</time>
      </trkpt>
      <trkpt lat="47.69485" lon="6.64818">
        <ele>377.87836</ele>
        <time>2020-02-09T11:36:55Z</time>
      </trkpt>
      <trkpt lat="47.69483" lon="6.64783">
        <ele>376.8681</ele>
        <time>2020-02-09T11:37:00Z</time>
      </trkpt>
      <trkpt lat="47.69479" lon="6.64751">
        <ele>377.3247</ele>
        <time>2020-02-09T11:37:05Z</time>
      </trkpt>
      <trkpt lat="47.69473" lon="6.64713">
        <ele>375.58646</ele>
        <time>2020-02-09T11:37:10Z</time>
      </trkpt>
      <trkpt lat="47.69469" lon="6.64675">
        <ele>375.35718</ele>
        <time>2020-02-09T11:37:15Z</time>
      </trkpt>
      <trkpt lat="47.69466" lon="6.64635">
        <ele>374.82614</ele>
        <time>2020-02-09T11:37:20Z</time>
      </trkpt>
      <trkpt lat="47.69463" lon="6.64617">
        <ele>375.61783</ele>
        <time>2020-02-09T11:37:25Z</time>
      </trkpt>
      <trkpt lat="47.69465" lon="6.64622">
        <ele>376.40265</ele>
        <time>2020-02-09T11:37:40Z</time>
      </trkpt>
      <trkpt lat="47.69465" lon="6.64615">
        <ele>373.82092</ele>
        <time>2020-02-09T11:38:00Z</time>
      </trkpt>
      <trkpt lat="47.69458" lon="6.64607">
        <ele>377.28357</ele>
        <time>2020-02-09T11:38:10Z</time>
      </trkpt>
      <trkpt lat="47.69458" lon="6.64613">
        <ele>375.30035</ele>
        <time>2020-02-09T11:38:25Z</time>
      </trkpt>
      <trkpt lat="47.69457" lon="6.64619">
        <ele>374.0492</ele>
        <time>2020-02-09T11:38:35Z</time>
      </trkpt>
      <trkpt lat="47.6946" lon="6.64624">
        <ele>371.69403</ele>
        <time>2020-02-09T11:38:50Z</time>
      </trkpt>
      <trkpt lat="47.6946" lon="6.64627">
        <ele>371.81256</ele>
        <time>2020-02-09T11:39:20Z</time>
      </trkpt>
      <trkpt lat="47.69458" lon="6.64623">
        <ele>372.1045</ele>
        <time>2020-02-09T11:39:35Z</time>
      </trkpt>
      <trkpt lat="47.69461" lon="6.64623">
        <ele>371.35214</ele>
        <time>2020-02-09T11:39:45Z</time>
      </trkpt>
      <trkpt lat="47.69463" lon="6.64623">
        <ele>368.67697</ele>
        <time>2020-02-09T11:40:05Z</time>
      </trkpt>
      <trkpt lat="47.69463" lon="6.64619">
        <ele>372.4601</ele>
        <time>2020-02-09T11:40:50Z</time>
      </trkpt>
      <trkpt lat="47.69462" lon="6.64613">
        <ele>370.86526</ele>
        <time>2020-02-09T11:40:55Z</time>
      </trkpt>
      <trkpt lat="47.69458" lon="6.64612">
        <ele>368.43405</ele>
        <time>2020-02-09T11:41:15Z</time>
      </trkpt>
      <trkpt lat="47.69458" lon="6.6462">
        <ele>365.9796</ele>
        <time>2020-02-09T11:41:35Z</time>
      </trkpt>
      <trkpt lat="47.6946" lon="6.64616">
        <ele>366.9247</ele>
        <time>2020-02-09T11:41:49Z</time>
      </trkpt>
      <trkpt lat="47.6946" lon="6.64624">
        <ele>366.75626</ele>
        <time>2020-02-09T11:42:10Z</time>
      </trkpt>
      <trkpt lat="47.69458" lon="6.64627">
        <ele>365.2774</ele>
        <time>2020-02-09T11:42:25Z</time>
      </trkpt>
      <trkpt lat="47.69459" lon="6.64631">
        <ele>367.5457</ele>
        <time>2020-02-09T11:42:55Z</time>
      </trkpt>
      <trkpt lat="47.69458" lon="6.64629">
        <ele>367.5261</ele>
        <time>2020-02-09T11:43:15Z</time>
      </trkpt>
      <trkpt lat="47.6946" lon="6.64631">
        <ele>364.98166</ele>
        <time>2020-02-09T11:43:35Z</time>
      </trkpt>
      <trkpt lat="47.69456" lon="6.64647">
        <ele>364.95422</ele>
        <time>2020-02-09T11:43:40Z</time>
      </trkpt>
      <trkpt lat="47.69457" lon="6.6463">
        <ele>364.79166</ele>
        <time>2020-02-09T11:43:55Z</time>
      </trkpt>
      <trkpt lat="47.69455" lon="6.64613">
        <ele>365.90128</ele>
        <time>2020-02-09T11:44:00Z</time>
      </trkpt>
      <trkpt lat="47.69453" lon="6.64609">
        <ele>368.55356</ele>
        <time>2020-02-09T11:44:14Z</time>
      </trkpt>
      <trkpt lat="47.69449" lon="6.64615">
        <ele>368.437</ele>
        <time>2020-02-09T11:44:25Z</time>
      </trkpt>
      <trkpt lat="47.69445" lon="6.64608">
        <ele>364.80048</ele>
        <time>2020-02-09T11:44:50Z</time>
      </trkpt>
      <trkpt lat="47.69449" lon="6.64578">
        <ele>365.10504</ele>
        <time>2020-02-09T11:44:55Z</time>
      </trkpt>
      <trkpt lat="47.6947" lon="6.64557">
        <ele>364.66827</ele>
        <time>2020-02-09T11:45:00Z</time>
      </trkpt>
      <trkpt lat="47.69498" lon="6.64538">
        <ele>363.7399</ele>
        <time>2020-02-09T11:45:05Z</time>
      </trkpt>
      <trkpt lat="47.69507" lon="6.64526">
        <ele>363.04953</ele>
        <time>2020-02-09T11:45:10Z</time>
      </trkpt>
      <trkpt lat="47.6949" lon="6.64502">
        <ele>364.00922</ele>
        <time>2020-02-09T11:45:15Z</time>
      </trkpt>
      <trkpt lat="47.69462" lon="6.64461">
        <ele>365.01788</ele>
        <time>2020-02-09T11:45:20Z</time>
      </trkpt>
      <trkpt lat="47.69437" lon="6.64439">
        <ele>365.2118</ele>
        <time>2020-02-09T11:45:25Z</time>
      </trkpt>
      <trkpt lat="47.69404" lon="6.64428">
        <ele>363.88483</ele>
        <time>2020-02-09T11:45:30Z</time>
      </trkpt>
      <trkpt lat="47.69363" lon="6.64403">
        <ele>363.10828</ele>
        <time>2020-02-09T11:45:35Z</time>
      </trkpt>
      <trkpt lat="47.69317" lon="6.64361">
        <ele>362.22992</ele>
        <time>2020-02-09T11:45:40Z</time>
      </trkpt>
      <trkpt lat="47.69279" lon="6.64341">
        <ele>361.28012</ele>
        <time>2020-02-09T11:45:45Z</time>
      </trkpt>
      <trkpt lat="47.69265" lon="6.64338">
        <ele>359.7233</ele>
        <time>2020-02-09T11:45:50Z</time>
      </trkpt>
      <trkpt lat="47.69255" lon="6.64351">
        <ele>361.09897</ele>
        <time>2020-02-09T11:46:05Z</time>
      </trkpt>
      <trkpt lat="47.69217" lon="6.64345">
        <ele>362.71463</ele>
        <time>2020-02-09T11:46:10Z</time>
      </trkpt>
      <trkpt lat="47.69177" lon="6.64326">
        <ele>363.70563</ele>
        <time>2020-02-09T11:46:15Z</time>
      </trkpt>
      <trkpt lat="47.69158" lon="6.64294">
        <ele>365.62018</ele>
        <time>2020-02-09T11:46:20Z</time>
      </trkpt>
      <trkpt lat="47.6917" lon="6.64229">
        <ele>364.03564</ele>
        <time>2020-02-09T11:46:25Z</time>
      </trkpt>
      <trkpt lat="47.69199" lon="6.64179">
        <ele>363.73892</ele>
        <time>2020-02-09T11:46:30Z</time>
      </trkpt>
      <trkpt lat="47.69202" lon="6.64109">
        <ele>363.86426</ele>
        <time>2020-02-09T11:46:35Z</time>
      </trkpt>
      <trkpt lat="47.69186" lon="6.64042">
        <ele>364.07874</ele>
        <time>2020-02-09T11:46:40Z</time>
      </trkpt>
      <trkpt lat="47.69161" lon="6.63968">
        <ele>364.06406</ele>
        <time>2020-02-09T11:46:45Z</time>
      </trkpt>
      <trkpt lat="47.69134" lon="6.63902">
        <ele>365.9218</ele>
        <time>2020-02-09T11:46:50Z</time>
      </trkpt>
      <trkpt lat="47.69117" lon="6.63828">
        <ele>367.13824</ele>
        <time>2020-02-09T11:46:55Z</time>
      </trkpt>
      <trkpt lat="47.69109" lon="6.63747">
        <ele>363.78397</ele>
        <time>2020-02-09T11:47:00Z</time>
      </trkpt>
      <trkpt lat="47.69095" lon="6.63677">
        <ele>367.02072</ele>
        <time>2020-02-09T11:47:05Z</time>
      </trkpt>
    </trkseg>
  </trk>
</gpx>